[[{"header":{"parameterUnit":"m.s-1","parameterCategory":1,"la1":30.6,"la2":28.766,"lo1":-90.7593,"lo2":-88.6598,"dy":0.0162,"dx":0.0183,"nx":116,"ny":114,"refTime":"2024-05-26T06:00:00:Z","depth":0,"parameterNumber":2,"parameterNumberName":"U-component_of_WINDS"},"data":[0.0,0.0,0.0,0.0,0.0,0.0,0.0,0.0,0.0,0.0,0.0,0.0,0.0,0.0,0.0,0.0,0.0,0.0,0.0,0.0,0.0,0.0,0.0,0.0,0.0,0.0,0.0,0.0,0.0,0.0,0.0,0.0,0.0,0.0,0.0,0.0,0.0,0.0,0.0,0.0,0.0,0.0,0.0,0.0,0.0,0.0,0.0,0.0,0.0,0.0,0.0,0.0,0.0,0.0,0.0,0.0,0.0,0.0,0.0,0.0,0.0,0.0,0.0,0.0,0.0,0.0,0.0,0.0,0.0,0.0,0.0,0.0,0.0,0.0,0.0,0.0,0.0,0.0,0.0,0.0,0.0,0.0,0.0,0.0,0.0,0.0,0.0,0.0,0.0,0.0,0.0,0.0,0.0,0.0,0.0,0.0,0.0,0.0,0.0,0.0,0.0,0.0,0.0,0.0,0.0,0.0,0.0,0.0,0.0,0.0,0.0,0.0,0.0,0.0,0.0,0.0,0.0,0.0,0.0,0.0,0.0,0.0,0.0,0.0,0.0,0.0,0.0,0.0,0.0,0.0,0.0,0.0,0.0,0.0,0.0,0.0,0.0,0.0,0.0,0.0,0.0,0.0,0.0,0.0,0.0,0.0,0.0,0.0,0.0,0.0,0.0,0.0,0.0,0.0,0.0,0.0,0.0,0.0,0.0,0.0,0.0,0.0,0.0,0.0,0.0,0.0,0.0,0.0,0.0,0.0,0.0,0.0,0.0,0.0,0.0,0.0,0.0,0.0,0.0,0.0,0.0,0.0,0.0,0.0,0.0,0.0,0.0,0.0,0.0,0.0,0.0,0.0,0.0,0.0,0.0,0.0,0.0,0.0,0.0,0.0,0.0,0.0,0.0,0.0,0.0,0.0,0.0,0.0,0.0,0.0,0.0,0.0,0.0,0.0,0.0,0.0,0.0,0.0,0.0,0.0,0.0,0.0,0.0,0.0,0.0,0.0,0.0,0.0,0.0,0.0,0.0,0.0,0.0,0.0,0.0,0.0,0.0,0.0,0.0,0.0,0.0,0.0,0.0,0.0,0.0,0.0,0.0,0.0,0.0,0.0,0.0,0.0,0.0,0.0,0.0,0.0,0.0,0.0,0.0,0.0,0.0,0.0,0.0,0.0,0.0,0.0,0.0,0.0,0.0,0.0,0.0,0.0,0.0,0.0,0.0,0.0,0.0,0.0,0.0,0.0,0.0,0.0,0.0,0.0,0.0,0.0,0.0,0.0,0.0,0.0,0.0,0.0,0.0,0.0,0.0,0.0,0.0,0.0,0.0,0.0,0.0,0.0,0.0,0.0,0.0,0.0,0.0,0.0,0.0,0.0,0.0,0.0,0.0,0.0,0.0,0.0,0.0,0.0,0.0,0.0,0.0,0.0,0.0,0.0,0.0,0.0,0.0,0.0,0.0,0.0,0.0,0.0,0.0,0.0,0.0,0.0,0.0,0.0,0.0,0.0,0.0,0.0,0.0,0.0,0.0,0.0,0.0,0.0,0.0,0.0,0.0,0.0,0.0,0.0,0.0,0.0,0.0,0.0,0.0,0.0,0.0,0.0,0.0,0.0,0.0,0.0,0.0,0.0,0.0,0.0,0.0,0.0,0.0,0.0,0.0,0.0,0.0,0.0,0.0,0.0,0.0,0.0,0.0,0.0,0.0,0.0,0.0,0.0,0.0,0.0,0.0,0.0,0.0,0.0,0.0,0.0,0.0,0.0,0.0,0.0,0.0,0.0,0.0,0.0,0.0,0.0,0.0,0.0,0.0,0.0,0.0,0.0,0.0,0.0,0.0,0.0,0.0,0.0,0.0,0.0,0.0,0.0,0.0,0.0,0.0,0.0,0.0,0.0,0.0,0.0,0.0,0.0,0.0,0.0,0.0,0.0,0.0,0.0,0.0,0.0,0.0,0.0,0.0,0.0,0.0,0.0,0.0,0.0,0.0,0.0,0.0,0.0,0.0,0.0,0.0,0.0,0.0,0.0,0.0,0.0,0.0,0.0,0.0,0.0,0.0,0.0,0.0,0.0,0.0,0.0,0.0,0.0,0.0,0.0,0.0,0.0,0.0,0.0,0.0,0.0,0.0,0.0,0.0,0.0,0.0,0.0,0.0,0.0,0.0,0.0,0.0,0.0,0.0,0.0,0.0,0.0,0.0,0.0,0.0,0.0,0.0,0.0,0.0,0.0,0.0,0.0,0.0,0.0,0.0,0.0,0.0,0.0,0.0,0.0,0.0,0.0,0.0,0.0,0.0,0.0,0.0,0.0,0.0,0.0,0.0,0.0,0.0,0.0,0.0,0.0,0.0,0.0,0.0,0.0,0.0,0.0,0.0,0.0,0.0,0.0,0.0,0.0,0.0,0.0,0.0,0.0,0.0,0.0,0.0,0.0,0.0,0.0,0.0,0.0,0.0,0.0,0.0,0.0,0.0,0.0,0.0,0.0,0.0,0.0,0.0,0.0,0.0,0.0,0.0,0.0,0.0,0.0,0.0,0.0,0.0,0.0,0.0,0.0,0.0,0.0,0.0,0.0,0.0,0.0,0.0,0.0,0.0,0.0,0.0,0.0,0.0,0.0,0.0,0.0,0.0,0.0,0.0,0.0,0.0,0.0,0.0,0.0,0.0,0.0,0.0,0.0,0.0,0.0,0.0,0.0,0.0,0.0,0.0,0.0,0.0,0.0,0.0,0.0,0.0,0.0,0.0,0.0,0.0,0.0,0.0,0.0,0.0,0.0,0.0,0.0,0.0,0.0,0.0,0.0,0.0,0.0,0.0,0.0,0.0,0.0,0.0,0.0,0.0,0.0,0.0,0.0,0.0,0.0,0.0,0.0,0.0,0.0,0.0,0.0,0.0,0.0,0.0,0.0,0.0,0.0,0.0,0.0,0.0,0.0,0.0,0.0,0.0,0.0,0.0,0.0,0.0,0.0,0.0,0.0,0.0,0.0,0.0,0.0,0.0,0.0,0.0,0.0,0.0,0.0,0.0,0.0,0.0,0.0,0.0,0.0,0.0,0.0,0.0,0.0,0.0,0.0,0.0,0.0,0.0,0.0,0.0,0.0,0.0,0.0,0.0,0.0,0.0,0.0,0.0,0.0,0.0,0.0,0.0,0.0,0.0,0.0,0.0,0.0,0.0,0.0,0.0,0.0,0.0,0.0,0.0,0.0,0.0,0.0,0.0,0.0,0.0,0.0,0.0,0.0,0.0,0.0,0.0,0.0,0.0,0.0,0.0,0.0,0.0,0.0,0.0,0.0,0.0,0.0,0.0,0.0,0.0,0.0,0.0,0.0,0.0,0.0,0.0,0.0,0.0,0.0,0.0,0.0,0.0,0.0,0.0,0.0,0.0,0.0,0.0,0.0,0.0,0.0,0.0,0.0,0.0,0.0,0.0,0.0,0.0,0.0,0.0,0.0,0.0,0.0,0.0,0.0,0.0,0.0,0.0,0.0,0.0,0.0,0.0,0.0,0.0,0.0,0.0,0.0,0.0,0.0,0.0,0.0,0.0,0.0,0.0,0.0,0.0,0.0,0.0,0.0,0.0,0.0,0.0,0.0,0.0,0.0,0.0,0.0,0.0,0.0,0.0,0.0,0.0,0.0,0.0,0.0,0.0,0.0,0.0,0.0,0.0,0.0,0.0,0.0,0.0,0.0,0.0,0.0,0.0,0.0,0.0,0.0,0.0,0.0,0.0,0.0,0.0,0.0,0.0,0.0,0.0,0.0,0.0,0.0,0.0,0.0,0.0,0.0,0.0,0.0,0.0,0.0,0.0,0.0,0.0,0.0,0.0,0.0,0.0,0.0,0.0,0.0,0.0,0.0,0.0,0.0,0.0,0.0,0.0,0.0,0.0,0.0,0.0,0.0,0.0,0.0,0.0,0.0,0.0,0.0,0.0,0.0,0.0,0.0,0.0,0.0,0.0,0.0,0.0,0.0,0.0,0.0,0.0,0.0,0.0,0.0,0.0,0.0,0.0,0.0,0.0,0.0,0.0,0.0,0.0,0.0,0.0,0.0,0.0,0.0,0.0,0.0,0.0,0.0,0.0,0.0,0.0,0.0,0.0,0.0,0.0,0.0,0.0,0.0,0.0,0.0,0.0,0.0,0.0,0.0,0.0,0.0,0.0,0.0,0.0,0.0,0.0,0.0,0.0,0.0,0.0,0.0,0.0,0.0,0.0,0.0,0.0,0.0,0.0,0.0,0.0,0.0,0.0,0.0,0.0,0.0,0.0,0.0,0.0,0.0,0.0,0.0,0.0,0.0,0.0,0.0,0.0,0.0,0.0,0.0,0.0,0.0,0.0,0.0,0.0,0.0,0.0,0.0,0.0,0.0,0.0,0.0,0.0,0.0,0.0,0.0,0.0,0.0,0.0,0.0,0.0,0.0,0.0,0.0,0.0,0.0,0.0,0.0,0.0,0.0,0.0,0.0,0.0,0.0,0.0,0.0,0.0,0.0,0.0,0.0,0.0,0.0,0.0,0.0,0.0,0.0,0.0,0.0,0.0,0.0,0.0,0.0,0.0,0.0,0.0,0.0,0.0,0.0,0.0,0.0,0.0,0.0,0.0,0.0,0.0,0.0,0.0,0.0,0.0,0.0,0.0,0.0,0.0,0.0,0.0,0.0,0.0,0.0,0.0,0.0,0.0,0.0,0.0,0.0,0.0,0.0,0.0,0.0,0.0,0.0,0.0,0.0,0.0,0.0,0.0,0.0,0.0,0.0,0.0,0.0,0.0,0.0,0.0,0.0,0.0,0.0,0.0,0.0,0.0,0.0,0.0,0.0,0.0,0.0,0.0,0.0,0.0,0.0,0.0,0.0,0.0,0.0,0.0,0.0,0.0,0.0,0.0,0.0,0.0,0.0,0.0,0.0,0.0,0.0,0.0,0.0,0.0,0.0,0.0,0.0,0.0,0.0,0.0,0.0,0.0,0.0,0.0,0.0,0.0,0.0,0.0,0.0,0.0,0.0,0.0,0.0,0.0,0.0,0.0,0.0,0.0,0.0,0.0,0.0,0.0,0.0,0.0,0.0,0.0,0.0,0.0,0.0,0.0,0.0,0.0,0.0,0.0,0.0,0.0,0.0,0.0,0.0,0.0,0.0,0.0,0.0,0.0,0.0,0.0,0.0,0.0,0.0,0.0,0.0,0.0,0.0,0.0,0.0,0.0,0.0,0.0,0.0,0.0,0.0,0.0,0.0,0.0,0.0,0.0,0.0,0.0,0.0,0.0,0.0,0.0,0.0,0.0,0.0,0.0,0.0,0.0,0.0,0.0,0.0,0.0,0.0,0.0,0.0,0.0,0.0,0.0,0.0,0.0,0.0,0.0,0.0,0.0,0.0,0.0,0.0,0.0,0.0,0.0,0.0,0.0,0.0,0.0,0.0,0.0,0.0,0.0,0.0,0.0,0.0,0.0,0.0,0.0,0.0,0.0,0.0,0.0,0.0,0.0,0.0,0.0,0.0,0.0,0.0,0.0,0.0,0.0,0.0,0.0,0.0,0.0,0.0,0.0,0.0,0.0,0.0,0.0,0.0,0.0,0.0,0.0,0.0,0.0,0.0,0.0,0.0,0.0,0.0,0.0,0.0,0.0,0.0,0.0,0.0,0.0,0.0,0.0,0.0,0.0,0.0,0.0,0.0,0.0,0.0,0.0,0.0,0.0,0.0,0.0,0.0,0.0,0.0,0.0,0.0,0.0,0.0,0.0,0.0,0.0,0.0,0.0,0.0,0.0,0.0,0.0,0.0,0.0,0.0,0.0,0.0,0.0,0.0,0.0,0.0,0.0,0.0,0.0,0.0,0.0,0.0,0.0,0.0,0.0,0.0,0.0,0.0,0.0,0.0,0.0,0.0,0.0,0.0,0.0,0.0,0.0,0.0,0.0,0.0,0.0,0.0,0.0,0.0,0.0,0.0,0.0,0.0,0.0,0.0,0.0,0.0,0.0,0.0,0.0,0.0,0.0,0.0,0.0,0.0,0.0,0.0,0.0,0.0,0.0,0.0,0.0,0.0,0.0,0.0,0.0,0.0,0.0,0.0,0.0,0.0,0.0,0.0,0.2933,0.0,0.0,0.0,0.0,0.0,0.0,0.0,0.0,0.0,0.0,0.0,0.0,0.0,0.0,0.0,0.0,0.0,0.0,0.0,0.0,0.0,0.0,0.0,0.0,-0.1345,-0.1725,-0.2025,-0.2389,-0.2638,-0.2737,0.0,0.0,0.0,0.0,0.0,-0.2662,-0.2595,-0.2583,-0.2651,-0.2583,-0.2598,-0.2701,-0.2647,-0.2436,-0.2071,0.0,0.0,0.0,0.0,0.0,0.0,0.0,0.0,0.0,0.0,0.0,0.0,0.0,0.0,0.0,0.0,0.0,0.0,0.0,0.0,0.0,0.0,0.0,0.0,0.0,0.0,0.0,0.0,0.0,0.0,0.0,0.0,0.0,0.0,0.0,0.0,0.0,0.0,0.0,0.0,0.0,0.0,0.0,0.0,0.0,0.0,0.0,0.0,0.0,0.0,0.0,0.0,0.0,0.0,0.0,0.0,0.0,0.0,0.0,0.0,0.0,0.0,0.0,0.0,0.0,0.0,0.0,0.0,0.0,0.0,0.0,0.2915,0.0,0.0,0.0,0.0,0.0,0.0,0.0,0.0,0.0,0.0,0.0,0.0,0.0,0.0,0.0,0.0,0.0,0.0,0.0,0.0,0.0,-0.134,-0.1409,-0.1713,-0.1982,-0.214,-0.2496,-0.2715,-0.2737,-0.2832,0.0,0.0,0.0,-0.269,-0.2569,-0.2544,-0.2604,-0.2748,-0.2667,-0.2732,-0.2956,-0.3126,-0.2983,-0.2626,-0.2607,0.0,0.0,0.0,0.0,0.0,0.0,0.0,0.0,0.0,0.0,0.0,0.0,0.0,0.0,0.0,0.0,0.0,0.0,0.0,0.0,0.0,0.0,0.0,0.0,0.0,0.0,0.0,0.0,0.0,0.0,0.0,0.0,0.0,0.0,0.0,0.0,0.0,0.0,0.0,0.0,0.0,0.0,0.0,0.0,0.0,0.0,0.0,0.0,0.0,0.0,0.0,0.0,0.0,0.0,0.0,0.0,0.0,0.0,0.0,0.0,0.0,0.0,0.0,0.204,0.2057,0.2366,0.1917,0.2054,0.2659,0.2764,0.296,0.3152,0.2607,0.0,0.0,0.0,0.0,0.0,0.0,0.0,0.0,0.0,0.0,0.0,0.0,0.0,0.0,0.0,0.0,0.0,0.0,0.0,-0.1762,-0.1892,-0.2209,-0.2512,-0.2756,-0.2737,-0.275,-0.286,-0.2882,0.0,0.0,-0.2865,-0.2857,-0.2841,-0.2737,-0.2773,-0.2954,-0.3059,-0.3115,-0.3172,-0.318,-0.3158,-0.3096,-0.2996,-0.293,-0.2917,0.0,0.0,0.0,0.0,0.0,0.0,0.0,0.0,0.0,0.0,0.0,0.0,0.0,0.0,0.0,0.0,0.0,0.0,0.0,0.0,0.0,0.0,0.0,0.0,0.0,0.0,0.0,0.0,0.0,0.0,0.0,0.0,0.0,0.0,0.0,0.0,0.0,0.0,0.0,0.0,0.0,0.0794,0.0773,0.0,0.0,0.0,0.0,0.0,0.0,0.0,0.0,0.0,0.0,0.0,0.0,0.0,0.1022,0.1144,0.1199,0.1255,0.131,0.1301,0.1412,0.1568,0.1667,0.1842,0.2127,0.2289,0.0,0.2728,0.2147,0.0,0.0,0.0,0.0,0.0,0.0,0.0,0.0,0.0,0.0,0.0,0.0,0.0,0.0,0.0,0.0,0.0,0.0,0.0,0.0,0.0,-0.2584,-0.2778,-0.2955,-0.2979,-0.2952,-0.2895,-0.2933,-0.2908,-0.2791,-0.2854,-0.289,-0.289,-0.2881,-0.2951,-0.3118,-0.3333,-0.339,-0.3322,-0.3392,-0.3458,-0.3542,-0.34,-0.3247,-0.3107,-0.294,0.0,0.0,0.0,0.0,0.0,0.0,0.0,0.0,0.0,0.0,0.0,0.0,0.0,0.0,0.0,0.0,0.0,0.0,0.0,0.0,0.0,0.0,0.0,0.0,0.0,0.0,0.0,0.0,0.0,0.0,0.0,0.0,0.0,0.0,0.0,0.0,0.0,0.0,0.0,0.072,0.0879,0.0855,0.0898,0.0882,0.0,0.0,0.0,0.0,0.0,0.0,0.0,0.0,0.0,-0.0545,-0.0524,-0.0469,-0.0412,0.0155,0.051,0.0584,0.1194,0.1551,0.1753,0.1806,0.1871,0.1947,0.217,0.2295,0.2328,0.2029,0.1815,0.1649,0.0,0.0,0.0,0.0,0.1391,0.14,0.0,0.0,0.0,0.0,0.0,0.0,0.0,0.0,0.0,0.0,0.0,0.0,-0.2728,-0.2835,-0.295,-0.3032,-0.3118,-0.3088,-0.2991,-0.3105,-0.3101,-0.2956,-0.314,-0.3265,-0.3265,-0.3248,-0.3262,-0.3314,-0.3523,-0.3596,-0.3539,-0.3632,-0.3719,-0.3827,-0.3713,-0.3555,-0.3346,-0.3177,-0.3045,0.0,0.0,0.0,0.0,0.0,0.0,0.0,0.0,0.0,0.0,0.0,0.0,0.0,0.0,0.0,0.0,0.0,0.0,0.0,0.0,0.0,0.0,0.0,0.0,0.0,0.0,0.0,0.0,0.0,0.0,0.0,0.0,0.0,0.0,0.0,0.0,0.0,0.0,0.0389,0.0529,0.0873,0.0593,0.043,0.0,0.0,0.0,0.0,0.0,0.0,-0.1599,-0.1625,-0.163,-0.1691,-0.1666,-0.1621,-0.1556,-0.0824,-0.0374,-0.021,0.0507,0.0971,0.1175,0.1445,0.1597,0.1678,0.2133,0.2296,0.225,0.2162,0.2069,0.1968,0.1827,0.1694,0.1563,0.1673,0.1691,0.1735,0.0,0.0,0.0,0.0,0.0,0.0,0.0,0.0,0.0,0.0,0.0,-0.2737,-0.2868,-0.2884,-0.2983,-0.3166,-0.3069,-0.3051,0.0,-0.348,-0.3665,-0.3648,-0.4021,-0.4232,-0.4232,-0.3975,-0.3766,-0.3594,-0.3715,-0.383,-0.3878,-0.3884,-0.3889,-0.3895,-0.3889,-0.3846,-0.3739,-0.3482,-0.3314,-0.318,0.0,0.0,0.0,0.0,0.0,0.0,0.0,0.0,0.0,0.0,0.0,0.0,0.0,0.0,0.0,0.0,0.0,0.0,0.0,0.0,0.0,0.0,0.0,0.0,0.0,0.0,0.0,0.0,0.0,0.0,0.0,0.0,0.0,0.0,0.0,0.0,0.0,0.0,0.0,0.0836,-0.0337,0.0,0.0,0.0,0.0,-0.1519,-0.1491,-0.1534,-0.1691,-0.1652,-0.1614,-0.1619,-0.153,-0.1507,-0.151,-0.1454,-0.1412,-0.1429,-0.1371,-0.1241,-0.1006,0.0126,0.0755,0.1006,0.218,0.2681,0.2665,0.2445,0.2234,0.1994,0.1992,0.1852,0.171,0.1897,0.1985,0.1994,0.0,0.0,0.0,0.0,0.0,-0.2344,-0.2294,-0.237,-0.2445,-0.2489,-0.2694,-0.2871,-0.2948,-0.3121,-0.3246,-0.3327,-0.3371,-0.3343,-0.3199,-0.3596,-0.3821,-0.3819,-0.4245,-0.4483,-0.4419,-0.396,-0.3735,-0.3781,-0.3852,-0.3862,-0.3903,-0.3903,-0.3946,-0.4016,-0.3938,-0.3924,-0.3969,-0.3653,-0.3493,-0.3433,-0.3191,-0.3301,0.0,0.0,0.0,0.0,0.0,0.0,0.0,0.0,0.0,0.0,0.0,0.0,0.0,0.0,0.0,0.0,0.0,0.0,0.0,0.0,0.0,0.0,0.0,0.0,0.0,0.0,0.0,0.0,0.0,0.0,0.0,0.0,0.0,0.0,0.0,0.0,0.0,-0.0663,-0.1149,0.0,-0.1174,-0.1825,-0.2278,-0.2445,-0.2814,-0.3102,-0.3307,-0.3281,-0.3287,-0.3331,-0.3314,-0.3283,-0.3283,-0.2691,-0.2382,-0.2409,-0.1764,-0.141,-0.1311,-0.0949,-0.0557,-0.0172,0.038,0.1092,0.1762,0.135,0.167,0.2393,0.2355,0.2266,0.2145,0.2239,0.2247,0.2286,0.0,0.0,0.0,0.0,-0.2228,-0.2361,-0.2361,-0.244,-0.2523,-0.257,-0.2772,-0.2974,-0.3069,-0.3258,-0.3417,-0.3458,-0.3536,-0.3624,-0.3635,-0.4041,-0.4371,-0.4557,-0.4835,-0.4809,-0.4453,-0.4095,-0.3931,-0.3965,-0.3965,-0.3986,-0.4027,-0.4027,-0.407,-0.4175,-0.4062,-0.4073,-0.4162,-0.3882,-0.374,-0.368,-0.3439,-0.3599,-0.3963,0.0,0.0,0.0,0.0,0.0,0.0,0.0,0.0,0.0,0.0,0.0,0.0,0.0,0.0,0.0,0.0,0.0,0.0,0.0,0.0,0.0,0.0,0.0,0.0,0.0,0.0,0.0,0.0,0.0,0.0,0.0,0.0,0.0,0.0,0.0,-0.1957,-0.1565,-0.2056,-0.2331,-0.2089,-0.2707,-0.3184,-0.3327,-0.3749,-0.4057,-0.4208,-0.4216,-0.424,-0.4297,-0.43,-0.43,-0.43,-0.3673,-0.336,-0.336,-0.2685,-0.2371,-0.237,-0.1985,-0.1666,-0.1315,-0.0648,0.0129,0.0858,0.0639,0.1095,0.195,0.2108,0.2296,0.2481,0.2481,0.2467,0.245,0.0,0.0,0.0,-0.2408,-0.2347,-0.2303,-0.2303,-0.2424,-0.2501,-0.2501,-0.2802,-0.3048,-0.318,-0.333,-0.3455,-0.363,-0.3638,-0.3888,-0.4491,-0.4832,-0.5288,-0.589,-0.576,-0.5275,-0.4363,-0.448,-0.4423,-0.4185,-0.4185,-0.4248,-0.4367,-0.4367,-0.4367,-0.4334,-0.4334,-0.4334,-0.4292,-0.4172,-0.4021,-0.3895,-0.3689,-0.3971,-0.4493,0.0,0.0,0.0,0.0,0.0,0.0,0.0,0.0,0.0,0.0,0.0,0.0,0.0,0.0,0.0,0.0,0.0,0.0,0.0,0.0,0.0,0.0,0.0,0.0,0.0,0.0,0.0,0.0,0.0,0.0,0.0,0.0,0.0,-0.2401,-0.3083,-0.3137,-0.1843,-0.3073,-0.3714,-0.2936,-0.3532,-0.4081,-0.4212,-0.422,-0.4212,-0.4295,-0.43,-0.43,-0.43,-0.43,-0.43,-0.43,-0.43,-0.43,-0.43,-0.43,-0.43,-0.4253,-0.309,-0.2552,-0.2463,-0.0805,-0.0089,0.0,0.035,0.0565,0.065,0.1314,0.199,0.2563,0.2563,0.2525,0.2514,0.0,0.0,-0.2613,-0.2613,-0.253,-0.2447,-0.2447,-0.2512,-0.2581,-0.2581,-0.2915,-0.3158,-0.3191,-0.3406,-0.3737,-0.4211,-0.4242,-0.4491,-0.5034,-0.5439,-0.5737,-0.5954,-0.5794,-0.5653,-0.5544,-0.5655,-0.5751,-0.5774,-0.5774,-0.5796,-0.5811,-0.5811,-0.5547,-0.5017,-0.5017,-0.4755,-0.4298,-0.4265,-0.423,-0.4178,-0.3905,-0.4392,-0.5203,0.0,0.0,0.0,0.0,0.0,0.0,0.0,0.0,0.0,0.0,0.0,0.0,0.0,0.0,0.0,0.0,0.0,0.0,0.0,0.0,0.0,0.0,0.0,0.0,0.0,0.0,0.0,0.0,0.0,0.0,0.0,0.0,-0.3423,-0.325,-0.3608,-0.3792,-0.35,-0.3898,-0.4128,-0.3928,-0.4079,-0.4236,-0.4263,-0.4265,-0.4275,-0.4297,-0.43,-0.43,-0.43,-0.43,-0.43,-0.43,-0.43,-0.43,-0.43,-0.43,-0.43,-0.43,-0.3941,-0.3628,-0.3272,-0.2822,-0.1926,-0.0851,-0.1247,-0.0578,0.0664,0.0768,0.1256,0.1874,0.1874,0.2176,0.2576,0.0,-0.2497,-0.2613,-0.2613,-0.2513,-0.2414,-0.2414,-0.2497,-0.2562,-0.2562,-0.2942,-0.3193,-0.3193,-0.3439,-0.3833,-0.4436,-0.4491,-0.4846,-0.5632,-0.6207,-0.6436,-0.6267,-0.6267,-0.6224,-0.6096,-0.6314,-0.6437,-0.64,-0.6584,-0.6654,-0.6584,-0.6658,-0.6453,-0.604,-0.604,-0.5807,-0.5315,-0.5014,-0.5014,-0.514,-0.4682,-0.4697,-0.5033,-0.5362,-0.5828,-0.6315,-0.6681,-0.6665,-0.6415,-0.6197,0.0,0.0,0.0,0.0,0.0,0.0,0.0,0.0,0.0,0.0,0.0,0.0,0.0,0.0,0.0,0.0,0.0,0.0,0.0,0.0,0.0,0.0,0.0,0.0,-0.3894,-0.3772,-0.385,-0.3993,-0.4126,-0.4216,-0.4269,-0.43,-0.43,-0.43,-0.43,-0.43,-0.43,-0.43,-0.43,-0.43,-0.43,-0.43,-0.43,-0.43,-0.43,-0.43,-0.43,-0.43,-0.43,-0.43,-0.43,-0.43,-0.4166,-0.39,-0.3676,-0.3048,-0.2152,-0.2377,-0.1704,0.0,0.0,0.0,0.0,0.0,0.1583,0.2185,0.0,-0.2593,-0.2494,-0.2494,-0.2383,-0.2309,-0.2321,-0.2433,-0.2506,-0.252,-0.2928,-0.3193,-0.3193,-0.3439,-0.3858,-0.4543,-0.4598,-0.5101,0.0,-0.6875,-0.7035,-0.6668,-0.6951,-0.6885,-0.6407,-0.681,-0.6946,-0.6726,-0.7129,-0.7245,-0.7087,-0.725,-0.7291,-0.7225,-0.7225,-0.7065,-0.6777,-0.6118,-0.609,-0.6395,-0.5734,-0.5133,-0.4767,-0.5689,-0.6017,-0.6108,-0.7102,-0.7342,-0.7193,-0.6908,0.0,0.0,0.0,0.0,0.0,0.0,0.0,0.0,0.0,0.0,0.0,0.0,0.0,0.0,0.0,0.0,0.0,0.0,0.0,0.0,0.0,0.0,0.0,0.0,-0.4112,-0.4293,-0.4433,-0.4446,-0.4432,-0.4334,-0.43,-0.43,-0.43,-0.43,-0.43,-0.43,-0.43,-0.43,-0.43,0.0,0.0,0.0,0.0,-0.43,-0.43,-0.43,-0.43,-0.43,-0.43,-0.43,-0.43,-0.43,-0.43,-0.4253,-0.381,-0.3587,-0.3497,-0.3002,-0.2556,-0.1974,-0.0852,-0.0044,0.0478,0.0512,0.093,0.1476,0.0,-0.2593,-0.2494,-0.2494,-0.2383,-0.2338,-0.2452,-0.2486,-0.2536,-0.2657,-0.2982,-0.3193,-0.3193,-0.3439,-0.4024,-0.5062,-0.5144,-0.5729,0.0,0.0,-0.6316,-0.6981,-0.7164,-0.7327,-0.7493,-0.8164,-0.8552,-0.8646,-0.8739,-0.8759,-0.8753,-0.8794,-0.8498,-0.7978,-0.7978,-0.7633,-0.7028,-0.6887,-0.6786,-0.6725,-0.6555,-0.6668,-0.6874,-0.6867,-0.7212,-0.7701,-0.7728,-0.7822,-0.7938,-0.7672,-0.7533,-0.7404,-0.7149,0.0,0.0,0.0,0.0,0.0,0.0,0.0,0.0,0.0,0.0,0.0,0.0,0.0,0.0,0.0,0.0,0.0,0.0,0.0,0.0,-0.6318,-0.605,-0.5892,-0.5978,-0.5995,-0.5562,-0.4429,-0.43,-0.43,-0.43,-0.43,-0.43,-0.43,-0.43,-0.43,-0.43,-0.43,-0.43,-0.43,-0.43,-0.43,-0.43,-0.43,-0.43,-0.43,0.0,0.0,-0.43,-0.43,-0.43,-0.4253,-0.381,-0.3406,-0.3002,-0.2511,-0.2018,-0.148,-0.0718,-0.0313,-0.0134,0.0444,0.0701,0.0777,-0.2696,-0.2593,-0.2494,-0.2494,-0.2383,-0.2344,-0.2484,-0.25,-0.2544,-0.269,-0.2995,-0.3268,-0.3426,-0.368,-0.4261,-0.5306,-0.5518,0.0,0.0,-0.6533,-0.6545,-0.7077,-0.7737,-0.8182,-0.8339,-0.8954,-0.9252,-0.9206,-0.9443,-0.9507,-0.9394,-0.9507,-0.9379,-0.9056,-0.9056,-0.8808,-0.8344,-0.7943,-0.786,-0.7944,-0.7498,-0.7668,-0.8123,-0.7547,-0.7528,-0.7863,-0.8074,-0.8231,-0.8328,-0.8084,-0.8003,-0.7966,-0.7698,-0.7381,-0.7052,0.0,0.0,0.0,0.0,0.0,0.0,0.0,0.0,0.0,0.0,0.0,0.0,0.0,0.0,-0.7274,0.0,0.0,-0.6881,-0.6701,-0.6497,-0.6352,-0.6375,-0.6384,-0.603,-0.4968,-0.4835,-0.4701,-0.4344,-0.43,-0.4433,-0.4835,-0.4523,-0.4478,-0.4835,-0.4523,-0.4367,-0.4367,-0.4412,-0.4436,-0.4436,-0.4436,-0.4436,-0.4436,-0.4389,-0.4367,-0.432,-0.4051,-0.3942,-0.3942,-0.3451,-0.3136,-0.2868,-0.2377,-0.2064,-0.1749,-0.1121,-0.0897,-0.0852,-0.0493,-0.0178,0.0088,-0.2696,-0.2613,-0.2527,-0.251,-0.2383,-0.2353,-0.2498,-0.2517,-0.2552,-0.2723,-0.2993,-0.3294,-0.3661,-0.3926,-0.4481,-0.5482,-0.565,0.0,0.0,-0.6721,-0.6958,-0.7363,-0.8367,-0.8917,-0.8965,-0.9392,-0.9502,-0.9346,-0.9733,-0.9825,-0.9647,-0.9836,-0.9884,-0.9884,-0.9884,-0.982,-0.9605,-0.9043,-0.8985,-0.9224,-0.8438,-0.848,-0.887,-0.8062,-0.7723,-0.7754,-0.8317,-0.8517,-0.8484,-0.8317,-0.8252,-0.8219,-0.8,-0.7908,-0.779,-0.7436,-0.7285,0.0,0.0,0.0,0.0,0.0,0.0,0.0,0.0,0.0,-0.7179,-0.7785,-0.7798,-0.7633,-0.7537,-0.7599,-0.7453,-0.6847,-0.6796,-0.683,-0.683,-0.683,-0.6564,-0.5902,-0.5683,-0.5369,-0.4788,-0.4699,-0.4966,-0.5549,-0.5077,-0.5041,-0.5628,-0.5189,-0.4921,-0.4921,-0.4861,-0.4856,-0.4856,-0.4668,-0.4621,-0.4619,-0.4498,-0.4461,-0.4413,-0.387,-0.3609,-0.3607,-0.3008,-0.2695,-0.2614,-0.2202,-0.2064,-0.2019,-0.157,-0.1391,-0.1391,-0.1391,-0.1076,-0.0583,0.0,-0.2679,-0.2646,-0.2527,-0.2383,-0.2364,-0.2563,-0.2534,-0.2585,-0.2838,-0.2953,-0.3203,-0.3651,-0.3843,-0.4437,-0.5756,-0.5293,0.0,-0.7538,-0.68,-0.6913,-0.827,-0.8688,-0.8992,-0.9163,-0.9437,-0.9663,-0.9841,-0.9857,-0.9906,-0.9884,-0.9868,-0.9884,-0.9884,-0.9884,-0.9906,-0.9847,-0.9766,-0.967,-0.9534,-0.9435,-0.9291,-0.9141,-0.8842,-0.8595,-0.8382,-0.8484,-0.8517,-0.8511,-0.8484,-0.8474,-0.8468,-0.8441,-0.8285,-0.8158,-0.8104,0.0,-0.7709,-0.7655,-0.7443,-0.7275,-0.7513,-0.7433,-0.7382,0.0,0.0,-0.7807,-0.7969,-0.7959,-0.802,-0.814,-0.8201,-0.8235,-0.8329,-0.8332,-0.8344,-0.8344,-0.8344,-0.8072,-0.7356,-0.6694,-0.6254,-0.6163,-0.6163,-0.6207,-0.6296,-0.6364,-0.6478,-0.6569,-0.6644,-0.6714,-0.6714,-0.6025,-0.5656,-0.5656,-0.495,-0.4621,-0.4621,-0.4561,-0.4557,-0.4555,-0.3953,-0.3687,-0.3638,-0.2668,-0.204,-0.1657,-0.1537,-0.148,-0.148,-0.1436,-0.1391,-0.1391,-0.1391,-0.1345,-0.13,0.0,-0.2696,-0.2663,-0.2527,-0.2495,-0.2525,-0.2693,-0.2663,-0.269,-0.2868,-0.3199,-0.3572,-0.401,-0.4442,-0.5116,-0.6116,-0.5224,-0.5345,-0.7052,-0.6555,-0.6766,-0.8021,-0.8727,-0.9174,-0.9416,-0.9653,-0.9825,-0.9884,-0.9884,-0.9884,-0.9884,-0.9884,-0.9884,-0.9884,-0.9884,-0.9884,-0.9884,-0.9884,-0.9868,-0.9766,-0.9631,-0.9518,-0.9378,-0.9041,-0.8836,-0.87,-0.8565,-0.8517,0.0,0.0,-0.8517,-0.8517,-0.8517,-0.8376,-0.8207,-0.8207,-0.8209,0.0,-0.8022,-0.7857,-0.7717,0.0,-0.7611,-0.7618,-0.8017,-0.8008,-0.7965,-0.8118,-0.8174,-0.8231,-0.8418,-0.8494,-0.8522,0.0,-0.8612,-0.8612,-0.8612,-0.8612,-0.8476,-0.816,-0.7852,-0.7363,-0.6476,-0.6502,-0.6776,-0.7182,-0.6994,-0.7028,-0.7446,-0.7206,-0.7047,-0.7047,-0.6785,-0.6632,-0.6632,-0.629,-0.5899,-0.5412,-0.5352,-0.5131,-0.4649,-0.3703,-0.2965,-0.24,-0.1961,-0.1671,-0.148,-0.1467,-0.1451,-0.1391,-0.1391,-0.1391,-0.1391,-0.1391,-0.1391,-0.1391,0.0,-0.2696,-0.2663,-0.2577,-0.2576,-0.264,-0.2738,-0.2708,-0.2793,-0.307,-0.3436,-0.3888,-0.4438,-0.4916,-0.5529,-0.6326,-0.5324,-0.5237,-0.6618,-0.6555,-0.6838,-0.7773,-0.8691,-0.9324,-0.9608,-0.9803,-0.9884,-0.9884,-0.9884,-0.9884,-0.9884,-0.9884,-0.9884,-0.9884,-0.9884,-0.9884,-0.9884,-0.9884,-0.9884,-0.9906,-0.9739,-0.9674,-0.962,-0.9176,-0.8949,-0.8857,-0.8522,-0.8414,0.0,0.0,-0.8361,-0.8404,-0.8339,-0.8274,-0.8224,-0.8263,-0.8452,-0.8551,-0.8231,0.0,0.0,-0.7816,-0.7782,-0.7872,-0.8239,-0.8203,-0.8133,-0.8326,-0.8365,-0.8406,-0.8588,-0.8612,-0.8612,-0.8612,-0.8612,-0.8612,-0.8612,-0.8612,-0.8612,-0.8612,-0.8612,-0.8164,-0.7095,-0.7151,-0.7458,-0.8045,-0.778,-0.7835,-0.8349,-0.8028,-0.7774,-0.7774,-0.7631,-0.7534,-0.7534,-0.7288,-0.6889,-0.6339,-0.6303,-0.5969,-0.5328,-0.4017,-0.2689,-0.1538,-0.153,-0.1519,-0.1504,-0.1487,-0.1468,-0.1446,-0.1393,-0.1391,-0.1391,-0.1391,-0.1391,-0.1391,0.0,0.0,-0.2696,-0.2696,-0.2645,-0.2603,-0.26,-0.2667,-0.2917,-0.35,-0.359,-0.3961,-0.4879,-0.4989,-0.5377,-0.6309,-0.5524,-0.5467,-0.6638,-0.6939,-0.7301,-0.7773,-0.8691,-0.9324,-0.9608,-0.9803,-0.9884,-0.9884,-0.9884,-0.9884,-0.9884,-0.9884,-0.9884,-0.9884,-0.9884,-0.9884,-0.9884,-0.9884,-0.9884,-0.9884,-0.9911,-0.9911,-0.9857,-0.9378,-0.9055,-0.8836,-0.836,0.0,0.0,0.0,-0.8003,-0.8149,-0.7892,-0.8003,0.0,-0.8431,-0.8667,0.0,0.0,0.0,-0.7995,-0.7992,-0.7974,-0.804,-0.8273,-0.8453,-0.8584,-0.86,-0.8604,-0.8604,-0.8612,-0.8612,-0.8612,-0.8612,-0.8612,-0.8612,-0.8612,-0.8612,-0.8612,-0.8612,-0.8612,-0.8568,0.0,-0.8528,-0.8597,-0.8763,-0.8948,-0.9122,-0.934,-0.947,-0.9521,-0.9521,-0.8775,-0.8382,-0.8382,-0.7587,-0.7188,-0.7188,-0.7182,-0.7132,-0.7077,-0.5223,-0.3328,-0.1617,-0.1539,-0.1542,-0.1613,-0.1505,-0.148,-0.1476,-0.1446,-0.1391,-0.1391,-0.1391,-0.1391,-0.1391,0.0,0.0,0.0,-0.2776,-0.2901,-0.2956,-0.2824,-0.2741,-0.2914,-0.3522,-0.4132,0.0,0.0,0.0,0.0,0.0,-0.5678,-0.5761,-0.707,-0.6677,-0.6949,-0.8215,-0.8267,-0.8698,-0.9572,-0.9658,-0.9771,-0.9884,-0.9884,-0.9884,-0.9884,-0.9884,-0.9884,-0.9884,-0.9884,-0.9884,-0.9884,-0.9884,-1.0013,-1.0143,-0.982,-0.9782,-0.983,-0.9389,-0.89,-0.8398,0.0,0.0,0.0,0.0,-0.8028,-0.8317,-0.8232,0.0,0.0,-0.9635,-0.9742,-0.9649,-0.9779,0.0,-0.9067,-0.8734,-0.8645,-0.8619,-0.8517,-0.8567,-0.8612,-0.8612,-0.8612,-0.8612,-0.8612,-0.8612,-0.8612,-0.8612,-0.8662,-0.8694,-0.8629,-0.8771,-0.8832,-0.8641,-0.8666,0.0,0.0,0.0,0.0,-0.8991,-0.9169,-0.9348,-0.9527,-0.9596,-0.9579,-0.9579,-0.9327,-0.9179,-0.9179,-0.8931,-0.8531,-0.7985,-0.7437,-0.6936,-0.6381,-0.5743,-0.4436,-0.2645,-0.2628,-0.222,-0.1619,-0.1598,-0.1529,-0.1508,-0.1477,-0.1466,-0.1463,-0.1397,-0.1391,-0.1391,0.0,0.0,0.0,0.0,0.0,0.0,0.0,0.0,0.0,0.0,0.0,0.0,0.0,0.0,0.0,0.0,0.0,-0.5921,-0.6847,-0.6645,-0.699,-0.8102,-0.7929,-0.823,-0.919,-0.9149,-0.9184,-0.938,-0.9502,-0.9583,-0.9663,-0.9663,-0.9663,-0.9669,-0.9755,-0.9798,-0.9798,-0.9798,-0.989,-1.0008,-0.9604,-0.9534,-0.962,-0.9233,-0.8727,0.0,0.0,0.0,0.0,-0.7715,-0.8172,0.0,0.0,0.0,-0.9748,-1.0086,-1.0414,-1.0635,-1.0659,-1.0567,-1.0447,-1.0076,-0.9719,-0.9434,-0.9266,-0.8911,-0.8592,-0.8526,-0.8514,-0.849,-0.8381,-0.8369,-0.839,-0.8502,-0.8617,-0.8714,-0.8666,-0.8857,-0.8913,-0.8686,-0.8755,-0.8779,0.0,0.0,0.0,-0.9084,-0.9306,-0.9482,-0.9616,-0.9579,-0.9579,-0.9579,-0.9579,-0.9579,-0.9579,-0.9579,-0.9327,-0.8829,-0.8283,-0.7481,-0.6426,-0.6426,-0.5477,-0.3775,-0.3775,-0.34,-0.2722,-0.2311,-0.2142,-0.2066,-0.165,-0.1497,-0.1493,-0.1463,-0.1451,-0.145,0.0,0.0,0.0,0.0,0.0,0.0,0.0,0.0,0.0,0.0,0.0,0.0,0.0,0.0,0.0,0.0,0.0,0.0,-0.6049,-0.6845,0.0,-0.7482,-0.7649,-0.798,-0.8506,-0.8306,-0.8311,-0.8549,-0.8809,-0.9025,-0.9206,-0.9206,-0.9206,-0.9217,-0.9453,-0.9592,-0.9576,-0.9592,-0.9592,-0.956,-0.9281,-0.9184,-0.9198,-0.9015,0.0,0.0,0.0,0.0,0.0,0.0,0.0,0.0,0.0,0.0,0.0,-0.9977,-1.0791,-1.174,-1.1061,-1.1429,-1.1999,-1.177,-1.1043,-1.0399,-1.0356,-0.9501,-0.8674,-0.844,-0.8395,-0.8329,0.0,0.0,-0.8114,-0.8332,-0.8498,-0.8649,-0.88,-0.8844,-0.8852,0.0,0.0,0.0,0.0,0.0,0.0,-0.9096,0.0,-0.9425,-0.9567,-0.9579,-0.9579,-0.9579,-0.9579,-0.9579,-0.9579,-0.9579,-0.9579,-0.9579,-0.9579,-0.8775,-0.7273,-0.7273,-0.6423,-0.4874,-0.4874,-0.4874,-0.4718,-0.3701,-0.3284,-0.318,-0.2019,-0.1576,-0.1572,-0.1539,-0.148,-0.1476,0.0,0.0,0.0,0.0,0.0,0.0,0.0,0.0,0.0,0.0,0.0,0.0,0.0,0.0,0.0,0.0,0.0,0.0,0.0,-0.6539,0.0,-0.7405,-0.6987,-0.7295,-0.8468,-0.8306,-0.8468,-0.9028,-0.9087,-0.9147,-0.9206,-0.9206,-0.9206,-0.9206,-0.927,-0.9206,-0.9095,-0.9227,-0.92,-0.9073,0.0,-0.918,-0.9502,0.0,0.0,0.0,0.0,0.0,0.0,0.0,0.0,0.0,0.0,-1.1546,-1.2126,0.0,0.0,-1.3013,-1.3067,-1.2912,-1.2637,-1.2234,-1.1872,-1.1488,-1.1101,-1.068,-1.0243,-0.9925,-0.9706,-0.9488,0.0,0.0,0.0,-0.8895,-0.8928,0.0,-0.8832,-0.9165,0.0,-0.906,0.0,-0.9169,-0.9039,-0.9141,0.0,0.0,-0.921,-0.9299,-0.9562,-0.9579,-0.9579,-0.9579,-0.9579,-0.9579,-0.9579,-0.9579,-0.9579,-0.9579,-0.9579,-0.9175,-0.8372,-0.8372,-0.7528,-0.5982,-0.5982,-0.5529,-0.4772,-0.4501,-0.4394,-0.4285,-0.3182,-0.2772,-0.2664,-0.1827,-0.148,-0.1476,0.0,0.0,0.0,0.0,0.0,0.0,0.0,0.0,0.0,0.0,0.0,0.0,0.0,0.0,0.0,0.0,0.0,0.0,0.0,-0.6651,-0.6754,-0.7383,-0.6827,-0.6943,-0.7876,-0.7782,-0.7906,-0.8274,0.0,0.0,-0.8404,-0.8404,-0.8377,-0.828,-0.8388,-0.8329,-0.8253,-0.835,0.0,0.0,0.0,0.0,0.0,0.0,0.0,0.0,0.0,0.0,0.0,0.0,0.0,-1.1251,-1.2156,-1.2782,-1.3222,-1.3634,0.0,-1.4083,-1.4097,-1.4018,-1.3851,-1.3591,-1.2991,-1.2329,-1.1813,-1.115,-1.0559,-1.0034,-0.9806,0.0,-0.9374,-0.9062,0.0,0.0,0.0,0.0,-0.8946,-0.9271,-0.9433,0.0,-0.9343,0.0,-0.9218,-0.9347,-0.9437,0.0,-0.9384,-0.9417,-0.9567,-0.9579,-0.9579,-0.9579,-0.9579,-0.9579,-0.9579,-0.9579,-0.9529,-0.943,-0.943,-0.913,-0.8627,-0.8627,-0.8081,-0.7086,0.0,-0.6783,-0.6179,-0.5679,-0.5479,-0.5372,-0.4325,-0.3912,-0.3849,-0.3163,-0.264,-0.2194,0.0,0.0,0.0,0.0,0.0,0.0,0.0,0.0,0.0,0.0,0.0,0.0,0.0,0.0,0.0,0.0,0.0,0.0,0.0,0.0,0.0,-0.7363,-0.6945,-0.6833,-0.7128,-0.7101,-0.7144,-0.7204,0.0,0.0,0.0,0.0,0.0,0.0,0.0,0.0,0.0,0.0,0.0,0.0,0.0,0.0,0.0,0.0,0.0,0.0,0.0,0.0,0.0,0.0,-1.1458,-1.2302,-1.2943,-1.3587,-1.405,-1.3759,-1.4292,-1.4902,-1.4622,-1.4824,-1.509,-1.5048,-1.4063,-1.3002,-1.2453,-1.1472,-1.0466,-0.9715,0.0,-0.9455,-0.9246,-0.8866,-0.8647,-0.8852,0.0,-0.8832,-0.9064,-0.9294,-0.9412,-0.9437,-0.9437,-0.9437,-0.9437,-0.9437,-0.9458,-0.9616,-0.9579,-0.9579,-0.9579,-0.9579,-0.9579,-0.9579,-0.9579,-0.9579,-0.9579,-0.9579,-0.948,-0.9236,-0.9236,-0.8981,-0.8432,-0.8432,-0.8283,-0.7988,-0.7988,-0.7988,-0.7939,-0.6989,-0.6637,-0.6484,-0.5277,-0.4874,-0.4964,-0.4528,-0.3917,-0.3281,0.0,0.0,0.0,0.0,0.0,0.0,0.0,0.0,0.0,0.0,-0.611,-0.5976,0.0,0.0,0.0,0.0,0.0,0.0,0.0,0.0,0.0,-0.7312,-0.6912,-0.6913,-0.7347,-0.7187,0.0,0.0,0.0,0.0,0.0,0.0,0.0,0.0,0.0,0.0,0.0,0.0,0.0,0.0,0.0,0.0,0.0,0.0,0.0,0.0,0.0,0.0,0.0,0.0,-1.2658,-1.3309,-1.3697,-1.426,-1.4798,-1.4996,-1.5175,-1.5316,-1.5242,-1.5173,-1.5041,-1.4824,-1.4296,-1.3689,-1.3154,-1.246,0.0,0.0,-1.0861,-1.0617,-1.0367,-0.9542,-0.9021,-0.9399,-0.886,-0.8548,-0.9031,-0.9294,-0.9461,0.0,0.0,0.0,0.0,0.0,0.0,0.0,-0.9579,-0.9579,-0.9579,-0.9579,-0.9579,-0.9579,-0.9579,-0.9579,-0.9579,-0.9579,-0.9579,-0.9529,-0.9529,-0.9229,-0.8726,-0.8726,-0.8482,-0.7988,-0.7988,0.0,-0.7988,-0.7789,-0.7736,-0.7537,-0.5577,-0.5327,-0.5819,-0.3157,-0.3176,-0.4257,0.0,0.0,0.0,0.0,0.0,0.0,0.0,-0.648,-0.6763,-0.6635,-0.6739,-0.6742,-0.6544,-0.6816,-0.7016,0.0,0.0,0.0,0.0,0.0,0.0,0.0,0.0,-0.7212,0.0,0.0,0.0,0.0,0.0,0.0,0.0,0.0,0.0,0.0,0.0,0.0,0.0,0.0,0.0,0.0,0.0,0.0,0.0,0.0,0.0,0.0,0.0,0.0,0.0,0.0,-1.2562,-1.336,-1.4026,-1.4677,-1.5185,-1.5345,-1.5389,-1.5389,-1.5389,-1.5257,-1.5048,-1.4783,-1.4345,-1.3755,-1.2761,0.0,0.0,0.0,-1.0755,-1.076,-1.062,-1.0053,0.0,-1.0025,-0.9238,-0.8775,-0.9451,-0.9301,0.0,0.0,0.0,0.0,0.0,-0.9579,-0.9579,-0.9579,-0.9579,-0.9579,-0.9579,-0.9579,-0.9579,-0.9579,-0.9579,-0.9579,-0.9579,-0.9579,-0.9529,-0.9381,-0.9229,-0.8977,-0.8577,-0.8432,-0.8237,-0.7988,-0.7988,-0.7988,-0.7988,-0.7988,-0.7988,-0.7889,-0.6883,-0.6781,-0.7027,-0.5475,-0.4852,-0.461,0.0,0.0,0.0,0.0,0.0,0.0,0.0,-0.6823,-0.6914,-0.6969,-0.7412,-0.7641,-0.7311,-0.7328,-0.7341,0.0,0.0,0.0,0.0,0.0,0.0,0.0,0.0,0.0,0.0,0.0,0.0,0.0,0.0,0.0,0.0,0.0,0.0,0.0,0.0,0.0,0.0,0.0,0.0,0.0,0.0,0.0,0.0,0.0,0.0,0.0,0.0,0.0,0.0,0.0,-1.2142,-1.2936,-1.3704,-1.4582,-1.5279,-1.5279,-1.533,-1.5389,-1.5389,-1.5257,-1.5082,-1.4866,-1.4371,-1.3636,-1.227,-1.1895,0.0,0.0,-1.0385,-1.0573,-1.0506,-1.0177,-0.9987,0.0,-0.949,-0.9075,-0.9735,-0.9396,-0.9192,0.0,0.0,0.0,-0.9579,-0.9579,0.0,-0.9579,-0.9579,-0.9579,-0.9579,-0.9579,-0.9579,-0.9579,-0.9579,-0.9579,-0.9579,-0.9579,-0.948,-0.9286,-0.9027,-0.873,-0.8482,-0.8187,-0.8038,-0.7988,-0.7988,-0.7988,-0.7988,-0.7988,-0.7988,-0.7988,-0.7739,-0.7789,-0.7939,-0.7484,-0.651,-0.5284,0.0,0.0,0.0,0.0,0.0,0.0,0.0,-0.686,-0.7249,-0.7492,-0.7937,-0.8235,-0.8183,-0.7964,-0.7763,0.0,0.0,0.0,0.0,0.0,0.0,0.0,0.0,0.0,0.0,0.0,0.0,0.0,0.0,0.0,0.0,0.0,0.0,0.0,0.0,0.0,0.0,0.0,0.0,0.0,0.0,0.0,0.0,0.0,0.0,0.0,0.0,0.0,0.0,0.0,0.0,-1.2105,-1.2193,-1.3477,-1.4944,-1.4944,0.0,0.0,-1.5389,-1.5389,-1.5305,-1.5131,-1.4469,-1.3582,-1.2446,0.0,0.0,-1.0301,-1.0385,-1.0512,-1.0207,-0.9611,-0.9303,-0.9638,0.0,-0.9067,-0.9331,-0.9666,-0.9779,-0.9479,0.0,0.0,-0.9579,-0.9579,-0.9579,-0.9579,-0.9579,-0.9579,-0.9579,-0.9579,-0.9579,-0.9579,-0.9579,-0.9579,-0.9579,-0.9579,-0.9579,-0.9579,-0.9282,-0.9031,-0.8775,-0.8482,-0.8233,-0.7988,-0.7988,-0.7988,0.0,-0.7988,-0.7988,-0.7889,-0.6936,-0.7138,-0.7786,-0.5827,-0.6216,-0.726,0.0,0.0,0.0,0.0,0.0,0.0,-0.6823,-0.6933,-0.7152,-0.7713,-0.809,-0.8291,-0.8291,-0.8339,-0.8223,-0.7802,0.0,0.0,0.0,0.0,0.0,0.0,0.0,0.0,0.0,0.0,0.0,0.0,0.0,0.0,0.0,0.0,0.0,0.0,0.0,0.0,0.0,0.0,0.0,0.0,0.0,0.0,0.0,0.0,0.0,0.0,0.0,0.0,0.0,0.0,0.0,0.0,-1.1945,-1.2799,0.0,0.0,-1.4596,-1.494,-1.5287,-1.5389,-1.5347,-1.5131,-1.4577,-1.3729,-1.2382,0.0,-1.1296,-1.0187,-1.0319,-1.0499,-1.0174,-0.9871,-0.9816,-1.0142,-0.9568,-0.9173,-0.95,-0.9399,-0.9201,-0.9054,-0.9287,0.0,0.0,0.0,-0.9579,-0.9579,-0.9579,-0.9579,-0.9579,-0.9579,-0.9579,-0.9579,-0.9579,-0.9579,-0.9579,-0.9579,-0.9579,-0.9579,-0.9179,-0.8928,-0.8775,-0.8333,-0.8088,-0.7988,-0.7988,-0.7988,0.0,-0.7988,-0.7988,-0.7942,-0.7537,-0.764,-0.7889,-0.7033,-0.6834,-0.6841,0.0,0.0,0.0,0.0,0.0,-0.638,-0.6993,-0.6993,-0.7164,-0.7811,-0.8129,-0.8321,-0.8399,-0.853,-0.8445,-0.8045,-0.7949,0.0,0.0,0.0,0.0,0.0,0.0,0.0,0.0,0.0,0.0,0.0,0.0,0.0,0.0,0.0,0.0,0.0,0.0,0.0,0.0,0.0,0.0,0.0,0.0,0.0,0.0,0.0,0.0,0.0,0.0,0.0,0.0,0.0,0.0,0.0,0.0,0.0,0.0,0.0,-1.4174,-1.4629,-1.5138,-1.5316,-1.5389,-1.5215,-1.4626,-1.3701,0.0,-1.1872,-1.1317,-1.0137,-1.0299,-1.0535,-1.006,-1.006,-1.016,-1.0311,-0.9891,-0.9648,-1.0003,-0.9821,-0.9507,0.0,0.0,-0.9679,0.0,-0.9596,-0.9579,-0.9579,-0.9579,-0.9579,-0.9579,-0.9579,-0.9579,-0.9579,-0.9579,-0.9579,-0.9579,-0.9579,-0.9579,-0.9579,-0.913,-0.8874,-0.8775,-0.8333,-0.8088,-0.7988,-0.7988,-0.7988,0.0,-0.7988,-0.7988,-0.7988,-0.7988,-0.7988,-0.7988,-0.7988,-0.7497,-0.677,0.0,0.0,0.0,0.0,0.0,0.0,-0.669,-0.703,-0.737,-0.7829,-0.8129,-0.8415,-0.8674,-0.8475,-0.8291,-0.8285,-0.8051,0.0,0.0,0.0,0.0,0.0,0.0,0.0,0.0,0.0,0.0,0.0,0.0,0.0,0.0,0.0,0.0,0.0,0.0,0.0,0.0,0.0,0.0,0.0,0.0,0.0,0.0,0.0,0.0,0.0,0.0,0.0,0.0,0.0,0.0,0.0,0.0,0.0,0.0,0.0,-1.396,-1.4577,-1.482,-1.5141,-1.5389,-1.5389,-1.454,-1.3466,-1.2504,-1.1878,-1.1191,-1.0125,-1.0383,-1.056,-0.9829,-0.992,-1.002,-0.974,-1.0211,-1.0659,-1.0869,-1.128,-1.1235,0.0,0.0,-1.0188,-0.9484,-0.9518,-0.9579,-0.9579,-0.9579,0.0,-0.9579,-0.9579,-0.9579,-0.9579,-0.9579,-0.9579,-0.9579,-0.9579,-0.9579,-0.9579,-0.9335,-0.908,-0.8775,-0.8531,-0.8237,-0.7988,-0.7988,-0.7988,0.0,-0.7988,-0.7988,-0.7988,-0.7988,-0.7988,-0.7988,-0.7988,-0.7894,-0.7646,0.0,0.0,0.0,0.0,0.0,0.0,0.0,-0.6726,-0.6897,-0.7606,-0.7612,-0.7701,-0.8099,-0.7961,-0.8055,-0.8584,-0.8185,0.0,0.0,0.0,0.0,0.0,0.0,0.0,0.0,0.0,0.0,0.0,0.0,0.0,0.0,0.0,0.0,0.0,0.0,0.0,0.0,0.0,0.0,0.0,0.0,0.0,0.0,0.0,0.0,0.0,0.0,0.0,0.0,0.0,0.0,0.0,0.0,0.0,0.0,0.0,0.0,0.0,-1.3919,-1.4124,-1.4294,-1.3601,-1.3135,-1.2628,-1.1694,-1.1603,-1.1383,-1.0265,-1.0444,-1.056,-0.9852,-0.976,-0.992,-1.0265,-1.0472,-1.0732,-1.1138,0.0,0.0,-1.0067,-0.991,-0.9769,0.0,0.0,-0.9579,-0.9579,-0.9579,-0.9579,-0.9579,-0.9579,-0.9579,-0.9579,-0.9579,-0.9579,-0.9579,-0.9579,-0.9579,-0.9579,-0.9335,-0.9133,-0.908,-0.8581,-0.8333,-0.8283,-0.8088,-0.7988,-0.7988,-0.7988,-0.7988,-0.7988,-0.7988,-0.7988,-0.7978,-0.7874,-0.7851,-0.7725,0.0,0.0,0.0,0.0,0.0,0.0,0.0,-0.6583,-0.6738,-0.7236,-0.7243,-0.734,-0.775,-0.7728,-0.7986,-0.8738,-0.8495,0.0,0.0,0.0,0.0,0.0,0.0,0.0,0.0,0.0,0.0,0.0,0.0,0.0,0.0,0.0,0.0,0.0,0.0,0.0,0.0,0.0,0.0,0.0,0.0,0.0,0.0,0.0,0.0,0.0,0.0,0.0,0.0,0.0,0.0,0.0,0.0,0.0,0.0,0.0,-1.4309,-1.447,0.0,-1.3862,-1.3839,-1.3002,-1.2627,-1.225,-1.1453,-1.1418,-1.1291,-1.0452,-1.0611,-1.0653,-0.9852,-0.9773,-0.9933,-1.0218,-1.0445,-1.0837,0.0,0.0,0.0,-1.0076,0.0,0.0,0.0,-0.9587,-0.9579,-0.9579,-0.9579,-0.9579,-0.9579,-0.9579,-0.9579,-0.9579,-0.9579,-0.9579,-0.9579,-0.9579,-0.9579,-0.9579,-0.943,-0.9286,-0.9187,-0.873,-0.8482,-0.8382,-0.8137,-0.7988,0.0,-0.7988,-0.7988,-0.7988,-0.7988,-0.7988,-0.7971,-0.7868,-0.7777,-0.7695,0.0,0.0,0.0,0.0,0.0,0.0,0.0,-0.6605,-0.6756,-0.6781,-0.6993,-0.7236,-0.7486,-0.766,-0.8014,-0.8735,0.0,0.0,0.0,0.0,0.0,0.0,0.0,0.0,0.0,0.0,0.0,-1.2312,-1.2363,-1.2552,-1.288,0.0,0.0,0.0,0.0,0.0,0.0,0.0,0.0,0.0,0.0,0.0,0.0,0.0,0.0,0.0,0.0,0.0,0.0,0.0,0.0,0.0,0.0,0.0,0.0,0.0,0.0,0.0,0.0,-1.4161,-1.3934,-1.3327,-1.2766,-1.2212,-1.1649,-1.132,0.0,-1.0657,-1.0873,-1.0822,-0.9935,-0.9947,-1.0047,-0.984,-1.0311,-1.1089,0.0,-1.1821,0.0,0.0,-0.9758,0.0,-0.942,-0.9527,-0.9579,-0.9579,-0.9579,-0.9579,-0.9579,-0.9579,-0.9579,-0.9579,-0.9579,-0.9579,-0.9579,-0.9579,-0.9579,-0.9579,-0.9579,-0.943,-0.9187,-0.8928,-0.8627,0.0,-0.8137,-0.7988,-0.7988,-0.7988,-0.7988,-0.7988,-0.7988,-0.7988,-0.7971,-0.7858,-0.7712,-0.7577,0.0,0.0,0.0,0.0,0.0,0.0,0.0,0.0,0.0,0.0,-0.654,-0.6601,-0.6661,-0.699,-0.7611,0.0,0.0,0.0,0.0,0.0,0.0,0.0,0.0,0.0,0.0,0.0,0.0,-1.1559,-1.2107,-1.2168,-1.1705,-1.1875,0.0,0.0,0.0,0.0,0.0,0.0,0.0,0.0,0.0,0.0,0.0,0.0,0.0,0.0,0.0,-1.2513,0.0,0.0,0.0,0.0,0.0,0.0,0.0,0.0,-1.3237,-1.2938,-1.3533,0.0,-1.3706,-1.2346,-1.2037,-1.186,0.0,-1.1173,-1.1316,-1.0737,0.0,0.0,-1.0474,-1.0227,-1.0314,-1.0883,-1.1323,-1.1933,-1.2859,0.0,0.0,-1.0557,-0.9914,-0.9563,-0.9563,-0.9604,-0.9579,-0.9579,-0.9579,-0.9579,-0.9579,-0.9579,-0.9579,-0.9579,-0.9579,-0.9579,-0.9579,-0.9579,-0.9579,-0.9579,-0.9381,-0.9282,-0.9187,-0.873,-0.8482,-0.8382,-0.8137,-0.7988,-0.7988,-0.7988,-0.7988,-0.7988,-0.7988,-0.7988,-0.7958,-0.7746,-0.7628,-0.756,0.0,0.0,0.0,0.0,0.0,0.0,0.0,0.0,0.0,0.0,0.0,-0.6474,-0.6653,-0.7063,0.0,0.0,0.0,0.0,0.0,0.0,0.0,0.0,0.0,0.0,0.0,0.0,0.0,0.0,0.0,-1.2197,0.0,0.0,0.0,0.0,0.0,0.0,0.0,0.0,0.0,0.0,0.0,0.0,0.0,0.0,0.0,0.0,-1.1814,-1.2157,0.0,-1.3045,-1.3936,-1.4679,0.0,0.0,0.0,0.0,-1.2574,-1.2389,-1.3246,-1.3494,-1.3372,-1.2813,-1.2436,-1.2073,-1.1647,0.0,0.0,0.0,0.0,0.0,0.0,0.0,0.0,0.0,-1.159,0.0,0.0,0.0,-1.225,-1.1293,-1.1068,-1.0841,0.0,-1.035,-1.0109,-0.9628,-0.9579,-0.9579,-0.9579,-0.9579,-0.9579,-0.9579,-0.9579,-0.9579,-0.9579,-0.9579,-0.9529,-0.943,-0.9282,-0.9133,-0.8981,-0.8581,-0.8382,-0.8382,-0.8137,-0.7988,-0.7988,-0.7988,-0.7988,-0.7982,-0.7914,-0.7884,-0.7899,-0.7604,-0.7495,-0.7461,0.0,0.0,0.0,0.0,0.0,0.0,0.0,0.0,0.0,0.0,0.0,0.0,0.0,0.0,0.0,0.0,0.0,0.0,0.0,0.0,0.0,0.0,0.0,0.0,0.0,0.0,0.0,0.0,0.0,0.0,0.0,0.0,-1.2614,0.0,0.0,0.0,0.0,0.0,0.0,0.0,0.0,0.0,0.0,0.0,0.0,0.0,0.0,0.0,0.0,-1.2578,-1.333,-1.3997,-1.3408,0.0,0.0,0.0,0.0,0.0,-1.3223,-1.3242,-1.3136,-1.3691,-1.3159,-1.2487,-1.2408,0.0,0.0,0.0,0.0,0.0,0.0,-1.0254,0.0,0.0,0.0,0.0,-1.2577,-1.308,-1.3126,-1.234,-1.2505,0.0,-1.1512,-1.1414,-1.1028,-1.0162,-0.9916,-0.9817,-0.9817,-0.9673,-0.9579,-0.9579,-0.9579,-0.9579,-0.9579,-0.9579,-0.943,-0.9187,-0.9133,-0.8981,-0.8726,-0.8482,-0.8333,-0.8333,0.0,0.0,-0.7955,-0.7955,-0.7941,-0.7911,-0.7831,-0.778,-0.7746,-0.7472,-0.7415,-0.735,0.0,0.0,0.0,0.0,0.0,0.0,0.0,0.0,0.0,0.0,0.0,0.0,0.0,0.0,0.0,0.0,0.0,0.0,0.0,0.0,0.0,0.0,0.0,0.0,-1.1207,0.0,0.0,0.0,0.0,0.0,-1.2999,-1.2626,-1.2516,-1.2609,0.0,0.0,0.0,0.0,0.0,0.0,0.0,0.0,0.0,0.0,0.0,0.0,0.0,0.0,0.0,-1.1888,-1.2822,-1.3841,-1.2367,0.0,0.0,0.0,0.0,0.0,-1.2978,-1.3457,-1.3365,-1.3194,-1.3038,-1.2571,-1.1233,0.0,0.0,0.0,0.0,0.0,0.0,-1.0855,-1.1129,0.0,0.0,-1.3287,0.0,0.0,-1.3419,-1.3501,0.0,-1.2635,-1.2484,-1.2484,-1.2387,-1.2242,-1.1419,-1.093,-1.093,-1.0113,-0.9579,-0.9579,-0.9579,-0.9579,-0.9579,-0.9385,-0.9236,-0.9187,-0.8733,-0.8482,-0.8432,-0.8187,-0.8038,-0.8038,0.0,-0.7917,-0.7845,-0.7845,-0.7777,-0.7665,-0.7641,-0.7631,-0.7611,-0.7438,-0.7415,-0.735,0.0,0.0,0.0,0.0,0.0,0.0,0.0,0.0,0.0,0.0,0.0,0.0,0.0,0.0,0.0,0.0,0.0,0.0,0.0,0.0,0.0,0.0,-1.131,-1.131,-1.1301,0.0,0.0,0.0,0.0,-1.3459,-1.3426,-1.3714,-1.3586,-1.3099,0.0,0.0,0.0,0.0,0.0,0.0,0.0,0.0,0.0,0.0,0.0,0.0,0.0,0.0,0.0,0.0,-1.2803,-1.3281,-1.2246,0.0,0.0,0.0,0.0,0.0,-1.2083,-1.2627,-1.2719,-1.2481,-1.3067,-1.3422,-1.2344,0.0,0.0,0.0,0.0,0.0,0.0,0.0,-1.181,-1.2859,0.0,-1.3881,-1.4442,-1.4364,-1.4365,0.0,0.0,-1.4184,-1.3613,-1.3559,-1.3318,-1.2732,-1.229,-1.1999,-1.1999,-1.1517,-1.1033,-1.0498,-1.0352,-1.0056,-0.9482,-0.9095,-0.8945,-0.8981,-0.8581,-0.8333,-0.8184,-0.8002,-0.7916,-0.7913,0.0,-0.776,-0.7695,-0.7695,-0.7658,-0.759,-0.7509,-0.7478,-0.7458,-0.7302,-0.7248,-0.7238,0.0,0.0,0.0,0.0,0.0,0.0,0.0,0.0,0.0,0.0,0.0,0.0,0.0,0.0,0.0,0.0,0.0,0.0,0.0,0.0,-1.1207,-1.1293,-1.1636,-1.174,-1.1583,0.0,-1.3095,-1.3097,-1.3965,-1.4202,-1.3857,-1.4425,-1.4293,0.0,0.0,0.0,0.0,0.0,0.0,0.0,0.0,0.0,0.0,0.0,0.0,0.0,0.0,0.0,0.0,0.0,0.0,0.0,0.0,0.0,0.0,-1.0929,-1.0528,-1.0655,-1.1633,-1.2187,-1.2487,-1.2353,0.0,-1.3684,-1.308,0.0,0.0,0.0,0.0,0.0,0.0,-1.1991,0.0,-1.3547,-1.3941,-1.4215,-1.4576,-1.4763,-1.4997,-1.5351,-1.5531,-1.5323,-1.463,-1.4541,-1.4195,-1.3366,-1.3078,-1.2907,-1.2852,-1.2661,-1.2182,-1.1414,-1.1025,-1.0423,-0.9672,-0.9012,-0.8697,-0.866,-0.842,-0.8129,-0.7884,-0.7814,-0.7763,-0.7753,-0.7648,-0.758,-0.7546,-0.7546,-0.7526,-0.7478,-0.7363,-0.7319,-0.7302,-0.7139,-0.7095,-0.7095,0.0,0.0,0.0,0.0,0.0,0.0,0.0,0.0,0.0,0.0,0.0,0.0,0.0,0.0,0.0,0.0,0.0,0.0,0.0,0.0,-1.0916,-1.1284,-1.1679,-1.205,-1.2409,-1.2869,-1.3699,-1.4899,-1.4579,-1.4355,-1.4243,-1.3876,-1.3659,-1.3597,0.0,0.0,0.0,0.0,0.0,0.0,0.0,0.0,0.0,0.0,0.0,0.0,0.0,0.0,0.0,0.0,0.0,0.0,0.0,0.0,-1.2106,-1.1643,-1.1203,-1.1143,-1.2455,-1.3096,-1.3442,-1.3607,-1.3092,0.0,-1.1714,-1.1389,0.0,-1.158,0.0,0.0,0.0,-1.29,-1.3593,-1.3995,-1.4075,-1.4282,-1.4901,0.0,-1.4763,-1.5331,-1.5223,-1.513,-1.5305,-1.5332,-1.5286,-1.5193,-1.4279,-1.3606,-1.3362,-1.2442,-1.1897,-1.1851,-1.101,-1.0496,-1.0403,-0.927,-0.8578,-0.8327,-0.8048,-0.7816,-0.7631,-0.7617,-0.7614,-0.7614,-0.7604,-0.7519,-0.7433,-0.7433,-0.7302,-0.7129,-0.7115,-0.7112,-0.7112,-0.7098,-0.7095,-0.7095,0.0,0.0,0.0,0.0,0.0,0.0,0.0,0.0,0.0,0.0,0.0,0.0,0.0,0.0,0.0,0.0,0.0,0.0,0.0,0.0,-1.0764,-1.0925,-1.2032,-1.2593,-1.2516,-1.3147,-1.3711,-1.4228,-1.4301,-1.4317,-1.4304,-1.4417,0.0,0.0,0.0,0.0,0.0,0.0,0.0,0.0,0.0,0.0,0.0,0.0,0.0,0.0,0.0,0.0,0.0,0.0,-1.2428,-1.2174,-1.2031,-1.1904,-1.18,-1.1633,-1.1271,-1.1016,-1.1523,-1.2016,-1.2355,-1.217,-1.2307,0.0,0.0,-1.2316,-1.2157,-1.2516,-1.2607,0.0,0.0,0.0,-1.37,-1.4041,-1.4088,-1.4229,-1.4629,-1.4589,-1.4669,-1.5077,-1.5075,-1.5055,-1.5162,-1.5169,-1.5169,-1.5169,-1.4799,-1.4514,-1.4411,-1.4044,-1.3541,-1.2842,-1.2378,-1.1806,-1.1176,-1.0592,-0.9901,-0.9101,-0.8467,-0.8013,-0.7778,-0.7681,-0.7593,-0.7451,-0.7356,-0.7282,-0.7227,-0.7227,-0.7149,-0.7095,-0.7095,-0.7095,-0.7095,-0.7095,-0.7095,-0.7095,0.0,0.0,0.0,0.0,0.0,0.0,0.0,0.0,0.0,0.0,0.0,0.0,0.0,0.0,0.0,0.0,0.0,0.0,0.0,0.0,-1.0443,-1.0672,-1.1825,-1.2497,-1.2474,-1.3263,-1.3741,-1.3892,-1.4179,-1.4386,-1.4521,0.0,0.0,0.0,0.0,0.0,0.0,0.0,0.0,0.0,0.0,0.0,0.0,0.0,0.0,0.0,0.0,0.0,0.0,0.0,-1.248,-1.2203,-1.2203,-1.1924,-1.1606,-1.1606,-1.1369,-1.1113,-1.1113,-1.1662,-1.2181,-1.2017,0.0,0.0,-1.3723,-1.328,-1.2872,-1.3387,-1.3487,0.0,0.0,0.0,0.0,0.0,-1.4088,-1.4188,-1.4482,-1.4442,-1.4496,-1.479,-1.4787,-1.4767,-1.4816,-1.4823,-1.4823,-1.4823,-1.4823,-1.4827,-1.474,-1.4733,-1.4368,-1.3635,-1.3192,-1.2659,-1.1954,-1.1532,-1.0933,-1.0149,-0.9238,-0.8501,-0.7908,-0.7706,-0.7569,-0.7431,-0.7187,-0.7095,-0.7095,-0.7095,-0.7095,-0.7095,-0.7095,-0.7095,-0.7095,-0.7095,-0.7095,-0.7095,0.0,0.0,0.0,0.0,0.0,0.0,0.0,0.0,0.0,0.0,0.0,0.0,0.0,0.0,0.0,0.0,0.0,0.0,0.0,-0.9606,-0.9904,-1.0566,-1.1003,-1.158,-1.2384,-1.3185,-1.3814,-1.4314,-1.4304,-1.4542,-1.4976,-1.4045,0.0,0.0,0.0,0.0,0.0,0.0,0.0,0.0,0.0,0.0,0.0,0.0,0.0,0.0,0.0,0.0,0.0,0.0,-1.2203,-1.2203,-1.2203,0.0,0.0,-1.1606,-1.1606,-1.1606,-1.1606,-1.2439,-1.3381,0.0,0.0,0.0,-1.4852,-1.399,-1.3214,-1.395,0.0,-1.4088,-1.4088,-1.4088,0.0,-1.4088,-1.4088,-1.4188,-1.4476,-1.4269,-1.4195,-1.4482,-1.4262,-1.4202,-1.4489,-1.4516,-1.4516,-1.4516,-1.4516,-1.4389,-1.4102,-1.4088,-1.4088,-1.4088,-1.3179,-1.2705,-1.2705,-1.18,-1.1322,-1.1284,-1.0376,-0.9205,-0.79,-0.7639,-0.7507,-0.7462,-0.7231,-0.7095,-0.7095,-0.7095,-0.7095,-0.7095,-0.7095,-0.7095,-0.7095,-0.7095,-0.7095,-0.7095,0.0,0.0,0.0,0.0,0.0,0.0,0.0,0.0,0.0,0.0,0.0,0.0,0.0,0.0,0.0,0.0,0.0,0.0,0.0,-0.9792,-1.0125,-1.0514,-1.1772,-1.2296,-1.1933,0.0,-1.3659,-1.479,-1.4138,-1.4055,0.0,0.0,0.0,-1.3828,0.0,0.0,0.0,0.0,0.0,0.0,0.0,0.0,0.0,0.0,0.0,0.0,0.0,0.0,0.0,0.0,0.0,0.0,-1.2106,0.0,-1.1606,-1.1606,-1.1809,-1.1963,-1.1685,-1.2265,0.0,-1.2512,0.0,0.0,0.0,-1.3293,0.0,0.0,-1.4088,-1.4088,-1.4088,-1.4088,0.0,-1.4088,-1.4088,-1.4115,-1.4202,-1.4142,-1.4122,-1.4208,-1.4142,-1.4122,-1.4208,-1.4215,-1.4215,-1.4215,-1.4215,-1.4175,-1.4088,-1.4088,-1.4088,-1.4088,-1.3828,-1.3695,-1.3695,-1.3398,-1.2918,-1.2272,-1.2015,-1.0799,-0.8803,-0.8113,-0.7591,-0.7231,-0.7143,-0.7095,-0.7095,-0.7095,-0.7095,-0.7095,-0.7095,-0.7095,-0.7095,-0.7095,-0.7095,-0.7095,0.0,0.0,0.0,0.0,0.0,0.0,0.0,0.0,0.0,0.0,0.0,0.0,0.0,0.0,0.0,0.0,0.0,0.0,0.0,0.0,-1.0419,-1.0722,-1.1883,-1.25,-1.2453,-1.3109,-1.3865,0.0,0.0,0.0,0.0,0.0,0.0,-1.4169,0.0,-1.4045,0.0,0.0,0.0,0.0,0.0,-1.1723,-1.1581,0.0,0.0,0.0,0.0,0.0,0.0,0.0,0.0,0.0,-1.1706,0.0,-1.132,-1.132,-1.1633,-1.2021,-1.2289,-1.2644,0.0,-1.2847,-1.3165,-1.3446,-1.3265,0.0,0.0,0.0,0.0,-1.4088,-1.4088,-1.4088,0.0,-1.4088,-1.4088,-1.4088,-1.4088,-1.4088,-1.4088,-1.4088,-1.4088,-1.4088,-1.4088,-1.4088,-1.4088,-1.4088,-1.4088,-1.4088,-1.4088,-1.4088,-1.4088,-1.4088,-1.4088,-1.4088,-1.4088,-1.4088,-1.3828,-1.3264,-1.2875,-1.1918,-1.0394,-0.9021,-0.8237,-0.7881,-0.7356,-0.7095,-0.7095,-0.7095,-0.7095,-0.7095,-0.7095,-0.7095,-0.7095,-0.7095,-0.7095,-0.7095,0.0,0.0,0.0,0.0,0.0,0.0,0.0,0.0,0.0,0.0,0.0,0.0,0.0,0.0,0.0,0.0,0.0,0.0,0.0,0.0,-1.0794,-1.1124,-1.1664,-1.2521,-1.37,0.0,0.0,0.0,0.0,0.0,0.0,0.0,-1.3597,-1.4852,0.0,-1.3931,0.0,0.0,0.0,0.0,-1.1337,-1.1054,-1.0958,-1.1748,0.0,0.0,0.0,0.0,0.0,0.0,0.0,0.0,-1.1258,-1.0946,-1.0908,-1.0908,-1.1271,-1.1897,-1.3042,-1.3321,0.0,-1.4104,-1.3784,0.0,-1.3568,-1.3874,-1.4088,-1.4088,0.0,-1.4088,-1.4088,-1.4088,-1.4088,-1.4088,-1.4088,-1.4088,-1.4088,-1.4088,-1.4088,-1.4088,-1.4088,-1.4088,-1.4088,-1.4088,-1.4088,-1.4088,-1.4088,-1.4088,-1.4088,-1.4088,-1.4088,-1.4088,-1.4088,-1.4088,-1.4088,-1.4088,-1.4088,-1.4088,-1.3222,-1.2693,-1.237,-1.0269,-0.9279,-0.9061,-0.7709,-0.7095,-0.7095,-0.7095,-0.7095,-0.7095,-0.7095,-0.7095,-0.7095,-0.7095,-0.7095,-0.7095,0.0,0.0,0.0,0.0,0.0,0.0,0.0,0.0,0.0,0.0,0.0,0.0,0.0,0.0,0.0,0.0,0.0,0.0,0.0,0.0,-1.1144,-1.149,-1.2611,-1.3683,-1.4687,-1.4086,-1.3566,0.0,0.0,0.0,0.0,0.0,0.0,-1.3865,0.0,-1.2969,0.0,0.0,0.0,-1.1101,-1.0998,-1.0831,-1.0685,-1.0865,-1.0795,0.0,0.0,0.0,0.0,0.0,0.0,0.0,-1.1979,-1.1443,-1.0908,-1.0908,-1.1465,-1.2102,-1.2281,-1.3383,0.0,0.0,-1.3275,-1.3284,-1.3547,-1.3874,-1.4088,-1.4088,-1.4088,-1.4088,-1.4088,-1.4088,-1.4088,-1.4088,-1.4088,-1.4088,-1.4088,-1.4088,-1.4088,-1.4088,-1.4088,-1.4088,-1.4088,-1.4088,-1.4088,-1.4088,-1.4088,-1.4088,-1.4088,-1.4088,-1.4088,-1.4088,-1.4088,-1.4088,-1.4088,-1.4088,-1.4088,-1.4088,-1.3913,-1.3652,-1.3336,-1.123,-0.9676,-0.8584,-0.7533,-0.7095,-0.7095,-0.7095,-0.7095,-0.7095,-0.7095,-0.7095,-0.7095,-0.7095,-0.7095,-0.7095,0.0,0.0,0.0,0.0,0.0,0.0,0.0,0.0,0.0,0.0,0.0,0.0,0.0,0.0,0.0,0.0,0.0,0.0,0.0,0.0,-1.1951,-1.2534,-1.3445,-1.3938,-1.3979,-1.3745,-1.3176,0.0,0.0,0.0,0.0,0.0,0.0,-1.3896,0.0,-1.2977,0.0,0.0,0.0,-1.1132,-1.1132,-1.0921,-1.0623,-1.0784,-1.0527,-1.0134,-1.0753,0.0,0.0,0.0,0.0,0.0,0.0,0.0,-1.0684,-1.1103,-1.1406,-1.1781,-1.2657,0.0,0.0,-1.3572,0.0,-1.3696,-1.3615,-1.3874,-1.4088,-1.4088,-1.4088,-1.4088,-1.4088,-1.4088,-1.4088,-1.4088,-1.4088,-1.4088,-1.4088,-1.4088,-1.4088,-1.4088,-1.4088,-1.4088,-1.4088,-1.4088,-1.4088,-1.4088,-1.4088,-1.4088,-1.4088,-1.4088,-1.4088,-1.4088,-1.4088,-1.4088,-1.4088,-1.4088,-1.4088,-1.4088,-1.4088,-1.3913,-1.3519,-1.1886,-1.0154,-0.8456,-0.7973,-0.7533,-0.7095,-0.7095,-0.7095,-0.7095,-0.7095,-0.7095,-0.7095,-0.7095,-0.7095,-0.7095,0.0,0.0,0.0,0.0,0.0,0.0,0.0,0.0,0.0,0.0,0.0,0.0,0.0,0.0,0.0,0.0,0.0,0.0,0.0,-1.1583,-1.2649,-1.3431,-1.3917,-1.3828,-1.3039,-1.3245,-1.2824,0.0,0.0,0.0,0.0,0.0,0.0,-1.4169,0.0,0.0,0.0,0.0,-1.1644,-1.1185,-1.1104,-1.0791,-1.0403,-1.0586,-1.0209,-0.9598,-0.995,-1.0078,-1.0224,-1.1154,0.0,0.0,0.0,0.0,-1.0361,-1.1222,-1.1164,-1.1178,-1.2965,0.0,-1.3709,-1.3894,-1.4086,0.0,-1.3655,-1.3801,-1.4021,-1.4075,-1.4088,-1.4088,-1.4088,-1.4088,-1.4088,-1.4088,-1.4088,-1.4088,-1.4088,-1.4088,-1.4088,-1.4088,-1.4088,-1.4088,-1.4088,-1.4088,-1.4088,-1.4088,-1.4088,-1.4088,-1.4088,-1.4088,-1.4088,-1.4088,-1.4088,-1.4088,-1.4088,-1.4088,-1.4088,-1.4088,-1.4039,-1.3828,-1.3355,-1.2406,-1.0842,-0.8978,-0.8627,-0.8061,-0.7316,-0.7183,-0.7095,-0.7095,-0.7095,-0.7095,-0.7095,-0.7095,-0.7095,-0.7095,0.0,0.0,0.0,0.0,0.0,0.0,0.0,0.0,0.0,0.0,0.0,-0.9217,-0.9115,-0.9401,0.0,0.0,0.0,0.0,-1.0229,0.0,0.0,-1.2967,-1.3431,-1.3628,-1.3504,-1.2836,-1.2401,0.0,0.0,0.0,0.0,0.0,0.0,-1.3648,0.0,0.0,0.0,0.0,0.0,-1.0327,-0.9908,-0.9644,-0.9433,-0.9074,-0.8795,-0.8636,-0.9023,-0.917,-0.9365,-1.0586,-1.0957,0.0,0.0,0.0,-0.9874,-1.0742,-1.0693,-1.0576,-1.141,0.0,-1.3608,0.0,-1.3959,-1.3825,0.0,0.0,-1.3733,0.0,-1.4088,-1.4088,-1.4088,-1.4088,-1.4088,-1.4088,-1.4088,-1.4088,-1.4088,-1.4088,-1.4088,-1.4088,-1.4088,-1.4088,-1.4088,-1.4088,-1.4088,-1.4088,-1.4088,-1.4088,-1.4088,-1.4088,-1.4088,-1.4088,-1.4088,-1.4088,-1.4088,-1.4088,-1.4088,-1.4088,-1.387,-1.361,-1.3392,-1.3052,-1.2186,-1.0847,-0.9196,-0.8412,-0.8237,-0.7448,-0.7095,-0.7095,-0.7095,-0.7095,-0.7095,-0.7095,-0.7095,-0.7095,0.0,0.0,0.0,0.0,0.0,0.0,0.0,0.0,0.0,0.0,0.0,-0.9511,-0.9337,-0.945,0.0,0.0,0.0,0.0,-1.0159,-1.1033,0.0,0.0,0.0,0.0,-1.2877,-1.1975,0.0,0.0,0.0,0.0,0.0,-1.2824,-1.3258,0.0,0.0,0.0,0.0,0.0,0.0,-1.018,-0.9928,-0.9929,0.0,0.0,-0.8809,-0.9099,-0.8493,0.0,0.0,0.0,-1.0176,-1.0332,-1.1291,0.0,0.0,0.0,-1.0254,-1.0293,-1.2097,-1.3176,-1.3812,0.0,-1.4075,-1.3978,-1.3142,-1.318,-1.3447,-1.3774,-1.3841,-1.3895,-1.4055,-1.4088,-1.4088,-1.4088,-1.4088,-1.4088,-1.4088,-1.4088,-1.4088,-1.4088,-1.4088,-1.4088,-1.4088,-1.4088,-1.4088,-1.4088,-1.4088,-1.4088,-1.4088,-1.4088,-1.4088,-1.4088,-1.4088,-1.4088,-1.4088,-1.4088,-1.4088,-1.4088,-1.3828,-1.361,-1.3392,-1.3179,-1.2448,-1.1235,-1.0414,-0.9758,-0.9231,-0.8277,-0.7885,-0.7841,-0.7316,-0.7095,-0.7095,-0.7095,-0.7095,-0.7095,0.0,0.0,0.0,0.0,0.0,0.0,0.0,0.0,0.0,0.0,0.0,0.0,-0.9613,0.0,0.0,0.0,0.0,0.0,-0.9973,0.0,0.0,0.0,0.0,0.0,-1.1944,0.0,0.0,0.0,0.0,0.0,-1.2905,-1.3018,-1.3814,0.0,-1.4562,0.0,0.0,0.0,0.0,0.0,0.0,0.0,-1.056,-0.9659,-0.9706,-1.0083,0.0,0.0,0.0,0.0,0.0,0.0,0.0,0.0,0.0,0.0,0.0,0.0,0.0,0.0,-1.3719,-1.3631,-1.4093,-1.4307,0.0,0.0,-1.341,0.0,-1.3493,-1.356,-1.3821,-1.3988,-1.4088,-1.4088,-1.4088,-1.4088,-1.4088,-1.4088,-1.4088,-1.4088,-1.4088,-1.4088,-1.4088,-1.4088,-1.4088,-1.4088,-1.4088,-1.4088,-1.4088,-1.4088,-1.4088,-1.4088,-1.4088,-1.4088,-1.4088,-1.4088,-1.4088,-1.4088,-1.3913,-1.3652,-1.3392,-1.3222,-1.2619,-1.1623,-1.1408,-1.0885,-1.0183,-0.9231,-0.8715,-0.8412,-0.7709,-0.7316,-0.7095,-0.7095,-0.7095,-0.7095,0.0,0.0,0.0,0.0,0.0,0.0,0.0,0.0,0.0,0.0,0.0,0.0,0.0,0.0,0.0,0.0,0.0,0.0,0.0,0.0,0.0,0.0,0.0,0.0,0.0,0.0,0.0,0.0,0.0,0.0,-1.2915,-1.3359,-1.4314,-1.5608,-1.4707,-1.3572,-1.2245,0.0,0.0,0.0,0.0,0.0,0.0,-1.1301,-1.1522,-1.139,0.0,0.0,0.0,0.0,0.0,0.0,0.0,-0.9396,-0.9043,0.0,0.0,0.0,0.0,-1.1926,0.0,-1.2587,-1.3835,-1.4727,0.0,0.0,-1.3758,-1.3324,-1.3233,-1.324,-1.3253,-1.3707,-1.4088,-1.4088,-1.4088,-1.4088,-1.4088,-1.4088,-1.4088,-1.4088,-1.4088,-1.4088,-1.4088,-1.4088,-1.4088,-1.4088,-1.4088,-1.4088,-1.4088,-1.4088,-1.4088,-1.4088,-1.4088,-1.4088,-1.4088,-1.4088,-1.4088,-1.4088,-1.4088,-1.3828,-1.3398,-1.3392,-1.3094,-1.2571,-1.1671,-1.1284,-1.1149,-1.0231,-0.9318,-0.85,-0.8456,-0.7885,-0.7095,-0.7095,-0.7095,-0.7095,0.0,0.0,0.0,0.0,0.0,0.0,0.0,0.0,0.0,0.0,0.0,0.0,0.0,0.0,0.0,0.0,0.0,0.0,0.0,0.0,0.0,0.0,0.0,0.0,0.0,0.0,0.0,0.0,0.0,-1.0288,-1.2068,-1.2801,-1.3576,-1.4366,-1.4635,-1.4314,-1.3517,-1.2574,0.0,0.0,0.0,0.0,0.0,0.0,0.0,0.0,0.0,0.0,0.0,0.0,0.0,0.0,-1.0049,-0.957,-0.8955,-0.8698,-0.9092,0.0,0.0,0.0,0.0,-1.2648,-1.3356,-1.3924,-1.3628,-1.3593,-1.3652,-1.3637,-1.3253,-1.3012,-1.3173,-1.338,-1.3587,-1.3733,-1.376,-1.3868,-1.4062,-1.4088,-1.4088,-1.4088,-1.4088,-1.4088,-1.4088,-1.4088,-1.4088,-1.4088,-1.4088,-1.4088,-1.4088,-1.4088,-1.4088,-1.4088,-1.4088,-1.4088,-1.4088,-1.4088,-1.4088,-1.4088,-1.4088,-1.387,-1.3398,-1.3398,-1.3137,-1.2662,-1.2357,-1.1843,-1.1241,-1.0274,-0.9362,-0.8456,-0.7841,-0.7404,-0.7095,-0.7095,-0.7095,-0.7095,0.0,0.0,0.0,0.0,0.0,0.0,0.0,0.0,0.0,0.0,0.0,0.0,0.0,0.0,0.0,0.0,0.0,0.0,0.0,0.0,0.0,0.0,0.0,0.0,0.0,0.0,0.0,0.0,0.0,0.0,0.0,-1.1809,-1.2553,-1.3186,-1.3807,-1.4076,0.0,0.0,0.0,-1.2382,0.0,0.0,-1.3283,0.0,0.0,0.0,0.0,0.0,0.0,0.0,0.0,0.0,0.0,-0.9717,-0.874,-0.8473,0.0,0.0,-1.0205,0.0,0.0,0.0,-1.3177,-1.3648,-1.3932,-1.3727,-1.347,-1.355,-1.308,-1.2697,-1.2866,-1.2906,-1.3033,-1.3393,-1.354,-1.3673,-1.3908,-1.4021,-1.4088,-1.4088,-1.4088,-1.4088,-1.4088,-1.4088,-1.4088,-1.4088,-1.4088,0.0,-1.4088,-1.4088,-1.4088,-1.4088,-1.4088,-1.4088,-1.4088,-1.4088,-1.4088,-1.4088,-1.4088,-1.387,-1.3483,-1.344,-1.3179,-1.2833,-1.2747,-1.2357,-1.1709,-1.0755,-0.9797,-0.8886,-0.7925,-0.736,-0.7095,-0.7095,-0.7095,-0.7095,0.0,0.0,0.0,0.0,0.0,0.0,0.0,0.0,0.0,-1.0296,0.0,0.0,0.0,0.0,0.0,0.0,-0.8948,-0.873,-0.8253,-0.8222,0.0,0.0,0.0,0.0,0.0,0.0,0.0,0.0,0.0,0.0,0.0,0.0,-1.1385,-1.2287,-1.2297,-1.2784,-1.3597,0.0,-1.3731,-1.3034,0.0,-1.4262,-1.4122,0.0,0.0,0.0,-1.4971,-1.4551,0.0,-1.3232,0.0,0.0,0.0,-0.9756,-0.8424,-0.8414,0.0,0.0,0.0,0.0,0.0,0.0,0.0,0.0,-1.4021,-1.37,-1.3297,-1.2976,-1.2583,-1.2285,-1.2298,-1.2305,-1.2492,-1.3086,-1.3387,-1.358,-1.36,-1.3895,-1.4075,-1.4088,-1.4088,-1.4088,-1.4088,-1.4088,-1.4088,-1.4088,-1.4088,-1.4088,-1.4088,-1.4088,-1.4088,-1.4088,-1.4088,-1.4088,-1.4088,-1.4088,-1.4088,-1.4088,-1.4088,-1.3955,-1.3695,-1.3483,-1.3313,-1.3052,-1.279,-1.2705,-1.2619,-1.1671,-1.0755,-0.9792,-0.8846,-0.7929,-0.7139,-0.7095,-0.7095,-0.7095,0.0,0.0,0.0,0.0,0.0,0.0,-0.9614,-1.0392,-1.0774,0.0,0.0,0.0,0.0,0.0,0.0,0.0,0.0,-0.9522,-0.8761,-0.8709,-0.8942,-0.9472,-1.0396,-1.0962,-1.1076,0.0,0.0,0.0,0.0,0.0,0.0,0.0,0.0,0.0,-1.2152,-1.2597,-1.308,-1.2929,0.0,0.0,-1.3756,-1.421,0.0,0.0,0.0,0.0,0.0,-1.5664,-1.5469,0.0,-1.4014,-1.2842,0.0,0.0,0.0,0.0,0.0,0.0,-1.0186,0.0,0.0,0.0,0.0,0.0,0.0,-1.3691,-1.3329,-1.3284,-1.2743,-1.2298,-1.2298,-1.2305,-1.2358,-1.2525,-1.2799,-1.3146,-1.354,-1.3673,-1.3848,-1.4062,-1.4088,-1.4088,-1.4088,-1.4088,-1.4088,0.0,-1.4088,-1.4088,-1.4088,-1.4088,-1.4088,-1.4088,-1.4088,-1.4088,-1.4088,-1.4088,-1.4088,-1.4088,-1.4088,-1.387,-1.3476,-1.344,-1.3179,-1.279,-1.2747,-1.2705,-1.2619,-1.1671,-1.0755,-0.9792,-0.8846,-0.8324,-0.8017,-0.736,-0.7095,-0.7095,0.0,0.0,0.0,0.0,0.0,-1.1317,-1.0914,-1.1358,-1.1583,0.0,0.0,0.0,0.0,0.0,0.0,0.0,0.0,-1.0115,-0.9206,-0.8999,-0.9077,-0.9472,-1.0211,-1.0797,-1.1188,0.0,0.0,0.0,0.0,0.0,0.0,0.0,0.0,0.0,-1.093,-1.1488,-1.2047,0.0,0.0,0.0,-1.4245,0.0,0.0,-1.5782,-1.623,0.0,0.0,0.0,-1.6299,-1.6015,-1.4962,0.0,0.0,0.0,0.0,0.0,0.0,0.0,0.0,0.0,0.0,0.0,0.0,0.0,-1.4129,-1.3523,-1.2848,-1.3163,-1.2776,-1.2295,-1.2146,-1.2372,-1.2485,-1.2321,-1.2445,-1.2764,-1.32,-1.3447,-1.3666,-1.3881,-1.4015,-1.4088,-1.4088,-1.4088,-1.4088,-1.4088,-1.4088,-1.4088,-1.4088,-1.4088,-1.4088,-1.4088,-1.4088,-1.4088,-1.4088,-1.4088,-1.4088,-1.4088,-1.4088,-1.3955,-1.3701,-1.3568,-1.3307,-1.3009,-1.2881,-1.279,-1.2662,-1.21,-1.1316,-1.0404,-0.9449,-0.8842,-0.8456,-0.7885,-0.7448,-0.7095,0.0,0.0,-1.2679,-1.2411,-1.2627,-1.2832,-1.2832,-1.2874,-1.2884,0.0,-1.2555,-1.2587,0.0,0.0,0.0,0.0,0.0,-1.0663,-0.9726,-0.9216,-0.9149,-0.9571,-0.9984,-1.0611,-1.1498,-1.2037,-1.1643,0.0,0.0,0.0,0.0,0.0,0.0,-0.8989,-0.9299,-0.9953,-1.0788,0.0,0.0,-1.3045,-1.4878,-1.5503,0.0,0.0,-1.708,-1.6882,-1.7256,-1.7168,-1.6824,-1.6736,-1.5605,0.0,0.0,0.0,0.0,0.0,-1.1697,0.0,0.0,0.0,0.0,0.0,0.0,0.0,-1.4223,-1.3235,-1.226,-1.2797,-1.2632,-1.2275,-1.2054,-1.2438,-1.2733,-1.2471,-1.2351,-1.2405,-1.273,-1.3206,-1.3527,-1.3593,-1.3874,-1.4048,-1.4082,-1.4088,-1.4088,-1.4088,-1.4088,-1.4088,-1.4088,-1.4088,-1.4075,-1.4041,-1.4041,-1.4021,-1.3988,-1.4021,-1.4041,-1.4041,-1.4075,-1.4088,-1.4039,-1.3822,-1.3568,-1.3349,-1.3179,-1.2966,-1.2705,-1.2705,-1.2229,-1.1365,-1.0404,-0.9536,-0.8803,-0.8671,-0.8061,-0.7272,0.0,-1.1954,-1.2058,-1.2679,-1.2565,-1.2411,-1.2411,-1.2699,-1.277,-1.2462,-1.2627,0.0,0.0,0.0,0.0,0.0,0.0,0.0,-1.0694,-0.9839,-0.9582,-1.0046,-1.0149,-1.0458,-1.1024,-1.1871,-1.1799,-1.0757,0.0,0.0,0.0,0.0,0.0,0.0,-0.9129,-0.9512,-1.0376,0.0,0.0,-1.2792,-1.3459,0.0,-1.6247,-1.6314,-1.6924,-1.7725,-1.7471,-1.7549,-1.7656,-1.6931,-1.6005,-1.4972,0.0,0.0,0.0,-1.2617,0.0,-1.3242,-1.3154,0.0,0.0,0.0,0.0,0.0,-1.3039,-1.2831,-1.2654,-1.2357,-1.2212,-1.2252,-1.2569,-1.2483,-1.2531,-1.3085,-1.2694,-1.2409,-1.2752,-1.2884,-1.31,-1.3547,-1.3653,-1.378,-1.4062,-1.4088,-1.4088,-1.4088,-1.4088,-1.4088,-1.4088,-1.4088,-1.3975,-1.3693,-1.3686,-1.3573,-1.338,-1.3573,-1.3686,-1.3693,-1.3975,-1.3997,-1.3779,-1.3737,-1.3483,-1.3137,-1.3137,-1.2966,-1.2705,-1.2705,-1.2577,-1.2314,-1.1408,-1.0933,-1.0674,-0.9884,-0.9017,-0.8237,0.0,-1.2296,-1.2658,-1.2863,-1.3124,-1.3313,-1.3313,-1.3279,-1.3434,-1.3935,-1.4366,0.0,0.0,0.0,0.0,0.0,0.0,0.0,0.0,-1.059,-1.02,-1.02,-1.02,-1.0417,-1.089,-1.1364,-1.1375,-1.091,-1.019,-0.985,-0.9829,-0.8725,-0.8658,0.0,-0.9077,0.0,0.0,0.0,-1.184,-1.2902,-1.4033,0.0,-1.6447,-1.6882,-1.7441,-1.7978,-1.7773,-1.7832,-1.7842,-1.6758,-1.625,0.0,0.0,-1.4609,-1.4637,0.0,-1.3955,-1.4316,-1.3682,0.0,0.0,-1.3851,0.0,0.0,0.0,-1.2993,-1.2574,-1.284,-1.2524,-1.2294,-1.2561,-1.2678,-1.2827,-1.3049,-1.314,-1.314,-1.3099,-1.2942,-1.2898,-1.316,-1.3333,-1.3487,-1.3634,-1.3647,-1.3707,-1.3854,-1.3868,-1.3868,-1.3868,-1.3728,-1.3581,-1.3393,-1.3387,-1.336,-1.3213,-1.3313,-1.3387,-1.3387,-1.3581,-1.3566,-1.3443,-1.3587,-1.3438,-1.3069,-1.3207,-1.3052,-1.2705,-1.2705,-1.2705,-1.2662,-1.2186,-1.1714,-1.1235,-1.0755,-1.0014,-0.9148,0.0,-1.2534,-1.3238,-1.2843,-1.3558,-1.4138,-1.4031,-1.3845,-1.4252,0.0,0.0,0.0,0.0,0.0,0.0,0.0,0.0,0.0,0.0,0.0,-1.0817,-1.0611,-1.0334,-1.0458,-1.1014,-1.0952,-1.0993,-1.1158,-1.0046,-0.9643,-0.9881,-0.8829,-0.8808,-0.9616,0.0,0.0,0.0,0.0,0.0,-1.3478,0.0,-1.5859,-1.6089,-1.7334,-1.7754,-1.7783,-1.7949,-1.8008,-1.7842,-1.6731,-1.6504,-1.6521,-1.5498,-1.5606,0.0,0.0,0.0,0.0,0.0,0.0,0.0,0.0,0.0,-1.3922,0.0,0.0,0.0,-1.3277,-1.2839,-1.2336,0.0,0.0,0.0,-1.2927,0.0,0.0,0.0,-1.3125,0.0,-1.2979,-1.3054,-1.3159,-1.3277,-1.3198,-1.324,-1.35,-1.3467,-1.3453,-1.3513,-1.334,-1.318,-1.312,-1.312,-1.3093,-1.3039,-1.3093,-1.312,-1.312,-1.318,-1.3213,-1.322,-1.3467,-1.3395,-1.308,-1.3319,-1.3179,-1.279,-1.2705,-1.2705,-1.2705,-1.2705,-1.2229,-1.158,-1.158,-1.0971,-1.0053,-1.1602,-1.2048,-1.2421,-1.2391,-1.3093,-1.3535,-1.3121,-1.371,-1.4728,0.0,0.0,0.0,0.0,0.0,0.0,0.0,0.0,0.0,-1.4003,0.0,0.0,-1.2027,-1.0878,-1.0611,-1.1498,-1.1116,-1.1313,-1.2131,-1.0363,-1.0146,-1.1322,-0.9611,-0.9284,-1.0118,-0.996,0.0,0.0,0.0,-1.3114,0.0,-1.5575,-1.5367,0.0,-1.6425,-1.6951,-1.6941,-1.7734,-1.8008,-1.793,0.0,-1.7012,-1.6668,0.0,-1.6309,-1.6144,-1.6326,0.0,0.0,0.0,0.0,0.0,0.0,-1.4951,0.0,0.0,0.0,-1.302,-1.2575,0.0,0.0,0.0,0.0,0.0,0.0,0.0,0.0,-1.3253,-1.3332,-1.3412,-1.3657,-1.3195,-1.306,-1.3587,-1.3175,-1.2965,-1.324,-1.3045,-1.3005,-1.3247,-1.3227,-1.3086,-1.2844,-1.2837,-1.271,-1.2405,-1.2703,-1.2837,-1.2844,-1.308,-1.3213,-1.322,-1.3467,-1.3477,-1.3285,-1.3355,-1.3264,-1.3052,-1.279,-1.2705,-1.2705,-1.2705,-1.2619,-1.2534,-1.2534,-1.1972,-1.1149,-1.1199,-1.1975,0.0,-1.1975,-1.2834,-1.3431,-1.2967,-1.4589,-1.589,0.0,0.0,0.0,0.0,0.0,0.0,0.0,0.0,-1.5415,0.0,0.0,0.0,-1.2328,-1.1737,-1.1477,-1.1591,-1.1415,-1.1509,-1.1882,-1.0559,-1.02,-1.0774,-0.9722,-0.9743,-1.0613,-1.0756,0.0,-1.3828,0.0,-1.396,0.0,0.0,0.0,0.0,-1.6768,-1.7494,-1.7486,-1.7881,-1.8008,-1.791,0.0,-1.7051,0.0,0.0,0.0,0.0,0.0,0.0,0.0,0.0,0.0,0.0,0.0,0.0,0.0,-1.375,0.0,-1.2997,0.0,0.0,0.0,0.0,0.0,0.0,0.0,-1.3202,0.0,0.0,0.0,-1.3316,-1.3243,0.0,0.0,-1.3223,-1.3161,-1.3064,-1.2958,-1.3037,-1.3071,-1.2965,-1.2779,-1.2625,-1.2492,-1.2522,-1.2425,-1.2305,-1.2425,-1.2522,-1.2529,-1.2619,-1.2685,-1.2692,-1.2986,-1.3101,-1.3085,-1.3242,-1.3245,-1.3094,-1.2966,-1.2833,-1.2705,-1.2705,-1.2705,-1.2705,-1.2705,-1.2443,-1.2015,-1.1271,0.0,0.0,0.0,-1.2596,-1.3421,-1.3462,-1.5167,-1.6397,-1.627,0.0,0.0,-1.8319,-1.8288,0.0,0.0,-1.7709,-1.6944,0.0,0.0,-1.4169,-1.3471,-1.2805,-1.2431,-1.2348,-1.1975,-1.184,-1.1931,-1.0872,-1.0494,-1.0735,-1.0137,-1.0304,-1.1107,-1.1573,-1.2978,-1.4987,0.0,-1.5004,-1.581,-1.5863,-1.5723,-1.5613,-1.7096,-1.7803,-1.8008,-1.8008,-1.8008,-1.79,-1.7126,-1.7119,0.0,-1.7012,0.0,0.0,0.0,0.0,0.0,-1.6689,0.0,0.0,0.0,0.0,0.0,0.0,0.0,0.0,0.0,0.0,0.0,0.0,0.0,0.0,0.0,0.0,-1.3616,0.0,-1.3299,0.0,0.0,0.0,0.0,0.0,-1.2908,-1.2898,-1.2561,-1.2777,-1.2827,-1.256,-1.2335,-1.2218,-1.2298,-1.2305,-1.2305,-1.2305,-1.2305,-1.2305,-1.2305,-1.2305,-1.2305,-1.2318,-1.2737,-1.296,-1.2988,-1.3274,-1.3339,-1.3179,-1.3137,-1.2924,-1.2705,-1.2705,-1.2705,-1.2705,-1.2705,-1.2705,-1.2619,-1.2172,-1.1913,0.0,0.0,-1.2337,-1.3369,-1.4728,-1.5007,-1.5691,-1.7409,0.0,0.0,0.0,0.0,0.0,0.0,0.0,-1.8818,-1.831,0.0,-1.5359,-1.6236,-1.4097,-1.3297,0.0,-1.2939,-1.2446,-1.2751,-1.1427,-1.1257,-1.2114,0.0,0.0,0.0,-1.2405,-1.3587,-1.5028,-1.5317,-1.6382,-1.7755,-1.7332,-1.7449,-1.7803,0.0,-1.7262,-1.8008,-1.8008,0.0,0.0,-1.751,-1.7406,0.0,0.0,0.0,0.0,0.0,0.0,0.0,0.0,0.0,0.0,-1.584,0.0,0.0,0.0,0.0,-1.3931,0.0,0.0,0.0,0.0,0.0,0.0,0.0,0.0,0.0,0.0,0.0,0.0,0.0,0.0,0.0,0.0,-1.2344,-1.2265,0.0,-1.1974,-1.2023,-1.1935,-1.1926,-1.2011,-1.2291,-1.2305,-1.2305,-1.2305,-1.2305,-1.2305,-1.2305,-1.2305,-1.2305,-1.2325,-1.2926,-1.32,-1.3207,-1.3524,-1.3561,-1.3398,-1.3179,-1.2924,-1.2705,-1.2705,-1.2705,-1.2705,-1.2705,-1.2705,-1.2705,0.0,0.0,0.0,0.0,0.0,-1.3617,-1.4417,-1.6073,-1.746,0.0,0.0,0.0,0.0,-2.1569,-2.1507,0.0,0.0,-2.0296,-1.8953,-1.7564,0.0,0.0,0.0,-1.4759,0.0,-1.4014,-1.338,-1.2866,-1.2162,-1.1802,0.0,0.0,0.0,0.0,0.0,-1.422,0.0,0.0,0.0,0.0,0.0,-1.7389,-1.7978,0.0,-1.773,-1.8008,-1.8008,-1.8008,0.0,-1.7842,-1.7607,-1.7432,-1.7705,-1.7412,-1.709,-1.7803,-1.7812,0.0,0.0,0.0,-1.7734,-1.6541,0.0,0.0,0.0,0.0,0.0,0.0,0.0,0.0,0.0,0.0,0.0,0.0,0.0,0.0,0.0,0.0,0.0,0.0,0.0,0.0,0.0,0.0,0.0,-1.2199,-1.2243,0.0,-1.1921,-1.2087,-1.2204,-1.2298,-1.2305,-1.2305,-1.2305,-1.2305,-1.2305,-1.2305,-1.2305,-1.2305,-1.2311,-1.2518,-1.2826,-1.322,-1.334,-1.3474,-1.361,-1.3525,-1.3307,-1.2966,-1.2966,-1.2875,-1.2705,-1.2705,-1.2705,-1.2705,-1.3303,0.0,0.0,0.0,0.0,-1.4051,-1.4707,-1.6839,0.0,0.0,-2.0327,0.0,-2.2418,0.0,-2.2439,0.0,-2.2294,-2.1518,-1.9675,-1.9013,0.0,-1.7761,-1.6901,0.0,0.0,-1.5277,-1.442,-1.36,-1.3015,-1.2584,0.0,0.0,0.0,0.0,0.0,-1.4625,-1.6187,-1.6805,-1.745,0.0,0.0,-1.8027,0.0,0.0,-1.8281,-1.8027,0.0,-1.8135,-1.8037,-1.8184,-1.8057,-1.7852,-1.7969,-1.7701,-1.7457,-1.7891,-1.793,-1.7891,-1.812,-1.835,0.0,-1.7369,-1.6726,0.0,-1.4825,0.0,-1.4864,0.0,0.0,0.0,0.0,0.0,0.0,0.0,0.0,0.0,0.0,-1.2312,0.0,0.0,0.0,0.0,0.0,0.0,-1.2484,-1.1916,-1.2081,0.0,0.0,-1.1891,-1.2084,-1.2291,-1.2305,-1.2305,-1.2305,-1.2305,-1.2305,-1.2305,-1.2305,-1.2305,-1.2305,-1.2412,-1.2739,-1.322,-1.332,-1.347,-1.3695,-1.361,-1.3398,-1.3094,-1.3009,-1.2833,-1.2705,-1.2705,-1.2705,-1.2705,0.0,0.0,0.0,0.0,-1.3762,0.0,0.0,0.0,-1.8787,0.0,-2.1021,-2.2056,-2.2542,-2.2594,-2.277,-2.3184,-2.3215,-2.247,-2.0679,-2.0457,0.0,0.0,-1.833,-1.8019,-1.8434,-1.6674,-1.5494,0.0,0.0,0.0,0.0,0.0,0.0,0.0,-1.3876,0.0,-1.5815,-1.7,-1.8159,-1.9184,-1.9256,-1.9287,-1.9287,-1.9287,-1.8779,-1.8125,-1.849,-1.8373,-1.8135,-1.85,-1.8627,-1.8559,-1.8159,-1.8315,-1.8559,-1.8193,-1.8325,-1.8627,-1.8627,-1.8975,-1.9092,-1.8281,-1.8037,0.0,0.0,0.0,-1.6492,0.0,0.0,0.0,0.0,0.0,0.0,0.0,0.0,0.0,0.0,0.0,0.0,0.0,0.0,0.0,0.0,0.0,-1.2546,-1.1048,-1.1495,0.0,0.0,-1.1395,-1.1703,-1.2265,-1.2291,-1.2305,-1.2305,-1.2305,-1.2305,-1.2305,-1.2305,-1.2311,-1.2338,-1.2656,-1.2965,-1.3247,-1.3487,-1.3642,-1.3695,-1.3519,-1.3307,-1.3094,-1.2833,-1.2705,-1.2705,-1.2705,-1.2705,-1.2705,-1.4517,-1.4855,-1.5225,0.0,-1.5121,-1.5245,0.0,0.0,0.0,0.0,-2.1973,-2.3132,-2.3887,-2.397,-2.3929,-2.3722,-2.3701,0.0,0.0,0.0,0.0,-2.1093,-1.9903,-1.916,-1.8932,-1.745,-1.6444,-1.6011,0.0,0.0,-1.4077,0.0,0.0,0.0,0.0,0.0,-1.6069,-1.7073,-1.8084,-1.8988,-1.922,-1.9287,-1.9287,0.0,-1.915,-1.8975,-1.9082,-1.9053,-1.8975,-1.9082,-1.9121,-1.9102,-1.8994,-1.9033,-1.9102,-1.8994,-1.9033,-1.9121,-1.9121,-1.9209,-1.9238,-1.9014,-1.8477,-1.7891,0.0,0.0,0.0,0.0,0.0,0.0,0.0,0.0,0.0,0.0,0.0,0.0,0.0,0.0,0.0,-1.3121,0.0,0.0,0.0,-1.1956,-1.1447,-1.1633,-1.1377,0.0,0.0,0.0,-1.1824,-1.2013,-1.2191,-1.2305,-1.2305,-1.2305,-1.2305,-1.2305,-1.2305,-1.2418,-1.267,-1.275,-1.3072,-1.3493,-1.3573,-1.3773,-1.3997,-1.3955,-1.3779,-1.3525,-1.3307,-1.3003,-1.2705,-1.2705,-1.2705,-1.2705,-1.5333,0.0,0.0,-1.6921,0.0,0.0,-1.8007,-1.8868,0.0,-2.1458,-2.2548,0.0,-2.3898,-2.4259,-2.4394,-2.4188,-2.4167,0.0,-2.2946,0.0,0.0,-2.1528,-2.0959,-2.0441,-1.9975,-1.863,0.0,-1.6974,0.0,0.0,-1.4283,0.0,0.0,0.0,0.0,-1.5089,-1.6025,-1.754,-1.8528,-1.9118,-1.9664,-1.9881,0.0,-1.9881,-1.9881,-1.9881,-1.9881,-1.9609,-1.9316,-1.9502,-1.9561,-1.9531,-1.9346,-1.9414,-1.9531,-1.9336,-1.9414,-1.9561,-1.9561,-1.9697,-1.9881,-1.9881,-1.9482,-1.9023,-1.8652,-1.8389,-1.8037,0.0,-1.7344,-1.7285,0.0,0.0,0.0,0.0,0.0,0.0,0.0,0.0,0.0,0.0,-1.2761,0.0,0.0,-1.1602,-1.1076,-1.1597,-1.1368,0.0,0.0,0.0,-1.2046,-1.1899,-1.2151,-1.2305,-1.2305,-1.2305,-1.2305,-1.2305,-1.2305,-1.2496,-1.2784,-1.2784,-1.3073,-1.36,-1.36,-1.3773,-1.4088,-1.3955,-1.3828,-1.3652,-1.3398,-1.3094,-1.2875,-1.2747,-1.2705,-1.2705,-1.683,0.0,0.0,0.0,0.0,0.0,0.0,-2.0198,0.0,-2.2448,0.0,-2.3523,-2.336,-2.4064,-2.4497,-2.4497,0.0,-2.3991,-2.2842,-2.3463,-2.3163,-2.1549,-2.1807,-2.1745,-2.1217,-1.9862,-1.8692,0.0,0.0,-1.5152,-1.4293,0.0,0.0,0.0,0.0,0.0,0.0,-1.8213,-1.9207,-1.9402,-2.0301,-2.0605,-2.0605,-2.0605,-2.0605,-2.0605,-2.0605,-2.0126,-1.9512,-1.9873,-2.0,-1.9932,-1.957,-1.9707,-1.9932,-1.9561,-1.9717,-2.0,-2.0,-2.0273,-2.0605,-2.0605,-2.0605,-2.041,-1.9619,-1.9404,-1.9141,-1.834,-1.7842,-1.7627,0.0,0.0,0.0,0.0,0.0,0.0,0.0,0.0,0.0,0.0,0.0,0.0,0.0,0.0,0.0,0.0,0.0,0.0,0.0,0.0,-1.2106,-1.1839,-1.2131,-1.2305,-1.2305,-1.2305,-1.2305,-1.2305,-1.2345,-1.2556,-1.2844,-1.2884,-1.3173,-1.366,-1.366,-1.3848,-1.4088,-1.3864,-1.3737,-1.3652,-1.3313,-1.3137,-1.3052,-1.2839,-1.2747,-1.2705,-1.7997,0.0,0.0,0.0,0.0,-2.06,-2.2262,-2.2499,-2.2909,-2.3974,-2.4854,-2.506,-2.4344,-2.4404,-2.4497,-2.4497,-2.4497,0.0,0.0,0.0,0.0,-2.3412,-2.3111,-2.2542,-2.1704,-2.0373,-1.9013,0.0,-1.598,-1.4842,-1.4293,0.0,0.0,0.0,0.0,0.0,-1.7257,-1.8617,0.0,-1.9614,-2.0511,-2.0741,-2.0605,-2.0605,-2.0605,-2.0605,-2.0605,-2.0507,-2.039,-2.0458,-2.0488,-2.0478,-2.04,-2.0429,-2.0478,-2.04,-2.0429,-2.0488,-2.0488,-2.0546,-2.0605,-2.0605,-2.0605,-2.0566,-2.041,-2.0059,-1.9668,-1.916,-1.8721,-1.8223,-1.7607,0.0,0.0,0.0,0.0,0.0,0.0,0.0,0.0,0.0,0.0,-1.2937,0.0,0.0,0.0,0.0,0.0,0.0,0.0,0.0,-1.1425,0.0,-1.2024,-1.2305,0.0,0.0,-1.2305,-1.2305,-1.2589,-1.2871,-1.3133,-1.338,-1.3674,-1.4008,-1.4008,-1.4041,-1.4088,-1.4039,-1.3913,-1.3695,-1.361,-1.3392,-1.3094,-1.3052,-1.2875,-1.2705,0.0,0.0,0.0,0.0,0.0,0.0,0.0,-2.5599,-2.5731,-2.5221,-2.4734,-2.4466,-2.4497,-2.4493,-2.4497,-2.4497,-2.4497,-2.4497,-2.4497,-2.4301,-2.4115,-2.3888,-2.366,-2.3111,-2.218,-2.128,-2.0038,-1.8423,-1.7077,-1.5787,-1.4656,0.0,0.0,-1.3638,0.0,-1.6154,0.0,0.0,0.0,-1.9687,-2.0435,-2.0693,-2.0605,-2.0605,-2.0605,-2.0605,-2.0605,-2.0605,-2.0605,-2.0605,-2.0605,-2.0605,-2.0605,-2.0605,-2.0605,-2.0605,-2.0605,-2.0605,-2.0605,-2.0605,-2.0605,-2.0605,-2.0605,-2.0605,-2.0605,-2.0449,-2.0127,-1.9697,-1.9268,-1.8643,-1.7578,-1.7031,0.0,0.0,0.0,0.0,0.0,0.0,0.0,0.0,0.0,0.0,0.0,0.0,0.0,0.0,0.0,0.0,-1.0401,0.0,-1.1227,0.0,0.0,0.0,-1.2305,0.0,-1.2305,-1.2305,-1.2643,-1.2951,-1.322,-1.3467,-1.3766,-1.4088,-1.4088,-1.4088,-1.4088,-1.4088,-1.3955,-1.3695,-1.361,-1.3349,-1.3094,-1.2924,-1.279,-1.2705,0.0,-2.2603,0.0,0.0,-2.4031,-2.4823,-2.6566,-2.761,-2.7755,-2.6551,-2.5193,-2.4526,-2.4984,-2.5063,-2.4988,-2.4786,-2.4786,-2.47,-2.4497,-2.4497,-2.4342,-2.4033,-2.4022,-2.3639,-2.2811,-2.2242,-2.1052,0.0,-1.8226,-1.6769,0.0,0.0,0.0,0.0,0.0,0.0,0.0,0.0,-1.9463,-1.9769,-2.0426,-2.0644,-2.0605,-2.0605,-2.0605,-2.0605,-2.0605,-2.0605,-2.0605,-2.0605,-2.0605,-2.0605,-2.0605,-2.0605,-2.0605,-2.0605,-2.0605,-2.0605,-2.0605,-2.0605,-2.0605,-2.0605,-2.0605,-2.0605,-2.0605,-2.0605,-2.0458,-1.9893,-1.9365,-1.8682,-1.7588,-1.7178,0.0,0.0,0.0,0.0,0.0,0.0,0.0,0.0,0.0,0.0,-1.2799,0.0,0.0,0.0,0.0,0.0,-1.0407,-1.0748,-1.1043,0.0,0.0,-1.2013,-1.2204,0.0,-1.2338,-1.2398,-1.2744,-1.3045,-1.3273,-1.3567,-1.3868,-1.4088,-1.4088,-1.4088,-1.3997,-1.3997,-1.387,-1.361,-1.3483,-1.3264,-1.3052,-1.2875,-1.2747,-1.2705,0.0,0.0,0.0,0.0,0.0,-2.5666,-2.5877,-2.6667,-2.7481,-2.816,-2.8108,-2.7698,-2.692,-2.6849,-2.6535,-2.5746,-2.5663,-2.5337,-2.454,-2.4497,-2.4476,-2.4435,-2.4435,-2.425,-2.3764,-2.2884,-2.1538,0.0,0.0,-1.6769,0.0,0.0,0.0,0.0,0.0,0.0,0.0,-1.9615,-2.0058,-2.0195,-2.067,-2.078,-2.0605,-2.0605,-2.0605,-2.0605,-2.0605,-2.0605,-2.0605,-2.0605,-2.0605,-2.0605,-2.0605,-2.0605,-2.0605,-2.0605,-2.0605,-2.0605,-2.0605,-2.0605,-2.0605,-2.0605,-2.0605,-2.0605,-2.0605,-2.0605,-2.037,-1.9512,-1.8691,-1.7978,-1.7471,-1.7656,-1.75,0.0,0.0,0.0,0.0,0.0,-1.4566,0.0,0.0,0.0,0.0,-1.2082,0.0,0.0,-1.0883,-1.0491,-1.0156,-1.0287,-1.059,-1.1002,-1.1611,-1.1919,-1.1946,-1.2171,-1.2438,-1.275,-1.3019,-1.332,-1.3573,-1.3908,-1.4062,-1.4088,-1.4088,-1.3955,-1.3737,-1.3737,-1.361,-1.344,-1.3398,-1.3264,-1.3094,-1.3052,-1.2924,-1.2705,0.0,0.0,0.0,0.0,0.0,0.0,0.0,-2.8485,-2.8882,-2.9248,-2.8343,-2.7516,-2.7151,-2.6648,-2.5955,-2.5105,-2.502,-2.4861,-2.454,-2.4497,-2.4497,-2.4497,-2.4497,-2.4333,-2.3888,-2.3515,-2.2418,0.0,0.0,0.0,0.0,0.0,0.0,0.0,0.0,-1.8625,-1.9298,-2.0325,-2.0697,-2.0611,-2.1243,-2.1448,-2.1398,-2.1398,-2.1398,-2.1318,-2.1064,-2.0967,-2.0928,-2.0693,-2.0605,-2.0605,-2.0605,-2.0605,-2.0605,-2.0605,-2.0605,-2.0605,-2.0605,-2.0605,-2.0605,-2.0605,-2.0605,-2.0605,-2.0605,-2.0605,-2.0429,-1.9785,-1.8984,-1.8252,-1.7842,-1.7686,-1.7549,-1.7275,0.0,0.0,0.0,0.0,0.0,0.0,0.0,0.0,0.0,0.0,0.0,0.0,0.0,-1.0114,-1.0317,-1.002,-1.017,-1.0988,0.0,-1.169,-1.1906,-1.2158,-1.2365,-1.2522,-1.2979,-1.3273,-1.34,-1.3868,-1.4088,-1.4088,-1.4088,-1.4046,-1.3913,-1.3779,-1.3568,-1.3392,-1.3264,-1.3052,-1.2875,-1.2875,-1.279,-1.2705,-2.831,0.0,-2.7508,0.0,-2.8461,-2.8309,-2.9589,-2.9792,-2.9792,-2.9792,-2.8673,-2.7891,-2.7891,-2.7354,-2.6618,-2.5768,-2.5684,-2.5443,-2.4903,-2.4861,-2.4775,-2.4497,-2.4497,0.0,-2.4074,-2.395,-2.3163,-2.1725,-2.1124,0.0,0.0,0.0,0.0,0.0,-1.9468,-1.999,-2.024,-2.1173,-2.1391,-2.1174,-2.1672,-2.1885,-2.1885,-2.1885,-2.1885,-2.1846,-2.1533,-2.1426,-2.1377,-2.1064,-2.0997,-2.0948,-2.0683,-2.0605,-2.0605,-2.0605,-2.0605,-2.0605,-2.0605,-2.0605,-2.0605,-2.0605,-2.0605,-2.0605,-2.0605,-2.0605,-2.0449,-1.9844,-1.9114,-1.8471,-1.8052,-1.7764,-1.7627,-1.7803,0.0,0.0,0.0,-1.5976,0.0,0.0,-1.4024,-1.336,-1.2915,-1.2239,0.0,0.0,0.0,0.0,0.0,0.0,0.0,0.0,0.0,0.0,-1.1899,-1.2158,-1.2392,-1.2572,-1.3006,-1.33,-1.348,-1.3901,-1.4088,-1.4088,-1.4088,-1.4046,-1.3955,-1.3695,-1.3483,-1.3313,-1.3052,-1.2881,-1.2705,-1.2705,-1.2705,-1.2705,-2.8775,-2.8875,-2.9051,-2.9679,-2.9779,-2.9779,-2.9792,-2.9792,-2.9792,-2.9792,-2.9792,-2.9753,-2.9753,-2.9753,-2.9417,-2.8542,-2.8462,-2.7678,-2.5902,-2.5777,-2.5379,0.0,0.0,-2.4497,-2.4487,-2.4105,-2.365,-2.3163,0.0,0.0,-1.9761,0.0,-1.953,-2.0395,-2.1362,-2.1755,-2.1809,-2.2271,-2.2267,-2.1875,-2.1885,-2.1885,-2.1885,-2.1885,-2.1885,-2.1885,-2.1875,-2.1875,-2.1875,-2.1875,-2.1865,-2.1719,-2.0879,-2.0605,-2.0605,-2.0605,-2.0605,-2.0605,-2.0605,-2.0605,-2.0605,-2.0605,-2.0605,-2.0605,-2.0605,-2.0605,-2.0361,-1.9473,-1.8945,-1.8471,-1.8052,-1.8008,-1.7871,-1.7461,0.0,0.0,0.0,0.0,0.0,-1.4762,-1.3515,-1.249,-1.1956,-1.1439,0.0,0.0,0.0,0.0,0.0,0.0,0.0,-1.0975,-1.1591,0.0,-1.1906,-1.2158,-1.2605,-1.32,-1.3206,-1.3514,-1.4075,-1.4082,-1.4088,-1.4088,-1.4088,-1.3955,-1.3695,-1.3483,-1.3313,-1.31,-1.279,-1.2705,-1.2705,-1.2705,-1.2705,-1.2705,-2.9478,-2.9515,-2.9578,-2.9767,-2.9792,-2.9792,-2.9792,-2.9792,-2.9792,-2.9792,-2.9792,-2.9792,-2.9792,-2.8712,-2.7597,0.0,-2.6133,-2.5516,0.0,-2.4893,-2.4786,-2.4497,-2.4497,-2.4497,-2.4497,-2.4363,-2.4105,-2.366,0.0,0.0,0.0,-2.1321,-2.1559,-2.1869,-2.2313,-2.2412,-2.2301,-2.2567,-2.2557,-2.2334,-2.2627,-2.2744,-2.2744,-2.2744,-2.2744,-2.2705,-2.2412,-2.2314,-2.2266,-2.1982,-2.1885,-2.1836,-2.1553,-2.1505,-2.1406,-2.1113,-2.1025,-2.0957,-2.0683,-2.0605,-2.0605,-2.0605,-2.0605,-2.0605,-2.0605,-2.0332,-1.9961,-1.9404,-1.8936,-1.8471,-1.8052,-1.8008,-1.7969,-1.7832,-1.7812,0.0,-1.7161,0.0,-1.5676,-1.4756,-1.3555,-1.2586,-1.1955,-1.1239,0.0,0.0,0.0,0.0,0.0,0.0,0.0,0.0,-1.1598,0.0,-1.1906,-1.2395,-1.2744,-1.2938,-1.3307,-1.3707,-1.4088,-1.4088,-1.4088,-1.4088,-1.4088,-1.4039,-1.3955,-1.3695,-1.3483,-1.3264,-1.3052,-1.2875,-1.2705,-1.2705,-1.2705,-1.2705,-2.9792,-2.9955,-3.0105,-3.0105,-3.0269,-3.0331,-3.0131,-3.0105,-3.003,-2.9817,-2.9792,-2.9792,-2.9792,-2.8502,0.0,-2.7313,-2.6505,-2.5852,-2.5516,-2.5189,-2.4818,-2.4497,-2.4497,-2.4497,-2.4497,-2.4497,0.0,-2.4126,-2.367,-2.3153,-2.2594,-2.2884,-2.3018,-2.3029,-2.3238,-2.3183,-2.2994,-2.3053,-2.2916,-2.2773,-2.2984,-2.3091,-2.3091,-2.3091,-2.3091,-2.3062,-2.2799,-2.2744,-2.2705,-2.2441,-2.2353,-2.2353,-2.2353,-2.2353,-2.2246,-2.165,-2.1475,-2.1416,-2.1182,-2.0937,-2.082,-2.082,-2.0723,-2.0605,-2.0605,-2.0352,-2.0039,-1.9609,-1.918,-1.8715,-1.8286,-1.8081,-1.8008,-1.8008,-1.8008,-1.7775,-1.7178,0.0,-1.5419,0.0,0.0,0.0,0.0,-1.113,-1.109,0.0,0.0,0.0,0.0,0.0,-1.1189,-1.1343,-1.1784,-1.212,-1.2234,-1.2603,-1.2898,-1.3093,-1.3581,-1.3908,-1.4088,-1.4088,-1.4088,-1.4088,-1.4088,-1.4088,-1.4088,-1.3822,-1.3652,-1.3483,-1.3222,-1.3009,-1.2839,-1.2747,-1.2705,-1.2705,-2.9905,-3.0319,-3.067,-3.067,-3.1072,-3.1223,-3.0746,-3.067,-3.0482,-2.9967,-2.9905,-2.9892,-2.9854,-2.914,-2.8958,-2.9714,0.0,0.0,-2.7151,-2.6276,-2.5421,-2.4615,-2.454,-2.4497,-2.4497,-2.4497,-2.4497,-2.4497,-2.4126,-2.3929,-2.3929,-2.3929,-2.3929,-2.3939,-2.4098,-2.4024,-2.3797,-2.358,-2.3319,-2.3091,-2.3091,-2.3091,-2.3091,-2.3091,-2.3091,-2.3091,-2.3091,-2.3091,-2.3091,-2.3091,-2.3091,-2.3091,-2.3091,-2.3091,-2.2935,-2.2168,-2.1934,-2.1924,-2.1894,-2.1592,-2.1229,-2.12,-2.0898,-2.0605,-2.0605,-2.0605,-2.0478,-2.0,-1.96,-1.9189,-1.8685,-1.8286,-1.8047,-1.8018,-1.7974,-1.7623,-1.6707,-1.5811,-1.4774,0.0,0.0,0.0,-1.0646,-1.107,-1.1203,0.0,0.0,0.0,0.0,0.0,-1.1303,-1.1886,-1.2171,-1.2465,-1.2784,-1.2831,-1.3139,-1.3633,-1.3955,-1.4088,-1.4088,-1.4088,-1.4088,-1.4088,-1.4088,-1.4088,-1.4088,-1.3828,-1.3737,-1.3652,-1.3264,-1.31,-1.3052,-1.279,-1.2705,-1.2705,0.0,0.0,-3.121,-3.121,-3.1311,-3.1348,-3.1223,-3.121,-3.116,-3.1035,-3.1009,-3.0859,-3.047,-3.0209,-3.0034,-2.9829,-2.8343,-2.7354,-2.711,-2.6276,-2.5704,-2.5505,-2.4861,-2.4497,-2.4497,-2.4497,-2.4497,-2.4497,-2.4394,-2.4342,-2.4342,-2.4342,-2.4342,-2.4342,-2.4016,-2.3841,-2.3754,-2.3363,-2.3144,-2.3091,-2.3091,-2.3091,-2.3091,-2.3091,-2.3091,-2.3091,-2.3091,-2.3091,-2.3091,-2.3091,-2.3091,-2.3091,-2.3091,-2.3091,-2.2994,-2.2519,-2.2363,-2.2295,-2.1973,-2.1807,-2.165,-2.1278,-2.0898,-2.0605,-2.0605,-2.0605,-2.0478,-2.0,-1.9834,-1.9531,-1.8744,-1.852,-1.8354,-1.8057,-1.7545,-1.7019,-1.6638,-1.5557,-1.441,0.0,-1.2702,-1.2,-1.1272,-1.1329,-1.135,0.0,0.0,-1.1597,-1.1757,-1.1739,-1.1759,-1.1899,-1.2409,-1.2717,-1.2784,-1.32,-1.3621,-1.3981,-1.4055,-1.4088,-1.4088,-1.4088,-1.4088,-1.4088,-1.4088,-1.4088,-1.4088,-1.4046,-1.3864,-1.3695,-1.344,-1.3222,-1.3052,-1.279,-1.2705,-1.2705,-3.1386,-3.1599,-3.1763,-3.1763,-3.1989,-3.2064,-3.18,-3.1763,-3.1675,-3.1424,-3.1386,-3.1286,-3.0997,-3.0972,-3.0846,-3.0545,-2.8819,-2.7718,-2.7718,-2.6905,-2.6235,-2.583,-2.5348,-2.4903,-2.4497,-2.4497,-2.4497,-2.4497,-2.4497,-2.4497,-2.4497,-2.4497,-2.4497,-2.4497,-2.4013,-2.3797,-2.3754,-2.3319,-2.3091,-2.3091,-2.3091,-2.3091,-2.3091,-2.3091,-2.3091,-2.3091,-2.3091,-2.3091,-2.3091,-2.3091,-2.3091,-2.3091,-2.3091,-2.3091,-2.3052,-2.2818,-2.275,-2.2711,-2.2519,-2.2314,-2.207,-2.1641,-2.1201,-2.0869,-2.0869,-2.0752,-2.0537,-2.0264,-2.0049,-1.9775,-1.927,-1.8861,-1.8529,-1.8295,-1.7772,-1.7226,-1.6673,-1.5454,-1.4318,-1.3399,-1.2495,-1.1799,-1.143,-1.155,-1.163,-1.163,-1.175,0.0,-1.2058,-1.2234,-1.2308,-1.2308,-1.2616,-1.2918,-1.3153,-1.3614,-1.3928,-1.4088,-1.4088,-1.4088,-1.4088,-1.4088,-1.4088,-1.4088,-1.4088,-1.4088,-1.4088,-1.4088,-1.3997,-1.387,-1.361,-1.3398,-1.3222,-1.2966,-1.279,-1.2705,-3.165,-3.2014,-3.234,-3.234,-3.2754,-3.2918,-3.2416,-3.234,-3.2177,-3.1712,-3.165,-3.1612,-3.1524,-3.1512,-3.1486,-3.1399,-2.988,-2.8866,-2.8622,-2.7754,-2.682,-2.583,-2.5663,-2.5263,-2.4497,-2.4497,-2.4497,-2.4497,-2.4497,-2.4497,-2.4497,-2.4497,-2.4497,-2.4497,-2.4013,-2.3797,-2.3754,-2.3319,-2.3091,-2.3091,-2.3091,-2.3091,-2.3091,-2.3091,-2.3091,-2.3091,-2.3091,-2.3091,-2.3091,-2.3091,-2.3091,-2.3091,-2.3091,-2.3091,-2.3091,-2.3091,-2.3091,-2.3091,-2.3091,-2.2789,-2.2432,-2.207,-2.165,-2.1278,-2.121,-2.0937,-2.0683,-2.0615,-2.0273,-1.999,-1.9922,-1.9231,-1.8676,-1.8617,-1.8177,-1.751,-1.6524,0.0,-1.4218,-1.3264,-1.2193,-1.1522,-1.1522,-1.1784,-1.1986,-1.2033,-1.2231,-1.2392,-1.2438,-1.2717,-1.2878,-1.2918,-1.2918,-1.3146,-1.3666,-1.3961,-1.4088,-1.4088,-1.4088,-1.4088,-1.4088,-1.4088,-1.4088,-1.4088,-1.4088,-1.4088,-1.4088,-1.4088,-1.4088,-1.4088,-1.3779,-1.3568,-1.3398,-1.3185,-1.2924,-1.2705,-3.286,-3.288,-3.2943,-3.2943,-3.3061,-3.3086,-3.2955,-3.2943,-3.2918,-3.2872,-3.286,-3.2629,-3.2139,-3.2089,-3.1901,-3.1436,-3.1101,-3.0437,-2.9241,-2.8345,-2.7235,-2.5841,-2.5094,-2.4658,-2.4497,-2.4497,-2.4497,-2.4497,-2.4497,-2.4497,-2.4497,-2.4497,-2.4497,-2.4497,-2.4013,-2.3797,-2.3754,-2.3319,-2.3091,-2.3091,-2.3091,-2.3091,-2.3091,-2.3091,-2.3091,-2.3091,-2.3091,-2.3091,-2.3091,-2.3091,-2.3091,-2.3091,-2.3091,-2.3091,-2.3091,-2.3091,-2.3091,-2.3091,-2.3091,-2.2789,-2.25,-2.2432,-2.21,-2.1689,-2.1278,-2.1142,-2.1025,-2.0683,-2.0546,-2.0352,-1.998,-1.9512,-1.9072,-1.8656,-1.7742,-1.6689,-1.5552,0.0,-1.3706,-1.259,-1.2264,-1.2164,-1.2164,-1.2204,-1.2375,-1.263,-1.269,-1.2831,-1.3053,-1.3113,-1.3253,-1.3453,-1.3467,-1.3667,-1.4015,-1.4062,-1.4088,-1.4088,-1.4088,-1.4088,-1.4088,-1.4088,-1.4088,-1.4088,-1.4088,-1.4088,-1.4088,-1.4088,-1.4088,-1.4088,-1.3779,-1.3568,-1.3398,-1.3185,-1.2924,-1.2705,-3.3124,-3.3124,-3.3124,-3.3124,-3.3124,-3.3124,-3.3124,-3.3124,-3.3124,-3.3124,-3.3124,-3.2968,-3.2704,-3.2679,-3.2579,-3.2315,-3.2303,-3.1717,-3.026,-2.9499,-2.8556,-2.7417,-2.6444,-2.5621,-2.4869,-2.4621,-2.4497,-2.4497,-2.4497,-2.4497,-2.4497,-2.4497,-2.4497,-2.4497,-2.4013,-2.3797,-2.3754,-2.3319,-2.3091,-2.3091,-2.3091,-2.3091,-2.3091,-2.3091,-2.3091,-2.3091,-2.3091,-2.3091,-2.3091,-2.3091,-2.3091,-2.3091,-2.3091,-2.3091,-2.3091,-2.3091,-2.3091,-2.3091,-2.3091,-2.2955,-2.2808,-2.2808,-2.2539,-2.2168,-2.1973,-2.1522,-2.1132,-2.0967,-2.0732,-2.0546,-2.0303,-1.9912,-1.9561,-1.9355,-1.8414,-1.7352,-1.6296,-1.5315,-1.4301,-1.3273,-1.2951,-1.2792,-1.2792,-1.2792,-1.2846,-1.2986,-1.3038,-1.306,-1.32,-1.336,-1.3467,-1.36,-1.3801,-1.3948,-1.4088,-1.4088,-1.4088,-1.4088,-1.4088,-1.4088,-1.4088,-1.4088,-1.4088,-1.4088,-1.4088,-1.4088,-1.4088,-1.4088,-1.4088,-1.4088,-1.3955,-1.3695,-1.3392,-1.3307,-1.3009,-1.2705,-3.3124,-3.3124,-3.3124,-3.3124,-3.3124,-3.3124,-3.3124,-3.3124,-3.3124,-3.3124,-3.3124,-3.3124,-3.3124,-3.3124,-3.3124,-3.3124,-3.3124,-3.2623,-3.1479,-3.0767,-2.978,-2.845,-2.7448,-2.6423,-2.5388,-2.4993,-2.4807,-2.4807,-2.4704,-2.4662,-2.4652,-2.4549,-2.4454,-2.4411,-2.397,-2.3754,-2.3711,-2.3276,-2.3091,-2.3091,-2.3091,-2.3091,-2.3091,-2.3091,-2.3091,-2.3091,-2.3091,-2.3091,-2.3091,-2.3091,-2.3091,-2.3091,-2.3091,-2.3091,-2.3091,-2.3091,-2.3091,-2.3091,-2.3091,-2.3091,-2.3091,-2.3091,-2.2847,-2.2627,-2.2539,-2.196,-2.1463,-2.1366,-2.1035,-2.0723,-2.0723,-2.0273,-1.9912,-1.9912,0.0,-1.8182,-1.6979,-1.6054,-1.5058,-1.3865,-1.3411,-1.3213,-1.3213,-1.3213,-1.324,-1.3307,-1.3273,-1.334,-1.3414,-1.358,-1.3706,-1.3706,-1.3968,-1.4088,-1.4088,-1.4088,-1.4088,-1.4088,-1.4088,-1.4088,-1.4088,-1.4088,-1.4088,-1.4088,-1.4088,-1.4088,-1.4088,-1.4088,-1.4088,-1.4088,-1.4088,-1.3828,-1.3483,-1.3434,-1.3137,-1.279,-3.3124,-3.3124,-3.3124,-3.3124,-3.3124,-3.3124,-3.3124,-3.3124,-3.3124,-3.3124,-3.3124,-3.3124,-3.3124,-3.3124,-3.3124,-3.3124,-3.3124,-3.3056,-3.2932,-3.2023,-3.0273,-2.7591,-2.6538,-2.5955,-2.5834,-2.5792,-2.5782,-2.5782,-2.5378,-2.5137,-2.5127,-2.4693,-2.4411,-2.4206,-2.3937,-2.3711,-2.3493,-2.3232,-2.3091,-2.3091,-2.3091,-2.3091,-2.3091,-2.3091,-2.3091,-2.3091,-2.3091,-2.3091,-2.3091,-2.3091,-2.3091,-2.3091,-2.3091,-2.3091,-2.3091,-2.3091,-2.3091,-2.3091,-2.3091,-2.3091,-2.3091,-2.3091,-2.3071,-2.2945,-2.2555,-2.2461,-2.2305,-2.1924,-2.1494,-2.1142,-2.1142,-2.045,-1.9912,-1.9912,0.0,0.0,-1.6527,-1.6187,-1.5433,-1.3482,-1.3239,-1.3213,-1.3213,-1.3213,-1.328,-1.3553,-1.3573,-1.3693,-1.4008,-1.4041,-1.4055,-1.4055,-1.4075,-1.4088,-1.4088,-1.4088,-1.4088,-1.4088,-1.4088,-1.4088,-1.4088,-1.4088,-1.4088,-1.4088,-1.4088,-1.4088,-1.4088,-1.4088,-1.4088,-1.4088,-1.4088,-1.3913,-1.3652,-1.3483,-1.327,-1.3052,-3.3124,-3.3124,-3.3124,-3.3124,-3.3124,-3.3124,-3.3124,-3.3124,-3.3124,-3.3124,-3.3124,-3.3124,-3.3124,-3.3124,-3.3124,-3.3124,-3.2537,-3.2164,-3.2164,-3.1258,-2.9998,-2.8291,-2.6996,-2.6345,-2.6345,-2.6065,-2.5875,-2.5875,-2.5709,-2.5627,-2.5627,-2.5451,-2.5189,-2.48,-2.4395,-2.4015,-2.3667,-2.3276,-2.3091,-2.3091,-2.3091,-2.3091,-2.3091,-2.3091,-2.3091,-2.3091,-2.3091,-2.3091,-2.3091,-2.3091,-2.3091,-2.3091,-2.3091,-2.3091,-2.3091,-2.3091,-2.3091,-2.3091,-2.3091,-2.3091,-2.3091,-2.3091,-2.3091,-2.3052,-2.2896,-2.2705,-2.2471,-2.2305,-2.1934,-2.1553,-2.1239,-2.0917,-2.0596,-2.0361,0.0,-1.8873,-1.6914,-1.6458,-1.5607,-1.3669,-1.3641,-1.3754,-1.3754,-1.3754,-1.3801,-1.3908,-1.3915,-1.3968,-1.4082,-1.4088,-1.4088,-1.4088,-1.4088,-1.4088,-1.4088,-1.4088,-1.4088,-1.4088,-1.4088,-1.4088,-1.4088,-1.4088,-1.4088,-1.4088,-1.4088,-1.4088,-1.4088,-1.4088,-1.4088,-1.4088,-1.4088,-1.3955,-1.3695,-1.361,-1.3398,-1.3009,-3.3124,-3.3124,-3.3124,-3.3124,-3.3124,-3.3124,-3.3124,-3.3124,-3.3124,-3.3124,-3.3124,-3.3124,-3.3124,-3.3124,-3.3124,-3.3124,-3.2164,-3.1581,-3.1581,-3.0441,-2.9395,-2.8724,-2.7503,-2.6832,-2.6832,-2.6521,-2.6356,-2.6356,-2.621,-2.6138,-2.6138,-2.5993,-2.5675,-2.5317,-2.4905,-2.45,-2.4077,-2.3668,-2.35,-2.35,-2.35,-2.3413,-2.3305,-2.3305,-2.3218,-2.3091,-2.3091,-2.3091,-2.3091,-2.3091,-2.3091,-2.3091,-2.3091,-2.3091,-2.3091,-2.3091,-2.3091,-2.3091,-2.3091,-2.3091,-2.3091,-2.3091,-2.3091,-2.3091,-2.3091,-2.2877,-2.2619,-2.2308,-2.2152,-2.1909,-2.1269,-2.1122,-2.1003,-2.0742,-1.9946,-1.8793,-1.7144,-1.6517,-1.5569,-1.3939,-1.3961,-1.4088,-1.4088,-1.4088,-1.4088,-1.4088,-1.4088,-1.4088,-1.4088,-1.4088,-1.4088,-1.4088,-1.4088,-1.4088,-1.4088,-1.4088,-1.4088,-1.4088,-1.4088,-1.4088,-1.4088,-1.4088,-1.4088,-1.4088,-1.4088,-1.4088,-1.4088,-1.4088,-1.4088,-1.4088,-1.4088,-1.3997,-1.3822,-1.3737,-1.3525,-1.3137,-3.3124,-3.3124,-3.3124,-3.3124,-3.3124,-3.3124,-3.3124,-3.3124,-3.3124,-3.3124,-3.3124,-3.3124,-3.3124,-3.3124,-3.3124,-3.3124,-3.2164,-3.1581,-3.1581,-2.9761,-2.8678,-2.8678,-2.7809,-2.7309,-2.7309,-2.7309,-2.7309,-2.7309,-2.6843,-2.6625,-2.6615,-2.6148,-2.5815,-2.5619,-2.5336,-2.5041,-2.4802,-2.4506,-2.4414,-2.4414,-2.4414,-2.417,-2.3799,-2.3789,-2.3525,-2.3101,-2.3091,-2.3091,-2.3091,-2.3091,-2.3091,-2.3091,-2.3091,-2.3091,-2.3091,-2.3091,-2.3091,-2.3091,-2.3091,-2.3091,-2.3091,-2.3091,-2.3091,-2.3091,-2.3091,-2.3091,-2.2818,-2.1872,-2.2144,-2.2211,-2.1238,-2.1,-2.0889,-2.0889,-1.9589,-1.8238,-1.7123,-1.6232,-1.5304,-1.4208,-1.4088,-1.4088,-1.4088,-1.4088,-1.4088,-1.4088,-1.4088,-1.4088,-1.4088,-1.4088,-1.4088,-1.4088,-1.4088,-1.4088,-1.4088,-1.4088,-1.4088,-1.4088,-1.4088,-1.4088,-1.4088,-1.4088,-1.4088,-1.4088,-1.4088,-1.4088,-1.4088,-1.4088,-1.4088,-1.4088,-1.4088,-1.4088,-1.4088,-1.3779,-1.3695,-1.3519,-3.3124,-3.3124,-3.3124,-3.3124,-3.3124,-3.3124,-3.3124,-3.3124,-3.3124,-3.3124,-3.3124,-3.3124,-3.3124,-3.3124,-3.3124,-3.3124,-3.1569,-3.0034,-2.8667,-2.8034,-2.7715,-2.7715,-2.7441,-2.7309,-2.7309,-2.7309,-2.7309,-2.7309,-2.7164,-2.7102,-2.7102,-2.6957,-2.6682,-2.628,-2.5817,-2.5424,-2.5041,-2.4608,-2.4414,-2.4414,-2.4414,-2.4346,-2.4199,-2.3906,-2.3711,-2.3555,-2.3208,-2.3091,-2.3091,-2.3091,-2.3091,-2.3091,-2.3091,-2.3091,-2.3091,-2.3091,-2.3091,-2.3091,-2.3091,-2.3091,-2.3091,-2.3091,-2.3091,-2.3091,-2.3091,-2.3013,-2.2652,-2.1872,-2.1692,-2.1341,-2.0272,-1.9878,-1.9625,-1.9321,-1.876,-1.7876,-1.6526,-1.6117,-1.5501,-1.4228,-1.4088,-1.4088,-1.4088,-1.4088,-1.4088,-1.4088,-1.4088,-1.4088,-1.4088,-1.4088,-1.4088,-1.4088,-1.4088,-1.4088,-1.4088,-1.4088,-1.4088,-1.4088,-1.4088,-1.4088,-1.4088,-1.4088,-1.4088,-1.4088,-1.4088,-1.4088,-1.4088,-1.4088,-1.4088,-1.4088,-1.4088,-1.4088,-1.4088,-1.3997,-1.387,-1.3561,-3.3124,-3.3124,-3.3124,-3.3124,-3.3124,-3.3124,-3.3124,-3.3124,-3.3124,-3.3124,-3.3124,-3.3124,-3.3124,-3.3124,-3.3124,-3.3124,-3.1303,-2.9349,-2.7441,-2.7309,-2.7309,-2.7309,-2.7309,-2.7309,-2.7309,-2.7309,-2.7309,-2.7309,-2.7309,-2.7309,-2.7309,-2.7309,-2.7107,-2.6707,-2.6283,-2.5896,-2.5515,-2.5083,-2.4894,-2.4894,-2.4894,-2.4834,-2.4648,-2.4394,-2.4189,-2.4004,-2.374,-2.3598,-2.3578,-2.3447,-2.3237,-2.3091,-2.3091,-2.3091,-2.3091,-2.3091,-2.3091,-2.3091,-2.3091,-2.3091,-2.3091,-2.3091,-2.3091,-2.3091,-2.3091,-2.2925,-2.2476,-2.1248,-2.1105,-2.0712,-1.9224,-1.9006,-1.8966,-1.8627,-1.7993,-1.7226,-1.6334,-1.5872,-1.5295,-1.4374,-1.4255,-1.4215,-1.4095,-1.4088,-1.4088,-1.4088,-1.4088,-1.4088,-1.4088,-1.4088,-1.4088,-1.4088,-1.4088,-1.4088,-1.4088,-1.4088,-1.4088,-1.4088,-1.4088,-1.4088,-1.4088,-1.4088,-1.4088,-1.4088,-1.4088,-1.4088,-1.4088,-1.4088,-1.4088,-1.4088,-1.4088,-1.4088,-1.4088,-1.4088,-1.3737,-1.3173,-3.3124,-3.3124,-3.3124,-3.3124,-3.3124,-3.3124,-3.3124,-3.3124,-3.3124,-3.3124,-3.3124,-3.3124,-3.3124,-3.3124,-3.3124,-3.3124,-3.1303,-2.9349,-2.7441,-2.7309,-2.7309,-2.7309,-2.7309,-2.7309,-2.7309,-2.7309,-2.7309,-2.7309,-2.7309,-2.7309,-2.7309,-2.7309,-2.7177,-2.69,-2.6602,-2.6342,-2.6091,-2.582,-2.5693,-2.5693,-2.5693,-2.5488,-2.5174,-2.5135,-2.4814,-2.4473,-2.4434,-2.4414,-2.4355,-2.3975,-2.3555,-2.3149,-2.3149,-2.312,-2.3091,-2.3091,-2.3091,-2.3091,-2.3091,-2.3091,-2.3091,-2.3091,-2.3091,-2.3091,-2.3091,-2.2925,-2.2211,-2.0303,-2.0421,-2.0223,-1.8265,-1.8283,-1.8572,-1.8348,-1.7294,-1.6477,-1.6271,-1.5528,-1.489,-1.4596,-1.4563,-1.4456,-1.4195,-1.4162,-1.4162,-1.4162,-1.4142,-1.4135,-1.4162,-1.4142,-1.4135,-1.4162,-1.4162,-1.4162,-1.4162,-1.4162,-1.4135,-1.4088,-1.4088,-1.4088,-1.4088,-1.4088,-1.4088,-1.4088,-1.4088,-1.4088,-1.4088,-1.4088,-1.4088,-1.4088,-1.4088,-1.4088,-1.4088,-1.4088,-1.3525,-1.2528,-3.3124,-3.3124,-3.3124,-3.3124,-3.3124,-3.3124,-3.3124,-3.3124,-3.3124,-3.3124,-3.3124,-3.3124,-3.3124,-3.3124,-3.3124,-3.3124,-3.1303,-2.9349,-2.7441,-2.7309,-2.7309,-2.7309,-2.7309,-2.7309,-2.7309,-2.7309,-2.7309,-2.7309,-2.7309,-2.7309,-2.7309,-2.7309,-2.7177,-2.69,-2.6602,-2.6342,-2.6091,-2.582,-2.5693,-2.5693,-2.5693,-2.5635,-2.5557,-2.5205,-2.5057,-2.4883,-2.4541,-2.4414,-2.4404,-2.4316,-2.3994,-2.3652,-2.3652,-2.3418,-2.3091,-2.3091,-2.3091,-2.3091,-2.3091,-2.3091,-2.3091,-2.3091,-2.3091,-2.3091,-2.3091,-2.2784,-2.198,-2.0257,-1.9749,-1.9055,-1.7225,-1.6854,-1.6764,-1.6717,-1.6287,-1.5877,-1.5645,-1.5435,-1.5197,-1.4948,-1.4914,-1.4888,-1.4827,-1.4821,-1.4821,-1.4821,-1.4556,-1.4529,-1.4807,-1.4549,-1.4536,-1.4814,-1.4821,-1.4821,-1.4821,-1.4821,-1.4586,-1.4088,-1.4088,-1.4088,-1.4088,-1.4088,-1.4088,-1.4088,-1.4088,-1.4088,-1.4088,-1.4088,-1.4088,-1.4088,-1.4088,-1.4088,-1.4088,-1.4088,-1.3525,-1.2443,-3.3124,-3.3124,-3.3124,-3.3124,-3.3124,-3.3124,-3.3124,-3.3124,-3.3124,-3.3124,-3.3124,-3.3124,-3.3124,-3.3124,-3.2896,-3.2438,-3.1036,-2.9578,-2.8081,-2.7536,-2.7309,-2.7309,-2.7309,-2.7309,-2.7309,-2.7309,-2.7309,-2.7309,-2.7309,-2.7309,-2.7309,-2.7309,-2.7071,-2.6699,-2.6544,-2.6255,-2.5917,-2.5781,-2.5693,-2.5693,-2.5693,-2.5693,-2.5664,-2.5478,-2.5391,-2.5352,-2.5127,-2.4912,-2.4727,-2.4727,-2.4443,-2.4053,-2.3857,-2.3633,-2.3408,-2.3159,-2.3091,-2.3091,-2.3091,-2.3091,-2.3091,-2.3091,-2.3091,-2.3091,-2.3091,-2.275,-2.1891,-2.0059,-1.933,-1.8419,-1.6574,-1.6218,-1.6177,-1.6028,-1.5981,-1.588,-1.5625,-1.5605,-1.5491,-1.5204,-1.517,-1.5162,-1.5022,-1.5008,-1.5008,-1.5008,-1.4823,-1.4803,-1.5001,-1.4816,-1.4803,-1.5001,-1.5008,-1.5008,-1.5008,-1.5008,-1.4854,-1.4546,-1.4546,-1.4546,-1.4546,-1.4546,-1.4546,-1.4546,-1.4546,-1.4546,-1.4539,-1.4355,-1.4295,-1.4282,-1.4142,-1.4088,-1.4046,-1.361,-1.2528,-1.1154,-3.3124,-3.3124,-3.3124,-3.3124,-3.3124,-3.3124,-3.3124,-3.3124,-3.3124,-3.3124,-3.3124,-3.3124,-3.3124,-3.3156,-3.2885,-3.1978,-3.1025,-3.0021,-2.9,-2.8042,-2.7537,-2.7537,-2.7465,-2.7423,-2.7423,-2.7351,-2.7309,-2.7309,-2.7309,-2.7309,-2.7309,-2.7262,-2.6976,-2.6496,-2.6448,-2.6169,-2.5693,-2.5693,-2.5693,-2.5693,-2.5693,-2.5693,-2.5693,-2.5693,-2.5693,-2.5693,-2.5693,-2.5498,-2.5185,-2.5185,-2.4893,-2.4463,-2.4121,-2.3906,-2.3721,-2.3315,-2.3149,-2.3091,-2.3091,-2.3091,-2.3047,-2.2916,-2.2872,-2.2872,-2.2872,-2.252,-2.165,-1.9861,-1.901,-1.7963,-1.615,-1.5974,-1.6076,-1.5832,-1.5981,-1.6028,-1.5832,-1.5784,-1.5738,-1.5498,-1.5471,-1.5378,-1.5182,-1.5156,-1.5156,-1.5156,-1.5109,-1.5109,-1.511,-1.5109,-1.5109,-1.5156,-1.5156,-1.5156,-1.5156,-1.5156,-1.5156,-1.5156,-1.5156,-1.5109,-1.5008,-1.5008,-1.5008,-1.5008,-1.5008,-1.5008,-1.4988,-1.4643,-1.4522,-1.4489,-1.4202,-1.4088,-1.3962,-1.2875,-1.137,-0.9772,-3.3124,-3.3124,-3.3124,-3.3124,-3.3124,-3.3124,-3.3124,-3.3124,-3.3124,-3.3124,-3.3124,-3.3124,-3.3124,-3.3508,-3.3605,-3.3119,-3.209,-3.1088,-3.0081,-2.8993,-2.8431,-2.8431,-2.8048,-2.7831,-2.7831,-2.7458,-2.7309,-2.7309,-2.7309,-2.7309,-2.7309,-2.7081,-2.6794,-2.6496,-2.6245,-2.6014,-2.5693,-2.5693,-2.5693,-2.5693,-2.5693,-2.5693,-2.5693,-2.5693,-2.5693,-2.5693,-2.5693,-2.5654,-2.5596,-2.5596,-2.5352,-2.5018,-2.4959,-2.4385,-2.3779,-2.3721,-2.3437,-2.3091,-2.3091,-2.3091,-2.2916,-2.2094,-2.1882,-2.1882,-2.1882,-2.1507,-2.0863,-1.9716,-1.8411,-1.7138,-1.6015,-1.5832,-1.5832,-1.5832,-1.5832,-1.5832,-1.5832,-1.5784,-1.5764,-1.5724,-1.5772,-1.5752,-1.5718,-1.5712,-1.5712,-1.5712,-1.5478,-1.5444,-1.5698,-1.5478,-1.5451,-1.5705,-1.5712,-1.5712,-1.5712,-1.5712,-1.5712,-1.5712,-1.5712,-1.5451,-1.5008,-1.5008,-1.5008,-1.5008,-1.5008,-1.5008,-1.4988,-1.4643,-1.4522,-1.4489,-1.4202,-1.4088,-1.387,-1.2143,-1.0809,-0.9772,-3.3124,-3.3124,-3.3124,-3.3124,-3.3124,-3.3124,-3.3124,-3.3124,-3.3124,-3.3124,-3.3345,-3.3533,-3.3533,-3.3496,-3.3393,-3.3198,-3.1733,-3.0592,-3.0155,-2.9183,-2.8618,-2.8618,-2.8421,-2.8307,-2.8307,-2.7862,-2.7634,-2.7634,-2.7423,-2.7309,-2.7309,-2.7044,-2.6747,-2.6496,-2.6197,-2.5965,-2.5693,-2.5693,-2.5693,-2.5693,-2.5693,-2.5693,-2.5693,-2.5693,-2.5693,-2.5693,-2.5693,-2.5693,-2.5693,-2.5693,-2.5605,-2.54,-2.5194,-2.4851,-2.4414,-2.3926,-2.3652,-2.3447,-2.3159,-2.3091,-2.2862,-2.1917,-2.1695,-2.1561,-2.1006,-2.0042,-1.936,-1.9497,-1.878,-1.7638,-1.6109,-1.5784,-1.5784,-1.5784,-1.5784,-1.5784,-1.5784,-1.5784,-1.5784,-1.5784,-1.5784,-1.5784,-1.5784,-1.5784,-1.5784,-1.5784,-1.5712,-1.5698,-1.5771,-1.5705,-1.5698,-1.5778,-1.5784,-1.5784,-1.5784,-1.5784,-1.5784,-1.5784,-1.5784,-1.5698,-1.5444,-1.5444,-1.5444,-1.5444,-1.5444,-1.5357,-1.5184,-1.489,-1.4669,-1.4489,-1.4202,-1.3483,-1.2448,-1.1628,-1.0419,-0.913]},{"header":{"parameterUnit":"m.s-1","parameterCategory":1,"la1":30.6,"la2":28.766,"lo1":-90.7593,"lo2":-88.6598,"dy":0.0162,"dx":0.0183,"nx":116,"ny":114,"refTime":"2024-05-26T06:00:00:Z","depth":0,"parameterNumber":3,"parameterNumberName":"V-component_of_WINDS"},"data":[0.0,0.0,0.0,0.0,0.0,0.0,0.0,0.0,0.0,0.0,0.0,0.0,0.0,0.0,0.0,0.0,0.0,0.0,0.0,0.0,0.0,0.0,0.0,0.0,0.0,0.0,0.0,0.0,0.0,0.0,0.0,0.0,0.0,0.0,0.0,0.0,0.0,0.0,0.0,0.0,0.0,0.0,0.0,0.0,0.0,0.0,0.0,0.0,0.0,0.0,0.0,0.0,0.0,0.0,0.0,0.0,0.0,0.0,0.0,0.0,0.0,0.0,0.0,0.0,0.0,0.0,0.0,0.0,0.0,0.0,0.0,0.0,0.0,0.0,0.0,0.0,0.0,0.0,0.0,0.0,0.0,0.0,0.0,0.0,0.0,0.0,0.0,0.0,0.0,0.0,0.0,0.0,0.0,0.0,0.0,0.0,0.0,0.0,0.0,0.0,0.0,0.0,0.0,0.0,0.0,0.0,0.0,0.0,0.0,0.0,0.0,0.0,0.0,0.0,0.0,0.0,0.0,0.0,0.0,0.0,0.0,0.0,0.0,0.0,0.0,0.0,0.0,0.0,0.0,0.0,0.0,0.0,0.0,0.0,0.0,0.0,0.0,0.0,0.0,0.0,0.0,0.0,0.0,0.0,0.0,0.0,0.0,0.0,0.0,0.0,0.0,0.0,0.0,0.0,0.0,0.0,0.0,0.0,0.0,0.0,0.0,0.0,0.0,0.0,0.0,0.0,0.0,0.0,0.0,0.0,0.0,0.0,0.0,0.0,0.0,0.0,0.0,0.0,0.0,0.0,0.0,0.0,0.0,0.0,0.0,0.0,0.0,0.0,0.0,0.0,0.0,0.0,0.0,0.0,0.0,0.0,0.0,0.0,0.0,0.0,0.0,0.0,0.0,0.0,0.0,0.0,0.0,0.0,0.0,0.0,0.0,0.0,0.0,0.0,0.0,0.0,0.0,0.0,0.0,0.0,0.0,0.0,0.0,0.0,0.0,0.0,0.0,0.0,0.0,0.0,0.0,0.0,0.0,0.0,0.0,0.0,0.0,0.0,0.0,0.0,0.0,0.0,0.0,0.0,0.0,0.0,0.0,0.0,0.0,0.0,0.0,0.0,0.0,0.0,0.0,0.0,0.0,0.0,0.0,0.0,0.0,0.0,0.0,0.0,0.0,0.0,0.0,0.0,0.0,0.0,0.0,0.0,0.0,0.0,0.0,0.0,0.0,0.0,0.0,0.0,0.0,0.0,0.0,0.0,0.0,0.0,0.0,0.0,0.0,0.0,0.0,0.0,0.0,0.0,0.0,0.0,0.0,0.0,0.0,0.0,0.0,0.0,0.0,0.0,0.0,0.0,0.0,0.0,0.0,0.0,0.0,0.0,0.0,0.0,0.0,0.0,0.0,0.0,0.0,0.0,0.0,0.0,0.0,0.0,0.0,0.0,0.0,0.0,0.0,0.0,0.0,0.0,0.0,0.0,0.0,0.0,0.0,0.0,0.0,0.0,0.0,0.0,0.0,0.0,0.0,0.0,0.0,0.0,0.0,0.0,0.0,0.0,0.0,0.0,0.0,0.0,0.0,0.0,0.0,0.0,0.0,0.0,0.0,0.0,0.0,0.0,0.0,0.0,0.0,0.0,0.0,0.0,0.0,0.0,0.0,0.0,0.0,0.0,0.0,0.0,0.0,0.0,0.0,0.0,0.0,0.0,0.0,0.0,0.0,0.0,0.0,0.0,0.0,0.0,0.0,0.0,0.0,0.0,0.0,0.0,0.0,0.0,0.0,0.0,0.0,0.0,0.0,0.0,0.0,0.0,0.0,0.0,0.0,0.0,0.0,0.0,0.0,0.0,0.0,0.0,0.0,0.0,0.0,0.0,0.0,0.0,0.0,0.0,0.0,0.0,0.0,0.0,0.0,0.0,0.0,0.0,0.0,0.0,0.0,0.0,0.0,0.0,0.0,0.0,0.0,0.0,0.0,0.0,0.0,0.0,0.0,0.0,0.0,0.0,0.0,0.0,0.0,0.0,0.0,0.0,0.0,0.0,0.0,0.0,0.0,0.0,0.0,0.0,0.0,0.0,0.0,0.0,0.0,0.0,0.0,0.0,0.0,0.0,0.0,0.0,0.0,0.0,0.0,0.0,0.0,0.0,0.0,0.0,0.0,0.0,0.0,0.0,0.0,0.0,0.0,0.0,0.0,0.0,0.0,0.0,0.0,0.0,0.0,0.0,0.0,0.0,0.0,0.0,0.0,0.0,0.0,0.0,0.0,0.0,0.0,0.0,0.0,0.0,0.0,0.0,0.0,0.0,0.0,0.0,0.0,0.0,0.0,0.0,0.0,0.0,0.0,0.0,0.0,0.0,0.0,0.0,0.0,0.0,0.0,0.0,0.0,0.0,0.0,0.0,0.0,0.0,0.0,0.0,0.0,0.0,0.0,0.0,0.0,0.0,0.0,0.0,0.0,0.0,0.0,0.0,0.0,0.0,0.0,0.0,0.0,0.0,0.0,0.0,0.0,0.0,0.0,0.0,0.0,0.0,0.0,0.0,0.0,0.0,0.0,0.0,0.0,0.0,0.0,0.0,0.0,0.0,0.0,0.0,0.0,0.0,0.0,0.0,0.0,0.0,0.0,0.0,0.0,0.0,0.0,0.0,0.0,0.0,0.0,0.0,0.0,0.0,0.0,0.0,0.0,0.0,0.0,0.0,0.0,0.0,0.0,0.0,0.0,0.0,0.0,0.0,0.0,0.0,0.0,0.0,0.0,0.0,0.0,0.0,0.0,0.0,0.0,0.0,0.0,0.0,0.0,0.0,0.0,0.0,0.0,0.0,0.0,0.0,0.0,0.0,0.0,0.0,0.0,0.0,0.0,0.0,0.0,0.0,0.0,0.0,0.0,0.0,0.0,0.0,0.0,0.0,0.0,0.0,0.0,0.0,0.0,0.0,0.0,0.0,0.0,0.0,0.0,0.0,0.0,0.0,0.0,0.0,0.0,0.0,0.0,0.0,0.0,0.0,0.0,0.0,0.0,0.0,0.0,0.0,0.0,0.0,0.0,0.0,0.0,0.0,0.0,0.0,0.0,0.0,0.0,0.0,0.0,0.0,0.0,0.0,0.0,0.0,0.0,0.0,0.0,0.0,0.0,0.0,0.0,0.0,0.0,0.0,0.0,0.0,0.0,0.0,0.0,0.0,0.0,0.0,0.0,0.0,0.0,0.0,0.0,0.0,0.0,0.0,0.0,0.0,0.0,0.0,0.0,0.0,0.0,0.0,0.0,0.0,0.0,0.0,0.0,0.0,0.0,0.0,0.0,0.0,0.0,0.0,0.0,0.0,0.0,0.0,0.0,0.0,0.0,0.0,0.0,0.0,0.0,0.0,0.0,0.0,0.0,0.0,0.0,0.0,0.0,0.0,0.0,0.0,0.0,0.0,0.0,0.0,0.0,0.0,0.0,0.0,0.0,0.0,0.0,0.0,0.0,0.0,0.0,0.0,0.0,0.0,0.0,0.0,0.0,0.0,0.0,0.0,0.0,0.0,0.0,0.0,0.0,0.0,0.0,0.0,0.0,0.0,0.0,0.0,0.0,0.0,0.0,0.0,0.0,0.0,0.0,0.0,0.0,0.0,0.0,0.0,0.0,0.0,0.0,0.0,0.0,0.0,0.0,0.0,0.0,0.0,0.0,0.0,0.0,0.0,0.0,0.0,0.0,0.0,0.0,0.0,0.0,0.0,0.0,0.0,0.0,0.0,0.0,0.0,0.0,0.0,0.0,0.0,0.0,0.0,0.0,0.0,0.0,0.0,0.0,0.0,0.0,0.0,0.0,0.0,0.0,0.0,0.0,0.0,0.0,0.0,0.0,0.0,0.0,0.0,0.0,0.0,0.0,0.0,0.0,0.0,0.0,0.0,0.0,0.0,0.0,0.0,0.0,0.0,0.0,0.0,0.0,0.0,0.0,0.0,0.0,0.0,0.0,0.0,0.0,0.0,0.0,0.0,0.0,0.0,0.0,0.0,0.0,0.0,0.0,0.0,0.0,0.0,0.0,0.0,0.0,0.0,0.0,0.0,0.0,0.0,0.0,0.0,0.0,0.0,0.0,0.0,0.0,0.0,0.0,0.0,0.0,0.0,0.0,0.0,0.0,0.0,0.0,0.0,0.0,0.0,0.0,0.0,0.0,0.0,0.0,0.0,0.0,0.0,0.0,0.0,0.0,0.0,0.0,0.0,0.0,0.0,0.0,0.0,0.0,0.0,0.0,0.0,0.0,0.0,0.0,0.0,0.0,0.0,0.0,0.0,0.0,0.0,0.0,0.0,0.0,0.0,0.0,0.0,0.0,0.0,0.0,0.0,0.0,0.0,0.0,0.0,0.0,0.0,0.0,0.0,0.0,0.0,0.0,0.0,0.0,0.0,0.0,0.0,0.0,0.0,0.0,0.0,0.0,0.0,0.0,0.0,0.0,0.0,0.0,0.0,0.0,0.0,0.0,0.0,0.0,0.0,0.0,0.0,0.0,0.0,0.0,0.0,0.0,0.0,0.0,0.0,0.0,0.0,0.0,0.0,0.0,0.0,0.0,0.0,0.0,0.0,0.0,0.0,0.0,0.0,0.0,0.0,0.0,0.0,0.0,0.0,0.0,0.0,0.0,0.0,0.0,0.0,0.0,0.0,0.0,0.0,0.0,0.0,0.0,0.0,0.0,0.0,0.0,0.0,0.0,0.0,0.0,0.0,0.0,0.0,0.0,0.0,0.0,0.0,0.0,0.0,0.0,0.0,0.0,0.0,0.0,0.0,0.0,0.0,0.0,0.0,0.0,0.0,0.0,0.0,0.0,0.0,0.0,0.0,0.0,0.0,0.0,0.0,0.0,0.0,0.0,0.0,0.0,0.0,0.0,0.0,0.0,0.0,0.0,0.0,0.0,0.0,0.0,0.0,0.0,0.0,0.0,0.0,0.0,0.0,0.0,0.0,0.0,0.0,0.0,0.0,0.0,0.0,0.0,0.0,0.0,0.0,0.0,0.0,0.0,0.0,0.0,0.0,0.0,0.0,0.0,0.0,0.0,0.0,0.0,0.0,0.0,0.0,0.0,0.0,0.0,0.0,0.0,0.0,0.0,0.0,0.0,0.0,0.0,0.0,0.0,0.0,0.0,0.0,0.0,0.0,0.0,0.0,0.0,0.0,0.0,0.0,0.0,0.0,0.0,0.0,0.0,0.0,0.0,0.0,0.0,0.0,0.0,0.0,0.0,0.0,0.0,0.0,0.0,0.0,0.0,0.0,0.0,0.0,0.0,0.0,0.0,0.0,0.0,0.0,0.0,0.0,0.0,0.0,0.0,0.0,0.0,0.0,0.0,0.0,0.0,0.0,0.0,0.0,0.0,0.0,0.0,0.0,0.0,0.0,0.0,0.0,0.0,0.0,0.0,0.0,0.0,0.0,0.0,0.0,0.0,0.0,0.0,0.0,0.0,0.0,0.0,0.0,0.0,0.0,0.0,0.0,0.0,0.0,0.0,0.0,0.0,0.0,0.0,0.0,0.0,0.0,0.0,0.0,0.0,0.0,0.0,0.0,0.0,0.0,0.0,0.0,0.0,0.0,0.0,0.0,0.0,0.0,0.0,0.0,0.0,0.0,0.0,0.0,0.0,0.0,0.0,0.0,0.0,0.0,0.0,0.0,0.0,0.0,0.0,0.0,0.0,0.0,0.0,0.0,0.0,0.0,0.0,0.0,0.0,0.0,0.0,0.0,0.0,0.0,0.0,0.0,0.0,0.0,0.0,0.0,0.0,0.0,0.0,0.0,0.0,0.0,0.0,0.0,0.0,0.0,0.0,0.0,0.0,0.0,0.0,0.0,0.0,0.0,0.0,0.0,0.0,0.0,0.0,0.0,0.0,0.0,0.0,0.0,0.0,0.0,0.0,0.0,0.0,0.0,0.0,0.0,0.0,0.0,0.0,0.0,0.0,0.0,0.0,0.0,0.0,0.0,0.0,0.0,0.0,0.0,0.0,0.0,0.0,0.0,0.0,0.0,0.0,0.0,0.0,0.0,0.0,0.0,0.0,0.0,0.0,0.0,0.0,0.0,0.0,0.0,0.0,0.0,2.3056,0.0,0.0,0.0,0.0,0.0,0.0,0.0,0.0,0.0,0.0,0.0,0.0,0.0,0.0,0.0,0.0,0.0,0.0,0.0,0.0,0.0,0.0,0.0,0.0,1.6625,1.6944,1.7776,1.8617,1.8919,1.845,0.0,0.0,0.0,0.0,0.0,1.781,1.7366,1.7545,1.8424,1.7545,1.778,1.9067,1.945,1.8985,1.7829,0.0,0.0,0.0,0.0,0.0,0.0,0.0,0.0,0.0,0.0,0.0,0.0,0.0,0.0,0.0,0.0,0.0,0.0,0.0,0.0,0.0,0.0,0.0,0.0,0.0,0.0,0.0,0.0,0.0,0.0,0.0,0.0,0.0,0.0,0.0,0.0,0.0,0.0,0.0,0.0,0.0,0.0,0.0,0.0,0.0,0.0,0.0,0.0,0.0,0.0,0.0,0.0,0.0,0.0,0.0,0.0,0.0,0.0,0.0,0.0,0.0,0.0,0.0,0.0,0.0,0.0,0.0,0.0,0.0,0.0,0.0,2.4397,0.0,0.0,0.0,0.0,0.0,0.0,0.0,0.0,0.0,0.0,0.0,0.0,0.0,0.0,0.0,0.0,0.0,0.0,0.0,0.0,0.0,1.592,1.6738,1.6827,1.723,1.8254,1.88,1.9164,1.9319,1.9996,0.0,0.0,0.0,1.899,1.8277,1.8103,1.8529,1.9554,1.8974,1.9438,2.0866,2.2242,2.1395,1.8684,1.8548,0.0,0.0,0.0,0.0,0.0,0.0,0.0,0.0,0.0,0.0,0.0,0.0,0.0,0.0,0.0,0.0,0.0,0.0,0.0,0.0,0.0,0.0,0.0,0.0,0.0,0.0,0.0,0.0,0.0,0.0,0.0,0.0,0.0,0.0,0.0,0.0,0.0,0.0,0.0,0.0,0.0,0.0,0.0,0.0,0.0,0.0,0.0,0.0,0.0,0.0,0.0,0.0,0.0,0.0,0.0,0.0,0.0,0.0,0.0,0.0,0.0,0.0,0.0,2.9167,2.989,3.0925,3.0252,3.0321,3.0784,2.8067,2.7026,2.7142,2.561,0.0,0.0,0.0,0.0,0.0,0.0,0.0,0.0,0.0,0.0,0.0,0.0,0.0,0.0,0.0,0.0,0.0,0.0,0.0,1.6763,1.7633,1.7675,1.8305,1.9927,1.9477,1.9416,2.0189,2.0344,0.0,0.0,2.0228,2.017,2.0054,1.9319,1.9728,2.1359,2.1936,2.2342,2.2571,2.2807,2.2652,2.2207,2.1491,2.1185,2.1088,0.0,0.0,0.0,0.0,0.0,0.0,0.0,0.0,0.0,0.0,0.0,0.0,0.0,0.0,0.0,0.0,0.0,0.0,0.0,0.0,0.0,0.0,0.0,0.0,0.0,0.0,0.0,0.0,0.0,0.0,0.0,0.0,0.0,0.0,0.0,0.0,0.0,0.0,0.0,0.0,0.0,2.3483,2.2858,0.0,0.0,0.0,0.0,0.0,0.0,0.0,0.0,0.0,0.0,0.0,0.0,0.0,2.9259,2.9959,3.2302,3.2847,3.1594,3.3119,3.3173,3.1915,3.1812,3.1822,3.1921,3.2223,0.0,2.8993,2.8062,0.0,0.0,0.0,0.0,0.0,0.0,0.0,0.0,0.0,0.0,0.0,0.0,0.0,0.0,0.0,0.0,0.0,0.0,0.0,0.0,0.0,1.8985,1.9767,2.1024,2.1198,2.1004,2.044,2.0869,2.0695,1.9706,2.015,2.0402,2.0402,2.0502,2.1162,2.2362,2.3712,2.4118,2.3635,2.4138,2.4602,2.5004,2.4196,2.329,2.2284,2.1085,0.0,0.0,0.0,0.0,0.0,0.0,0.0,0.0,0.0,0.0,0.0,0.0,0.0,0.0,0.0,0.0,0.0,0.0,0.0,0.0,0.0,0.0,0.0,0.0,0.0,0.0,0.0,0.0,0.0,0.0,0.0,0.0,0.0,0.0,0.0,0.0,0.0,0.0,0.0,2.3563,2.518,2.5278,2.5726,2.5258,0.0,0.0,0.0,0.0,0.0,0.0,0.0,0.0,0.0,3.1226,3.2007,3.3043,3.4372,3.5527,3.5973,3.5718,3.6465,3.6432,3.568,3.5188,3.4969,3.4965,3.4854,3.3887,3.2279,3.0949,2.9671,2.8487,0.0,0.0,0.0,0.0,2.6546,2.6721,0.0,0.0,0.0,0.0,0.0,0.0,0.0,0.0,0.0,0.0,0.0,0.0,1.9261,2.0015,2.0827,2.192,2.2362,2.2149,2.1117,2.1417,2.1062,1.978,2.0108,2.0325,2.0325,2.1415,2.2499,2.3577,2.5066,2.5588,2.5182,2.584,2.6459,2.7015,2.642,2.5298,2.3809,2.2787,2.1839,0.0,0.0,0.0,0.0,0.0,0.0,0.0,0.0,0.0,0.0,0.0,0.0,0.0,0.0,0.0,0.0,0.0,0.0,0.0,0.0,0.0,0.0,0.0,0.0,0.0,0.0,0.0,0.0,0.0,0.0,0.0,0.0,0.0,0.0,0.0,0.0,0.0,0.0,2.5446,2.6928,2.7584,2.8607,2.8141,0.0,0.0,0.0,0.0,0.0,0.0,3.2558,3.3085,3.3926,3.5213,3.5488,3.6214,3.7526,3.7745,3.8064,3.8495,3.8708,3.8699,3.8459,3.7824,3.7525,3.7501,3.6852,3.6236,3.5515,3.3544,3.2101,3.107,3.0414,2.9267,2.8062,2.8897,2.9209,2.9421,0.0,0.0,0.0,0.0,0.0,0.0,0.0,0.0,0.0,0.0,0.0,1.9319,2.0247,2.0363,2.1059,2.271,2.2191,2.2056,0.0,2.1972,2.1467,2.137,2.0568,2.0126,2.0126,2.1848,2.3608,2.5372,2.6223,2.7035,2.7817,2.7855,2.7894,2.7933,2.7894,2.7368,2.6397,2.4776,2.3577,2.2629,0.0,0.0,0.0,0.0,0.0,0.0,0.0,0.0,0.0,0.0,0.0,0.0,0.0,0.0,0.0,0.0,0.0,0.0,0.0,0.0,0.0,0.0,0.0,0.0,0.0,0.0,0.0,0.0,0.0,0.0,0.0,0.0,0.0,0.0,0.0,0.0,0.0,0.0,0.0,2.9461,3.0857,0.0,0.0,0.0,0.0,3.1624,3.2524,3.3461,3.4412,3.6036,3.6976,3.7074,3.7879,3.8349,3.8427,3.9192,3.9213,3.8509,3.9273,3.9219,3.8405,3.8437,3.843,3.8424,3.8395,3.8344,3.811,3.5521,3.3519,3.2028,3.1989,3.141,3.0714,3.1584,3.1891,3.2028,0.0,0.0,0.0,0.0,0.0,1.5231,1.5238,1.5977,1.6736,1.7302,1.8871,2.0266,2.1143,2.2204,2.3093,2.3674,2.3983,2.379,2.2942,2.2547,2.2094,2.1519,2.1101,2.167,2.3415,2.415,2.5371,2.712,2.7406,2.7701,2.7991,2.7991,2.83,2.8803,2.8242,2.8146,2.8238,2.5994,2.4853,2.4428,2.2706,2.1447,0.0,0.0,0.0,0.0,0.0,0.0,0.0,0.0,0.0,0.0,0.0,0.0,0.0,0.0,0.0,0.0,0.0,0.0,0.0,0.0,0.0,0.0,0.0,0.0,0.0,0.0,0.0,0.0,0.0,0.0,0.0,0.0,0.0,0.0,0.0,0.0,0.0,3.1985,3.3965,0.0,3.2596,3.3427,3.4182,3.4425,3.5259,3.6372,3.7805,3.8474,3.9041,3.9567,3.9882,4.0041,4.0041,4.0379,4.0398,4.0103,4.0391,4.0366,4.0057,3.952,3.9293,3.9316,3.8748,3.85,3.8436,3.7495,3.6426,3.5329,3.4764,3.4007,3.329,3.3597,3.3714,3.3751,0.0,0.0,0.0,0.0,1.5248,1.5228,1.5228,1.6204,1.7139,1.7725,1.957,2.1159,2.2014,2.3368,2.4312,2.4602,2.5163,2.4993,2.3786,2.3364,2.2887,2.2273,2.2154,2.3118,2.5255,2.5672,2.6704,2.8436,2.8436,2.8591,2.8881,2.8881,2.919,2.9708,2.9132,2.921,2.9611,2.7619,2.6613,2.6188,2.4467,2.3555,2.306,0.0,0.0,0.0,0.0,0.0,0.0,0.0,0.0,0.0,0.0,0.0,0.0,0.0,0.0,0.0,0.0,0.0,0.0,0.0,0.0,0.0,0.0,0.0,0.0,0.0,0.0,0.0,0.0,0.0,0.0,0.0,0.0,0.0,0.0,0.0,3.3811,3.4144,3.6211,3.6801,3.4781,3.5894,3.6855,3.7097,3.7646,3.8596,4.0033,4.0111,4.0344,4.0888,4.0907,4.0907,4.0907,4.0949,4.0976,4.0976,4.0967,4.0967,4.0947,4.04,4.0161,4.0174,3.9584,3.9336,3.9326,3.9057,3.8598,3.7997,3.7128,3.6236,3.548,3.548,3.5285,3.5032,0.0,0.0,0.0,1.5201,1.525,1.5296,1.5296,1.672,1.7794,1.7794,2.0099,2.2036,2.2807,2.3693,2.4583,2.5426,2.5484,2.5447,2.5308,2.4429,2.3854,2.3733,2.3765,2.4297,2.539,2.6241,2.7538,2.9312,2.9312,2.9757,3.0588,3.0588,3.0588,3.0593,3.0593,3.0593,3.054,2.9689,2.8842,2.7933,2.6246,2.5987,2.6318,0.0,0.0,0.0,0.0,0.0,0.0,0.0,0.0,0.0,0.0,0.0,0.0,0.0,0.0,0.0,0.0,0.0,0.0,0.0,0.0,0.0,0.0,0.0,0.0,0.0,0.0,0.0,0.0,0.0,0.0,0.0,0.0,0.0,3.1843,3.355,3.4977,3.591,3.7472,3.814,3.7306,3.7981,3.8829,3.966,3.9737,4.0072,4.0869,4.0907,4.0907,4.0907,4.0907,4.0907,4.0907,4.0907,4.0907,4.0907,4.0907,4.0907,4.0893,4.0977,4.0995,4.1,4.1008,4.0996,4.0937,4.0155,3.984,3.9741,3.8845,3.7975,3.7236,3.7236,3.669,3.5947,0.0,0.0,1.5207,1.5207,1.5221,1.5234,1.5234,1.6687,1.7802,1.7802,2.0576,2.2652,2.2884,2.4234,2.5193,2.5336,2.5351,2.5308,2.5165,2.4281,2.4012,2.4562,2.5222,2.6314,2.7872,2.8109,2.8747,2.9877,2.9877,2.9992,3.0248,3.0248,3.0297,3.0389,3.0389,3.0451,3.0578,3.0346,3.0095,2.9727,2.801,2.6969,2.6307,0.0,0.0,0.0,0.0,0.0,0.0,0.0,0.0,0.0,0.0,0.0,0.0,0.0,0.0,0.0,0.0,0.0,0.0,0.0,0.0,0.0,0.0,0.0,0.0,0.0,0.0,0.0,0.0,0.0,0.0,0.0,0.0,3.3262,3.375,3.5834,3.7661,3.8552,3.9574,4.012,3.9885,4.0066,4.0305,4.0558,4.0577,4.0674,4.0888,4.0907,4.0907,4.0907,4.0907,4.0907,4.0907,4.0907,4.0907,4.0907,4.0907,4.0907,4.0907,4.0924,4.0953,4.1002,4.0997,4.1029,4.1065,4.0821,4.0738,4.06,3.9094,3.8358,3.8138,3.8138,3.7593,3.6844,0.0,1.5226,1.5207,1.5207,1.5224,1.524,1.524,1.6709,1.7805,1.7805,2.0769,2.2903,2.2903,2.4467,2.5455,2.5317,2.5308,2.5222,2.5018,2.4781,2.4884,2.537,2.6616,2.7788,2.8835,2.9548,2.9961,3.0109,3.0808,3.0973,3.0648,3.0992,3.1195,3.1258,3.1258,3.1143,3.0933,3.1003,3.0786,3.0309,2.9355,2.8641,2.8008,2.6653,2.5755,2.5096,2.4192,2.3933,2.3941,2.3129,0.0,0.0,0.0,0.0,0.0,0.0,0.0,0.0,0.0,0.0,0.0,0.0,0.0,0.0,0.0,0.0,0.0,0.0,0.0,0.0,0.0,0.0,0.0,0.0,3.4508,3.6269,3.6634,3.7994,3.9256,4.0111,4.0616,4.0907,4.0907,4.0907,4.0907,4.0907,4.0907,4.0907,4.0907,4.0907,4.0907,4.0907,4.0907,4.0907,4.0907,4.0907,4.0907,4.0907,4.0907,4.0907,4.0907,4.0907,4.0921,4.0967,4.0988,4.102,4.1057,4.1064,4.1078,0.0,0.0,0.0,0.0,0.0,3.817,3.7749,0.0,1.519,1.5207,1.5207,1.5264,1.5335,1.5412,1.6778,1.7833,1.7929,2.083,2.2903,2.2903,2.4467,2.5432,2.5279,2.5269,2.5212,0.0,2.5657,2.614,2.6377,2.7877,2.8818,2.9048,3.0559,3.1009,3.0338,3.1828,3.2183,3.1478,3.2202,3.2553,3.2588,3.2588,3.2203,3.1546,3.166,3.1148,3.0249,3.0382,3.0469,3.0311,2.844,2.7714,2.7554,2.6506,2.571,2.4981,2.4189,0.0,0.0,0.0,0.0,0.0,0.0,0.0,0.0,0.0,0.0,0.0,0.0,0.0,0.0,0.0,0.0,0.0,0.0,0.0,0.0,0.0,0.0,0.0,0.0,3.6448,3.8806,3.9675,3.9791,4.0068,4.0806,4.0907,4.0907,4.0907,4.0907,4.0907,4.0907,4.0907,4.0907,4.0907,0.0,0.0,0.0,0.0,4.0907,4.0907,4.0907,4.0907,4.0907,4.0907,4.0907,4.0907,4.0907,4.0907,4.0893,4.0975,4.0996,4.1003,4.1003,4.1053,4.1105,4.1104,4.0625,3.9841,3.9079,3.8739,3.8644,0.0,1.519,1.5207,1.5207,1.5264,1.5528,1.6163,1.7145,1.8045,1.8758,2.1217,2.2903,2.2903,2.4467,2.5406,2.516,2.5143,2.5317,0.0,0.0,2.6825,2.8131,2.8468,2.9252,3.062,3.0872,3.1233,3.1714,3.2053,3.2128,3.1968,3.2119,3.2279,3.2452,3.2452,3.2414,3.2371,3.2401,3.1923,3.1137,3.1174,3.071,2.9924,2.8882,2.8395,2.8125,2.7286,2.7279,2.7571,2.6754,2.6489,2.6363,2.5562,0.0,0.0,0.0,0.0,0.0,0.0,0.0,0.0,0.0,0.0,0.0,0.0,0.0,0.0,0.0,0.0,0.0,0.0,0.0,0.0,3.6528,3.8196,3.9425,4.0301,4.0417,4.0538,4.0854,4.0907,4.0907,4.0907,4.0907,4.0907,4.0907,4.0907,4.0907,4.0907,4.0907,4.0907,4.0907,4.0907,4.0907,4.0907,4.0907,4.0907,4.0907,0.0,0.0,4.0907,4.0907,4.0907,4.0893,4.0975,4.0991,4.1003,4.1056,4.1083,4.1106,4.1107,4.0995,4.084,4.0662,4.015,3.9543,1.5192,1.519,1.5207,1.5207,1.5264,1.5567,1.6375,1.7242,1.8103,1.899,2.1314,2.2715,2.2257,2.374,2.4476,2.381,2.4143,0.0,0.0,2.6572,2.7393,2.8651,2.9389,3.014,3.0987,3.175,3.2132,3.2105,3.2931,3.3156,3.2762,3.3156,3.3395,3.3505,3.3505,3.3308,3.3005,3.3083,3.2581,3.1715,3.1382,3.0899,3.0317,2.958,2.9242,2.9093,2.8629,2.8706,2.8923,2.8078,2.7796,2.7665,2.6848,2.574,2.4595,0.0,0.0,0.0,0.0,0.0,0.0,0.0,0.0,0.0,0.0,0.0,0.0,0.0,0.0,3.0893,0.0,0.0,3.6028,3.8245,3.935,4.0105,4.0537,4.0595,4.0649,4.0832,4.0848,4.0863,4.0903,4.0907,4.0893,4.0848,4.0883,4.0888,4.0848,4.1296,4.1548,4.1548,4.1976,4.2209,4.2209,4.2209,4.2209,4.2209,4.1762,4.1548,4.1534,4.1129,4.0943,4.0943,4.0988,4.0993,4.1013,4.1064,4.11,4.1095,4.1098,4.1103,4.1104,4.1091,4.082,4.0449,1.5192,1.5207,1.5202,1.5204,1.5264,1.5625,1.659,1.7358,1.8161,1.9222,2.1295,2.2376,2.1586,2.2849,2.3463,2.2727,2.3309,0.0,0.0,2.7209,2.8036,2.8861,3.017,3.0968,3.1137,3.262,3.3137,3.2593,3.3944,3.4264,3.3644,3.4301,3.4612,3.4612,3.4612,3.4245,3.3636,3.3751,3.3241,3.2302,3.1769,3.1374,3.1063,3.0354,2.9998,2.9849,2.9738,2.9701,2.9589,2.8885,2.866,2.8547,2.7899,2.758,2.7167,2.5826,2.53,0.0,0.0,0.0,0.0,0.0,0.0,0.0,0.0,0.0,2.8927,3.274,3.2957,3.3396,3.6436,3.7559,3.8345,3.933,4.0072,4.0542,4.0542,4.0542,4.0586,4.0707,4.0758,4.0781,4.0833,4.0844,4.0812,4.0776,4.0976,4.1059,4.1022,4.1887,4.2371,4.2371,4.3086,4.346,4.346,4.35,4.3505,4.3486,4.2792,4.2442,4.2427,4.1617,4.1249,4.1229,4.1081,4.1123,4.1265,4.1152,4.11,4.1103,4.1103,4.1109,4.1109,4.1109,4.1099,4.1109,0.0,1.5195,1.5201,1.5202,1.5264,1.582,1.741,1.775,1.8393,2.0034,2.1182,2.1758,2.1529,2.2367,2.3093,2.3525,2.3753,0.0,2.6954,2.8055,2.8932,2.9568,3.0424,3.1231,3.1954,3.2912,3.37,3.432,3.4518,3.4545,3.447,3.4556,3.4612,3.4612,3.4612,3.4545,3.4481,3.4484,3.4003,3.325,3.3177,3.2669,3.1879,3.1091,3.0349,2.9719,2.9711,2.9701,2.9683,2.9589,2.9551,2.9532,2.9439,2.8894,2.8219,2.8032,0.0,2.6885,2.6697,2.6839,2.7633,3.0132,3.0232,3.0747,0.0,0.0,3.4679,3.6703,3.7045,3.7332,3.8504,3.8791,3.9163,4.0041,4.028,4.0337,4.0337,4.0337,4.0353,4.043,4.0545,4.0635,4.0629,4.0629,4.0622,4.0609,4.1349,4.1786,4.1772,4.2551,4.2995,4.2995,4.3215,4.3324,4.3324,4.3449,4.3505,4.3505,4.3394,4.3355,4.3335,4.2512,4.2144,4.2109,4.1398,4.1532,4.2174,4.1417,4.1106,4.1106,4.1108,4.1109,4.1109,4.1109,4.1091,4.1093,0.0,1.5192,1.5198,1.5202,1.5642,1.6408,1.7627,1.8224,1.899,2.0247,2.1087,2.1344,2.0749,2.0461,2.1007,2.2727,2.3088,2.4362,2.7146,2.8253,2.9307,3.0466,3.1205,3.1992,3.2837,3.3663,3.4264,3.4612,3.4612,3.4612,3.4612,3.4612,3.4612,3.4612,3.4612,3.4612,3.4612,3.4612,3.4414,3.4057,3.3588,3.3193,3.2705,3.14,3.0687,3.034,2.987,2.9701,0.0,0.0,2.9701,2.9701,2.9701,2.9092,2.8388,2.8388,2.851,0.0,2.994,3.0246,3.0665,0.0,3.248,3.2999,3.5793,3.5755,3.5744,3.799,3.8457,3.8725,3.9603,3.9747,3.9881,0.0,4.0301,4.0301,4.0301,4.0301,4.031,4.0335,4.0396,4.0468,4.06,4.1051,4.1323,4.1254,4.2079,4.2568,4.2497,4.335,4.3871,4.3871,4.4406,4.4706,4.4706,4.4755,4.4809,4.489,4.4385,4.4176,4.4229,4.3416,4.3082,4.3097,4.2767,4.2526,4.2376,4.2006,4.1557,4.1109,4.1109,4.1109,4.1109,4.1109,4.1109,4.1109,0.0,1.5192,1.5198,1.5193,1.5926,1.6786,1.766,1.8534,1.9409,2.0237,2.0812,2.0851,2.0122,1.8923,1.9282,2.206,2.2283,2.3746,2.7174,2.8253,2.9471,3.1033,3.1742,3.2518,3.3371,3.4189,3.4612,3.4612,3.4612,3.4612,3.4612,3.4612,3.4612,3.4612,3.4612,3.4612,3.4612,3.4612,3.4612,3.4545,3.3963,3.3738,3.355,3.1869,3.1081,3.0762,2.972,2.9345,0.0,0.0,2.9157,2.9307,2.9082,2.8735,2.8444,2.8697,2.9354,3.0321,3.1683,0.0,0.0,3.3855,3.4565,3.5325,3.6784,3.6812,3.7067,3.8964,3.9355,3.9546,4.0186,4.0301,4.0301,4.0301,4.0301,4.0301,4.0301,4.0301,4.0301,4.0301,4.0301,4.0354,4.0496,4.1081,4.1503,4.1632,4.2497,4.3062,4.3204,4.4119,4.466,4.466,4.5299,4.5632,4.5632,4.5692,4.5754,4.5833,4.5207,4.4957,4.5018,4.4251,4.3961,4.4055,4.3801,4.3489,4.3079,4.2591,4.2025,4.142,4.1187,4.1109,4.1109,4.1109,4.1109,4.1109,0.0,0.0,1.5192,1.5192,1.5914,1.6792,1.7661,1.854,1.9371,2.0108,2.0231,2.0142,1.9939,1.8378,1.8675,2.2004,2.165,2.2992,2.7129,2.8222,2.942,3.1033,3.1742,3.2518,3.3371,3.4189,3.4612,3.4612,3.4612,3.4612,3.4612,3.4612,3.4612,3.4612,3.4612,3.4612,3.4612,3.4612,3.4612,3.4612,3.4564,3.4564,3.4376,3.2705,3.1579,3.0687,2.9035,0.0,0.0,0.0,2.7796,2.8303,2.7524,2.7796,0.0,2.9401,3.0227,0.0,0.0,0.0,3.2829,3.4617,3.6342,3.7827,3.8716,3.9556,4.0167,4.0244,4.0263,4.0263,4.0301,4.0301,4.0301,4.0301,4.0301,4.0301,4.0301,4.0301,4.0301,4.0301,4.0301,4.031,0.0,4.0339,4.0664,4.1447,4.2326,4.3148,4.394,4.4791,4.5279,4.5279,4.541,4.5504,4.5504,4.5643,4.5708,4.5708,4.5669,4.5677,4.5646,4.4971,4.4779,4.4912,4.4075,4.4153,4.4795,4.3099,4.2376,4.2279,4.142,4.1109,4.1109,4.1109,4.1109,4.1109,0.0,0.0,0.0,1.6051,1.7218,1.8278,1.8615,1.8904,1.9352,2.0104,2.0087,0.0,0.0,0.0,0.0,0.0,2.2155,2.3322,2.6272,2.7944,2.9224,3.0131,3.0987,3.2043,3.3381,3.3682,3.4076,3.4612,3.4612,3.4612,3.4612,3.4612,3.4612,3.4612,3.4612,3.4612,3.4612,3.4612,3.4921,3.5371,3.4245,3.4113,3.4425,3.2743,3.0912,2.9167,0.0,0.0,0.0,0.0,2.7321,2.7419,2.7138,0.0,0.0,2.9543,3.078,3.1933,3.3687,0.0,3.5219,3.7091,3.8014,3.868,3.9642,4.0091,4.0301,4.0301,4.0301,4.0301,4.0301,4.0301,4.0301,4.0301,4.075,4.0903,4.0377,4.1266,4.1552,4.0435,4.0769,0.0,0.0,0.0,0.0,4.2297,4.3138,4.3978,4.4819,4.5144,4.5307,4.5307,4.5339,4.537,4.537,4.5419,4.5476,4.5575,4.5668,4.5727,4.5768,4.5538,4.5546,4.5705,4.5412,4.518,4.4951,4.4366,4.3782,4.3177,4.2298,4.1967,4.1888,4.1304,4.1109,4.1109,0.0,0.0,0.0,0.0,0.0,0.0,0.0,0.0,0.0,0.0,0.0,0.0,0.0,0.0,0.0,0.0,0.0,2.3,2.5442,2.7027,2.8431,2.9716,2.9722,3.045,3.2048,3.1775,3.2029,3.2847,3.3137,3.3419,3.37,3.37,3.37,3.3719,3.402,3.417,3.417,3.417,3.4489,3.4902,3.3494,3.325,3.355,3.2198,3.0311,0.0,0.0,0.0,0.0,2.6151,2.6523,0.0,0.0,0.0,2.831,2.9928,3.1466,3.3099,3.5138,3.596,3.6584,3.8104,3.8801,3.9294,3.9935,4.0196,4.0205,3.99,3.9843,3.9728,3.9431,3.9374,3.947,3.9785,4.054,4.0998,4.0769,4.1667,4.1934,4.0864,4.1189,4.1304,0.0,0.0,0.0,4.2737,4.3548,4.4369,4.5239,4.5307,4.5307,4.5307,4.5307,4.5307,4.5307,4.5307,4.5339,4.5419,4.5522,4.5621,4.5722,4.5722,4.5846,4.6037,4.6037,4.5753,4.5309,4.5038,4.4597,4.4014,4.3191,4.2864,4.2767,4.1888,4.1557,4.1518,0.0,0.0,0.0,0.0,0.0,0.0,0.0,0.0,0.0,0.0,0.0,0.0,0.0,0.0,0.0,0.0,0.0,0.0,2.472,2.5544,0.0,2.9596,2.8058,2.7945,2.9664,2.8848,2.8866,2.9814,3.0593,3.1344,3.2105,3.2105,3.2105,3.2142,3.2968,3.3314,3.3258,3.3314,3.3314,3.3202,3.2367,3.2029,3.1944,3.1184,0.0,0.0,0.0,0.0,0.0,0.0,0.0,0.0,0.0,0.0,0.0,3.0705,3.237,3.4338,3.5484,3.6249,3.6928,3.7759,3.8831,3.9675,3.9687,3.996,3.9948,3.9079,3.8869,3.8564,0.0,0.0,3.7971,3.8783,3.9766,4.0692,4.1399,4.1609,4.1648,0.0,0.0,0.0,0.0,0.0,0.0,4.2794,0.0,4.4341,4.525,4.5307,4.5307,4.5307,4.5307,4.5307,4.5307,4.5307,4.5307,4.5307,4.5307,4.541,4.5595,4.5595,4.5703,4.5894,4.5894,4.5894,4.5852,4.5141,4.486,4.477,4.4036,4.3761,4.3643,4.2746,4.2396,4.2279,0.0,0.0,0.0,0.0,0.0,0.0,0.0,0.0,0.0,0.0,0.0,0.0,0.0,0.0,0.0,0.0,0.0,0.0,0.0,2.5059,0.0,2.693,2.6658,2.7466,2.9654,2.8848,2.9411,3.1485,3.1692,3.1898,3.2105,3.2105,3.2105,3.2105,3.233,3.2105,3.1588,3.218,3.2086,3.1513,0.0,3.1115,3.0957,0.0,0.0,0.0,0.0,0.0,0.0,0.0,0.0,0.0,0.0,2.9689,3.1182,0.0,0.0,3.5752,3.6646,3.7632,3.8465,3.8801,3.9137,3.9414,3.9525,3.9176,3.8565,3.77,3.703,3.636,0.0,0.0,0.0,3.7775,4.0272,0.0,4.1552,4.3119,0.0,4.2622,0.0,4.3138,4.2526,4.3004,0.0,0.0,4.3329,4.3749,4.5231,4.5307,4.5307,4.5307,4.5307,4.5307,4.5307,4.5307,4.5307,4.5307,4.5307,4.5351,4.5446,4.5446,4.5594,4.5822,4.5822,4.5859,4.5885,4.5697,4.5629,4.5541,4.4809,4.4523,4.4354,4.291,4.2396,4.2279,0.0,0.0,0.0,0.0,0.0,0.0,0.0,0.0,0.0,0.0,0.0,0.0,0.0,0.0,0.0,0.0,0.0,0.0,0.0,2.4605,2.5205,2.5963,2.5367,2.5801,2.7467,2.7027,2.7459,2.8857,0.0,0.0,2.9429,2.9429,2.9213,2.8875,2.9251,2.9166,2.8781,2.9241,0.0,0.0,0.0,0.0,0.0,0.0,0.0,0.0,0.0,0.0,0.0,0.0,0.0,2.884,3.0373,3.1636,3.2933,3.4724,0.0,3.6687,3.758,3.8255,3.871,3.8781,3.8966,3.8955,3.8338,3.7946,3.7284,3.5727,3.5061,0.0,3.366,3.5039,0.0,0.0,0.0,0.0,4.2087,4.3615,4.438,0.0,4.372,0.0,4.3367,4.3739,4.4159,0.0,4.415,4.4303,4.525,4.5307,4.5307,4.5307,4.5307,4.5307,4.5307,4.5307,4.5317,4.5338,4.5338,4.538,4.5438,4.5438,4.5538,4.5704,0.0,4.573,4.5776,4.5841,4.5865,4.5819,4.5439,4.528,4.5129,4.3851,4.3161,4.2756,0.0,0.0,0.0,0.0,0.0,0.0,0.0,0.0,0.0,0.0,0.0,0.0,0.0,0.0,0.0,0.0,0.0,0.0,0.0,0.0,0.0,2.5786,2.4321,2.3926,2.4858,2.4764,2.4812,2.5019,0.0,0.0,0.0,0.0,0.0,0.0,0.0,0.0,0.0,0.0,0.0,0.0,0.0,0.0,0.0,0.0,0.0,0.0,0.0,0.0,0.0,0.0,2.8359,3.0545,3.2035,3.3628,3.5105,3.6079,3.6752,3.7352,3.8216,3.8368,3.8307,3.8323,3.8508,3.8302,3.6818,3.6522,3.5908,3.3604,0.0,3.2704,3.1849,3.3232,3.4841,3.5837,0.0,4.1552,4.2641,4.3491,4.4045,4.4159,4.4159,4.4159,4.4159,4.4159,4.4494,4.5239,4.5307,4.5307,4.5307,4.5307,4.5307,4.5307,4.5307,4.5307,4.5307,4.5307,4.5328,4.5398,4.5398,4.5409,4.5495,4.5495,4.5522,4.5594,4.5594,4.5594,4.5603,4.5739,4.5771,4.5773,4.5869,4.5894,4.5786,4.4968,4.4221,4.3509,0.0,0.0,0.0,0.0,0.0,0.0,0.0,0.0,0.0,0.0,1.9679,1.9699,0.0,0.0,0.0,0.0,0.0,0.0,0.0,0.0,0.0,2.4885,2.4005,2.4208,2.5729,2.5064,0.0,0.0,0.0,0.0,0.0,0.0,0.0,0.0,0.0,0.0,0.0,0.0,0.0,0.0,0.0,0.0,0.0,0.0,0.0,0.0,0.0,0.0,0.0,0.0,3.1329,3.294,3.39,3.5294,3.6741,3.7588,3.7916,3.8028,3.8204,3.8274,3.8305,3.8368,3.7985,3.7356,3.6511,3.5307,0.0,0.0,3.1211,3.051,2.9687,3.1211,3.3089,3.4626,3.7443,4.0215,4.2488,4.3491,4.4274,0.0,0.0,0.0,0.0,0.0,0.0,0.0,4.5307,4.5307,4.5307,4.5307,4.5307,4.5307,4.5307,4.5307,4.5307,4.5307,4.5307,4.5317,4.5317,4.536,4.5419,4.5419,4.5485,4.5594,4.5594,0.0,4.5594,4.5629,4.5618,4.5651,4.5834,4.5863,4.5744,4.5144,4.4711,4.4209,0.0,0.0,0.0,0.0,0.0,0.0,0.0,2.032,2.066,2.027,2.0975,2.1384,2.0996,2.2036,2.2772,0.0,0.0,0.0,0.0,0.0,0.0,0.0,0.0,2.4446,0.0,0.0,0.0,0.0,0.0,0.0,0.0,0.0,0.0,0.0,0.0,0.0,0.0,0.0,0.0,0.0,0.0,0.0,0.0,0.0,0.0,0.0,0.0,0.0,0.0,0.0,3.1093,3.3067,3.4715,3.6327,3.7701,3.81,3.8209,3.8209,3.8209,3.8241,3.8323,3.8385,3.7862,3.679,3.4825,0.0,0.0,0.0,2.9549,2.9464,2.9078,3.0598,0.0,3.3574,3.5881,3.8585,4.1556,4.239,0.0,0.0,0.0,0.0,0.0,4.5307,4.5307,4.5307,4.5307,4.5307,4.5307,4.5307,4.5307,4.5307,4.5307,4.5307,4.5307,4.5307,4.5317,4.5348,4.536,4.539,4.5448,4.5495,4.555,4.5594,4.5594,4.5594,4.5594,4.5594,4.5594,4.5612,4.5715,4.5711,4.5654,4.5413,4.4757,4.386,0.0,0.0,0.0,0.0,0.0,0.0,0.0,2.0845,2.1124,2.1291,2.2728,2.3516,2.2925,2.3329,2.355,0.0,0.0,0.0,0.0,0.0,0.0,0.0,0.0,0.0,0.0,0.0,0.0,0.0,0.0,0.0,0.0,0.0,0.0,0.0,0.0,0.0,0.0,0.0,0.0,0.0,0.0,0.0,0.0,0.0,0.0,0.0,0.0,0.0,0.0,0.0,2.9957,3.2017,3.3918,3.6091,3.7937,3.7937,3.8064,3.8209,3.8209,3.8241,3.8289,3.8352,3.7685,3.623,3.3258,3.246,0.0,0.0,2.8436,2.895,2.8767,2.998,3.1317,0.0,3.4074,3.6566,4.0165,4.1108,4.2334,0.0,0.0,0.0,4.5307,4.5307,0.0,4.5307,4.5307,4.5307,4.5307,4.5307,4.5307,4.5307,4.5307,4.5307,4.5307,4.5307,4.5328,4.5388,4.538,4.5438,4.5485,4.5559,4.5586,4.5594,4.5594,4.5594,4.5594,4.5594,4.5594,4.5594,4.5637,4.5629,4.5603,4.564,4.4901,4.3823,0.0,0.0,0.0,0.0,0.0,0.0,0.0,2.0957,2.2145,2.2887,2.4426,2.5439,2.5373,2.4787,2.4072,0.0,0.0,0.0,0.0,0.0,0.0,0.0,0.0,0.0,0.0,0.0,0.0,0.0,0.0,0.0,0.0,0.0,0.0,0.0,0.0,0.0,0.0,0.0,0.0,0.0,0.0,0.0,0.0,0.0,0.0,0.0,0.0,0.0,0.0,0.0,0.0,3.0056,3.0273,3.3462,3.7104,3.7104,0.0,0.0,3.8209,3.8209,3.8242,3.829,3.7207,3.5498,3.3067,0.0,0.0,2.8301,2.8436,2.8785,2.8044,2.8212,2.8952,3.0567,0.0,3.3987,3.8314,4.0262,4.1941,4.389,0.0,0.0,4.5307,4.5307,4.5307,4.5307,4.5307,4.5307,4.5307,4.5307,4.5307,4.5307,4.5307,4.5307,4.5307,4.5307,4.5307,4.5307,4.5369,4.54,4.541,4.5485,4.5531,4.5594,4.5594,4.5594,0.0,4.5594,4.5594,4.5612,4.5727,4.5715,4.561,4.5803,4.5673,4.5202,0.0,0.0,0.0,0.0,0.0,0.0,2.0845,2.1179,2.193,2.3739,2.4993,2.5708,2.5708,2.5856,2.5401,2.4101,0.0,0.0,0.0,0.0,0.0,0.0,0.0,0.0,0.0,0.0,0.0,0.0,0.0,0.0,0.0,0.0,0.0,0.0,0.0,0.0,0.0,0.0,0.0,0.0,0.0,0.0,0.0,0.0,0.0,0.0,0.0,0.0,0.0,0.0,0.0,0.0,2.9658,3.1777,0.0,0.0,3.6127,3.6979,3.7955,3.8209,3.8225,3.829,3.7124,3.519,3.2361,0.0,3.0515,2.7614,2.8065,2.8748,2.7952,2.7874,2.8307,2.9455,2.9667,3.1219,3.561,3.7351,3.9268,4.2144,4.3692,0.0,0.0,0.0,4.5307,4.5307,4.5307,4.5307,4.5307,4.5307,4.5307,4.5307,4.5307,4.5307,4.5307,4.5307,4.5307,4.5307,4.537,4.54,4.541,4.5513,4.5577,4.5594,4.5594,4.5594,0.0,4.5594,4.5594,4.5622,4.5651,4.5654,4.5612,4.5692,4.5387,4.4773,0.0,0.0,0.0,0.0,0.0,1.949,2.1365,2.1365,2.1967,2.4221,2.5206,2.5801,2.6042,2.6349,2.6089,2.4946,2.4648,0.0,0.0,0.0,0.0,0.0,0.0,0.0,0.0,0.0,0.0,0.0,0.0,0.0,0.0,0.0,0.0,0.0,0.0,0.0,0.0,0.0,0.0,0.0,0.0,0.0,0.0,0.0,0.0,0.0,0.0,0.0,0.0,0.0,0.0,0.0,0.0,0.0,0.0,0.0,3.4971,3.6093,3.7468,3.8028,3.8209,3.8257,3.6894,3.4782,0.0,3.1029,3.007,2.7112,2.7823,2.8652,2.764,2.764,2.7915,2.8235,2.8323,2.9805,3.3907,3.5563,3.7606,0.0,0.0,4.3887,0.0,4.5144,4.5307,4.5307,4.5307,4.5307,4.5307,4.5307,4.5307,4.5307,4.5307,4.5307,4.5307,4.5307,4.5307,4.5307,4.538,4.539,4.541,4.5513,4.5577,4.5594,4.5594,4.5594,0.0,4.5594,4.5594,4.5594,4.5594,4.5594,4.5594,4.5594,4.5104,4.431,0.0,0.0,0.0,0.0,0.0,0.0,2.0437,2.1476,2.2598,2.4276,2.5206,2.5996,2.6795,2.6182,2.5708,2.5689,2.4964,0.0,0.0,0.0,0.0,0.0,0.0,0.0,0.0,0.0,0.0,0.0,0.0,0.0,0.0,0.0,0.0,0.0,0.0,0.0,0.0,0.0,0.0,0.0,0.0,0.0,0.0,0.0,0.0,0.0,0.0,0.0,0.0,0.0,0.0,0.0,0.0,0.0,0.0,0.0,3.4552,3.5967,3.6796,3.7593,3.8209,3.8209,3.6445,3.4076,3.1642,3.0545,2.9345,2.6991,2.7771,2.8434,2.6914,2.7255,2.753,2.6759,2.7959,3.0206,3.3701,3.564,3.7779,0.0,0.0,4.2848,4.3909,4.4781,4.5307,4.5307,4.5307,0.0,4.5307,4.5307,4.5307,4.5307,4.5307,4.5307,4.5307,4.5307,4.5307,4.5307,4.5378,4.539,4.541,4.5476,4.555,4.5594,4.5594,4.5594,0.0,4.5594,4.5594,4.5594,4.5594,4.5594,4.5594,4.5594,4.5056,4.4207,0.0,0.0,0.0,0.0,0.0,0.0,0.0,2.0548,2.115,2.3322,2.3341,2.3702,2.5113,2.4501,2.4161,2.4579,2.455,0.0,0.0,0.0,0.0,0.0,0.0,0.0,0.0,0.0,0.0,0.0,0.0,0.0,0.0,0.0,0.0,0.0,0.0,0.0,0.0,0.0,0.0,0.0,0.0,0.0,0.0,0.0,0.0,0.0,0.0,0.0,0.0,0.0,0.0,0.0,0.0,0.0,0.0,0.0,0.0,0.0,3.2496,3.3173,3.3674,3.3349,3.2716,3.1551,2.9127,2.9268,2.9271,2.6918,2.7748,2.8434,2.6885,2.6814,2.7255,2.8106,2.8675,3.0201,3.3654,0.0,0.0,4.0003,4.2713,4.4527,0.0,0.0,4.5307,4.5307,4.5307,4.5307,4.5307,4.5307,4.5307,4.5307,4.5307,4.5307,4.5307,4.5307,4.5307,4.5307,4.5378,4.5399,4.539,4.5467,4.5513,4.5522,4.5577,4.5594,4.5594,4.5594,4.5594,4.5594,4.5594,4.5594,4.5537,4.494,4.4528,4.4094,0.0,0.0,0.0,0.0,0.0,0.0,0.0,2.0184,2.0585,2.2107,2.2126,2.2505,2.3851,2.3179,2.303,2.4006,2.3907,0.0,0.0,0.0,0.0,0.0,0.0,0.0,0.0,0.0,0.0,0.0,0.0,0.0,0.0,0.0,0.0,0.0,0.0,0.0,0.0,0.0,0.0,0.0,0.0,0.0,0.0,0.0,0.0,0.0,0.0,0.0,0.0,0.0,0.0,0.0,0.0,0.0,0.0,0.0,2.7782,2.8708,0.0,3.0772,3.1082,3.0912,3.0391,2.9575,2.8171,2.8438,2.8573,2.7139,2.7915,2.8399,2.6885,2.6851,2.7291,2.7978,2.8601,3.0184,0.0,0.0,0.0,4.0041,0.0,0.0,0.0,4.5105,4.5307,4.5307,4.5307,4.5307,4.5307,4.5307,4.5307,4.5307,4.5307,4.5307,4.5307,4.5307,4.5307,4.5307,4.5338,4.5388,4.5408,4.5438,4.5485,4.5504,4.5568,4.5594,0.0,4.5594,4.5594,4.5594,4.5594,4.5594,4.5498,4.4624,4.4105,4.3643,0.0,0.0,0.0,0.0,0.0,0.0,0.0,2.0177,2.0641,2.0715,2.1365,2.2107,2.2868,2.2088,2.217,2.3757,0.0,0.0,0.0,0.0,0.0,0.0,0.0,0.0,0.0,0.0,0.0,2.5243,2.5349,2.5735,2.6335,0.0,0.0,0.0,0.0,0.0,0.0,0.0,0.0,0.0,0.0,0.0,0.0,0.0,0.0,0.0,0.0,0.0,0.0,0.0,0.0,0.0,0.0,0.0,0.0,0.0,0.0,0.0,0.0,2.9773,2.9966,3.0198,2.9186,2.817,2.8386,2.793,0.0,2.7583,2.8233,2.8377,2.702,2.7328,2.7603,2.7034,2.8235,3.0363,0.0,3.5073,0.0,0.0,4.2908,0.0,4.4083,4.4819,4.5307,4.5307,4.5307,4.5307,4.5307,4.5307,4.5307,4.5307,4.5307,4.5307,4.5307,4.5307,4.5307,4.5307,4.5307,4.5338,4.5408,4.54,4.5438,0.0,4.5568,4.5594,4.5594,4.5594,4.5594,4.5594,4.5594,4.5594,4.5498,4.4566,4.3739,4.297,0.0,0.0,0.0,0.0,0.0,0.0,0.0,0.0,0.0,0.0,2.0054,2.024,2.0426,2.0088,2.0425,0.0,0.0,0.0,0.0,0.0,0.0,0.0,0.0,0.0,0.0,0.0,0.0,2.3633,2.4822,2.4879,2.3932,2.4348,0.0,0.0,0.0,0.0,0.0,0.0,0.0,0.0,0.0,0.0,0.0,0.0,0.0,0.0,0.0,2.2809,0.0,0.0,0.0,0.0,0.0,0.0,0.0,0.0,2.2984,2.2638,2.4477,0.0,2.6971,2.6934,2.7116,2.7194,0.0,2.7568,2.8184,2.7699,0.0,0.0,2.8487,2.8099,2.8338,3.0001,3.1109,3.2674,3.533,0.0,0.0,4.1954,4.3814,4.4991,4.4991,4.5182,4.5307,4.5307,4.5307,4.5307,4.5307,4.5307,4.5307,4.5307,4.5307,4.5307,4.5307,4.5307,4.5307,4.5307,4.5348,4.5369,4.5408,4.5438,4.5485,4.5504,4.5568,4.5594,4.5594,4.5594,4.5594,4.5594,4.5594,4.5594,4.5421,4.3932,4.3258,4.2874,0.0,0.0,0.0,0.0,0.0,0.0,0.0,0.0,0.0,0.0,0.0,1.9562,1.946,1.9274,0.0,0.0,0.0,0.0,0.0,0.0,0.0,0.0,0.0,0.0,0.0,0.0,0.0,0.0,0.0,2.4734,0.0,0.0,0.0,0.0,0.0,0.0,0.0,0.0,0.0,0.0,0.0,0.0,0.0,0.0,0.0,0.0,2.0671,2.1487,0.0,2.2824,2.4137,2.5489,0.0,0.0,0.0,0.0,2.1833,2.1512,2.3001,2.385,2.4565,2.5628,2.6073,2.6415,2.6946,0.0,0.0,0.0,0.0,0.0,0.0,0.0,0.0,0.0,3.1843,0.0,0.0,0.0,4.1857,4.2146,4.3779,4.4941,0.0,4.5057,4.5132,4.5297,4.5307,4.5307,4.5307,4.5307,4.5307,4.5307,4.5307,4.5307,4.5307,4.5307,4.5317,4.5338,4.5369,4.5399,4.5409,4.5467,4.5504,4.5504,4.5568,4.5594,4.5594,4.5594,4.5594,4.5556,4.5171,4.4998,4.4797,4.3124,4.2508,4.2316,0.0,0.0,0.0,0.0,0.0,0.0,0.0,0.0,0.0,0.0,0.0,0.0,0.0,0.0,0.0,0.0,0.0,0.0,0.0,0.0,0.0,0.0,0.0,0.0,0.0,0.0,0.0,0.0,0.0,0.0,0.0,0.0,2.3598,0.0,0.0,0.0,0.0,0.0,0.0,0.0,0.0,0.0,0.0,0.0,0.0,0.0,0.0,0.0,0.0,2.1786,2.3088,2.4305,2.3224,0.0,0.0,0.0,0.0,0.0,2.2902,2.2936,2.3042,2.548,2.5825,2.5961,2.7464,0.0,0.0,0.0,0.0,0.0,0.0,2.8172,0.0,0.0,0.0,0.0,3.7724,4.0108,4.1632,4.1994,4.3431,0.0,4.4714,4.4739,4.4856,4.514,4.5194,4.5216,4.5216,4.5267,4.5307,4.5307,4.5307,4.5307,4.5307,4.5307,4.5338,4.5408,4.5399,4.5409,4.5419,4.5485,4.5513,4.5513,0.0,0.0,4.5402,4.5402,4.5325,4.5152,4.4412,4.4124,4.3932,4.2374,4.1788,4.1681,0.0,0.0,0.0,0.0,0.0,0.0,0.0,0.0,0.0,0.0,0.0,0.0,0.0,0.0,0.0,0.0,0.0,0.0,0.0,0.0,0.0,0.0,0.0,0.0,2.2914,0.0,0.0,0.0,0.0,0.0,2.3633,2.3014,2.2696,2.2689,0.0,0.0,0.0,0.0,0.0,0.0,0.0,0.0,0.0,0.0,0.0,0.0,0.0,0.0,0.0,2.0538,2.2209,2.4034,2.1366,0.0,0.0,0.0,0.0,0.0,2.2479,2.3308,2.3743,2.5895,2.6366,2.6355,2.6464,0.0,0.0,0.0,0.0,0.0,0.0,2.9824,3.0577,0.0,0.0,3.6629,0.0,0.0,4.1764,4.2497,0.0,4.443,4.4452,4.4452,4.4479,4.4519,4.4758,4.4879,4.4879,4.5151,4.5307,4.5307,4.5307,4.5307,4.5307,4.5367,4.5398,4.5408,4.5458,4.5485,4.5495,4.5559,4.5586,4.5586,0.0,4.519,4.4489,4.4489,4.4105,4.347,4.3335,4.3278,4.3162,4.2181,4.1788,4.1681,0.0,0.0,0.0,0.0,0.0,0.0,0.0,0.0,0.0,0.0,0.0,0.0,0.0,0.0,0.0,0.0,0.0,0.0,0.0,0.0,0.0,0.0,2.319,2.319,2.3107,0.0,0.0,0.0,0.0,2.4406,2.3371,2.3339,2.2893,2.2183,0.0,0.0,0.0,0.0,0.0,0.0,0.0,0.0,0.0,0.0,0.0,0.0,0.0,0.0,0.0,0.0,2.2175,2.3004,2.1211,0.0,0.0,0.0,0.0,0.0,2.0876,2.187,2.2829,2.5378,2.7243,2.8458,2.856,0.0,0.0,0.0,0.0,0.0,0.0,0.0,3.2449,3.533,0.0,3.8138,3.968,4.0704,4.1572,0.0,0.0,4.398,4.4181,4.4177,4.425,4.4402,4.4506,4.4585,4.4585,4.4733,4.4875,4.5023,4.4616,4.4443,4.4609,4.4211,4.4461,4.5409,4.5467,4.5513,4.554,4.5096,4.4893,4.4874,0.0,4.4008,4.3643,4.3643,4.3431,4.3047,4.2585,4.2412,4.2297,4.1412,4.1104,4.1046,0.0,0.0,0.0,0.0,0.0,0.0,0.0,0.0,0.0,0.0,0.0,0.0,0.0,0.0,0.0,0.0,0.0,0.0,0.0,0.0,2.2914,2.3089,2.3661,2.374,2.3295,0.0,2.4758,2.4248,2.5064,2.466,2.3118,2.3367,2.2874,0.0,0.0,0.0,0.0,0.0,0.0,0.0,0.0,0.0,0.0,0.0,0.0,0.0,0.0,0.0,0.0,0.0,0.0,0.0,0.0,0.0,0.0,1.8882,1.8189,1.8408,2.0099,2.1109,2.2354,2.5049,0.0,2.9263,3.0263,0.0,0.0,0.0,0.0,0.0,0.0,3.2944,0.0,3.7345,3.8303,3.9056,4.0047,4.0561,4.1203,4.2176,4.2671,4.312,4.3566,4.3616,4.3689,4.3889,4.3975,4.3924,4.3737,4.3792,4.3928,4.4134,4.3608,4.3415,4.3628,4.3091,4.3474,4.4815,4.4881,4.4954,4.4998,4.4316,4.4028,4.397,4.3374,4.2989,4.2797,4.2797,4.2681,4.2412,4.1758,4.1508,4.1412,4.0746,4.0496,4.0496,0.0,0.0,0.0,0.0,0.0,0.0,0.0,0.0,0.0,0.0,0.0,0.0,0.0,0.0,0.0,0.0,0.0,0.0,0.0,0.0,2.2382,2.3072,2.2984,2.3211,2.3838,2.459,2.5099,2.5293,2.4689,2.389,2.2905,2.226,2.1912,2.1812,0.0,0.0,0.0,0.0,0.0,0.0,0.0,0.0,0.0,0.0,0.0,0.0,0.0,0.0,0.0,0.0,0.0,0.0,0.0,0.0,2.1021,2.0116,1.9355,1.9299,2.1519,2.2682,2.3699,2.5592,2.5903,0.0,2.9455,2.9478,0.0,3.0972,0.0,0.0,0.0,3.5564,3.7474,3.845,3.867,3.9239,4.0802,0.0,4.0561,4.2121,4.1682,4.157,4.2338,4.2411,4.2428,4.2461,4.2674,4.2504,4.1742,4.2004,4.2183,4.2195,4.2382,4.2492,4.2515,4.2697,4.2881,4.3089,4.3162,4.3225,4.3278,4.3201,4.3181,4.3181,4.3124,4.2643,4.1885,4.1885,4.1412,4.0689,4.0612,4.0593,4.0593,4.0516,4.0496,4.0496,0.0,0.0,0.0,0.0,0.0,0.0,0.0,0.0,0.0,0.0,0.0,0.0,0.0,0.0,0.0,0.0,0.0,0.0,0.0,0.0,2.213,2.24,2.355,2.3808,2.3052,2.3596,2.3928,2.4034,2.3626,2.325,2.2891,2.3073,0.0,0.0,0.0,0.0,0.0,0.0,0.0,0.0,0.0,0.0,0.0,0.0,0.0,0.0,0.0,0.0,0.0,0.0,2.158,2.114,2.0839,2.0619,2.0386,2.0099,1.9473,1.908,1.9959,2.1566,2.336,2.4747,2.6543,0.0,0.0,3.1569,3.23,3.4041,3.4403,0.0,0.0,0.0,3.7768,3.8579,3.8707,3.9093,4.0194,4.0084,4.0304,4.1423,4.1279,4.1224,4.1517,4.1535,4.1535,4.1535,4.1648,4.1562,4.1267,4.1373,4.152,4.168,4.129,4.1173,4.1348,4.0957,4.0848,4.1054,4.2325,4.297,4.3013,4.2475,4.2253,4.2258,4.172,4.1296,4.0989,4.0989,4.0804,4.0496,4.0496,4.0496,4.0496,4.0496,4.0496,4.0496,0.0,0.0,0.0,0.0,0.0,0.0,0.0,0.0,0.0,0.0,0.0,0.0,0.0,0.0,0.0,0.0,0.0,0.0,0.0,0.0,2.1352,2.1523,2.2777,2.3017,2.2048,2.2517,2.2869,2.312,2.2968,2.3023,2.3238,0.0,0.0,0.0,0.0,0.0,0.0,0.0,0.0,0.0,0.0,0.0,0.0,0.0,0.0,0.0,0.0,0.0,0.0,0.0,2.1617,2.119,2.119,2.0653,2.0002,2.0002,1.9642,1.9249,1.9249,2.1092,2.3275,2.4301,0.0,0.0,3.2134,3.3394,3.4659,3.6655,3.7055,0.0,0.0,0.0,0.0,0.0,3.8707,3.8982,3.979,3.968,3.9827,4.0634,4.049,4.0435,4.0708,4.0726,4.0726,4.0726,4.0726,4.06,4.0361,4.0343,4.0433,4.0604,4.0154,3.9998,4.0194,3.9727,3.9592,3.978,4.1244,4.202,4.2155,4.1577,4.1344,4.1349,4.0758,4.0496,4.0496,4.0496,4.0496,4.0496,4.0496,4.0496,4.0496,4.0496,4.0496,4.0496,0.0,0.0,0.0,0.0,0.0,0.0,0.0,0.0,0.0,0.0,0.0,0.0,0.0,0.0,0.0,0.0,0.0,0.0,0.0,1.9696,1.992,2.046,2.0317,2.0467,2.0972,2.1516,2.216,2.2907,2.2891,2.3272,2.3967,2.2477,0.0,0.0,0.0,0.0,0.0,0.0,0.0,0.0,0.0,0.0,0.0,0.0,0.0,0.0,0.0,0.0,0.0,0.0,2.119,2.119,2.119,0.0,0.0,2.0002,2.0002,2.0002,2.0002,2.1708,2.3711,0.0,0.0,0.0,3.326,3.4519,3.5699,3.8196,0.0,3.8707,3.8707,3.8707,0.0,3.8707,3.8707,3.8982,3.9772,3.9203,3.9001,3.979,3.9184,3.9019,3.9808,3.9882,3.9882,3.9882,3.9882,3.9533,3.8744,3.8707,3.8707,3.8707,3.8964,3.9101,3.9101,3.9363,3.9483,3.9514,3.9762,4.007,4.0407,4.0477,4.0502,4.051,4.0492,4.0496,4.0496,4.0496,4.0496,4.0496,4.0496,4.0496,4.0496,4.0496,4.0496,4.0496,0.0,0.0,0.0,0.0,0.0,0.0,0.0,0.0,0.0,0.0,0.0,0.0,0.0,0.0,0.0,0.0,0.0,0.0,0.0,1.9167,1.9501,1.9516,2.0807,2.1137,2.0308,0.0,2.1912,2.3669,2.2626,2.2493,0.0,0.0,0.0,2.2129,0.0,0.0,0.0,0.0,0.0,0.0,0.0,0.0,0.0,0.0,0.0,0.0,0.0,0.0,0.0,0.0,0.0,0.0,2.1021,0.0,2.0002,2.0002,2.0403,2.072,2.0137,2.2299,0.0,2.5232,0.0,0.0,0.0,3.4856,0.0,0.0,3.8707,3.8707,3.8707,3.8707,0.0,3.8707,3.8707,3.8781,3.9019,3.8854,3.8799,3.9038,3.8854,3.8799,3.9038,3.9056,3.9056,3.9056,3.9056,3.8946,3.8707,3.8707,3.8707,3.8707,3.878,3.8807,3.8807,3.891,3.9031,3.9219,3.9298,3.9609,4.012,4.0325,4.0466,4.0492,4.0508,4.0496,4.0496,4.0496,4.0496,4.0496,4.0496,4.0496,4.0496,4.0496,4.0496,4.0496,0.0,0.0,0.0,0.0,0.0,0.0,0.0,0.0,0.0,0.0,0.0,0.0,0.0,0.0,0.0,0.0,0.0,0.0,0.0,0.0,1.919,1.9,2.0428,2.1062,2.0726,2.1287,2.2243,0.0,0.0,0.0,0.0,0.0,0.0,2.2675,0.0,2.2477,0.0,0.0,0.0,0.0,0.0,1.9319,1.9563,0.0,0.0,0.0,0.0,0.0,0.0,0.0,0.0,0.0,2.0327,0.0,1.9558,1.9558,2.0099,2.0822,2.1231,2.3471,0.0,2.6634,3.0098,3.3811,3.5597,0.0,0.0,0.0,0.0,3.8707,3.8707,3.8707,0.0,3.8707,3.8707,3.8707,3.8707,3.8707,3.8707,3.8707,3.8707,3.8707,3.8707,3.8707,3.8707,3.8707,3.8707,3.8707,3.8707,3.8707,3.8707,3.8707,3.8707,3.8707,3.8707,3.8707,3.878,3.8935,3.9045,3.9287,3.9656,4.0071,4.026,4.0311,4.043,4.0496,4.0496,4.0496,4.0496,4.0496,4.0496,4.0496,4.0496,4.0496,4.0496,4.0496,0.0,0.0,0.0,0.0,0.0,0.0,0.0,0.0,0.0,0.0,0.0,0.0,0.0,0.0,0.0,0.0,0.0,0.0,0.0,0.0,1.8981,1.879,1.9605,2.0685,2.1978,0.0,0.0,0.0,0.0,0.0,0.0,0.0,2.1812,2.3768,0.0,2.2294,0.0,0.0,0.0,0.0,1.8868,1.8673,1.8932,2.0348,0.0,0.0,0.0,0.0,0.0,0.0,0.0,0.0,1.9549,1.9007,1.8894,1.8894,1.9473,2.0555,2.2646,2.4792,0.0,2.8367,3.1234,0.0,3.6901,3.812,3.8707,3.8707,0.0,3.8707,3.8707,3.8707,3.8707,3.8707,3.8707,3.8707,3.8707,3.8707,3.8707,3.8707,3.8707,3.8707,3.8707,3.8707,3.8707,3.8707,3.8707,3.8707,3.8707,3.8707,3.8707,3.8707,3.8707,3.8707,3.8707,3.8707,3.8707,3.8707,3.895,3.9064,3.9085,3.9709,3.9992,4.0042,4.0364,4.0496,4.0496,4.0496,4.0496,4.0496,4.0496,4.0496,4.0496,4.0496,4.0496,4.0496,0.0,0.0,0.0,0.0,0.0,0.0,0.0,0.0,0.0,0.0,0.0,0.0,0.0,0.0,0.0,0.0,0.0,0.0,0.0,0.0,1.8778,1.8568,2.0379,2.2058,2.3503,2.2543,2.1763,0.0,0.0,0.0,0.0,0.0,0.0,2.2243,0.0,2.0754,0.0,0.0,0.0,1.7982,1.7816,1.7804,1.7915,1.8262,1.8326,0.0,0.0,0.0,0.0,0.0,0.0,0.0,2.0801,1.987,1.8894,1.8894,1.9858,2.1068,2.1596,2.4269,0.0,0.0,3.2448,3.6007,3.7221,3.812,3.8707,3.8707,3.8707,3.8707,3.8707,3.8707,3.8707,3.8707,3.8707,3.8707,3.8707,3.8707,3.8707,3.8707,3.8707,3.8707,3.8707,3.8707,3.8707,3.8707,3.8707,3.8707,3.8707,3.8707,3.8707,3.8707,3.8707,3.8707,3.8707,3.8707,3.8707,3.8707,3.875,3.8822,3.8869,3.9489,3.9918,4.0167,4.0397,4.0496,4.0496,4.0496,4.0496,4.0496,4.0496,4.0496,4.0496,4.0496,4.0496,4.0496,0.0,0.0,0.0,0.0,0.0,0.0,0.0,0.0,0.0,0.0,0.0,0.0,0.0,0.0,0.0,0.0,0.0,0.0,0.0,0.0,1.9454,2.0058,2.1516,2.2359,2.2426,2.1996,2.1085,0.0,0.0,0.0,0.0,0.0,0.0,2.2293,0.0,2.0818,0.0,0.0,0.0,1.8078,1.8078,1.7909,1.7679,1.8037,1.7782,1.7378,1.8532,0.0,0.0,0.0,0.0,0.0,0.0,0.0,1.8504,1.9232,1.9756,2.0509,2.2371,0.0,0.0,3.1029,0.0,3.627,3.7279,3.812,3.8707,3.8707,3.8707,3.8707,3.8707,3.8707,3.8707,3.8707,3.8707,3.8707,3.8707,3.8707,3.8707,3.8707,3.8707,3.8707,3.8707,3.8707,3.8707,3.8707,3.8707,3.8707,3.8707,3.8707,3.8707,3.8707,3.8707,3.8707,3.8707,3.8707,3.8707,3.8707,3.8707,3.875,3.8848,3.9337,3.9799,4.0214,4.0313,4.0397,4.0496,4.0496,4.0496,4.0496,4.0496,4.0496,4.0496,4.0496,4.0496,4.0496,0.0,0.0,0.0,0.0,0.0,0.0,0.0,0.0,0.0,0.0,0.0,0.0,0.0,0.0,0.0,0.0,0.0,0.0,0.0,1.8809,2.0194,2.1547,2.2326,2.2129,2.0917,2.1249,2.0522,0.0,0.0,0.0,0.0,0.0,0.0,2.2675,0.0,0.0,0.0,0.0,1.8771,1.8297,1.8164,1.7783,1.7356,1.7837,1.7289,1.6334,1.7147,1.7411,1.7665,1.927,0.0,0.0,0.0,0.0,1.7901,1.9389,1.9287,1.9459,2.2915,0.0,2.8581,3.2931,3.4754,0.0,3.7014,3.7918,3.8524,3.867,3.8707,3.8707,3.8707,3.8707,3.8707,3.8707,3.8707,3.8707,3.8707,3.8707,3.8707,3.8707,3.8707,3.8707,3.8707,3.8707,3.8707,3.8707,3.8707,3.8707,3.8707,3.8707,3.8707,3.8707,3.8707,3.8707,3.8707,3.8707,3.8707,3.8707,3.8704,3.878,3.8925,3.9197,3.9597,4.0081,4.0158,4.0295,4.0457,4.0481,4.0496,4.0496,4.0496,4.0496,4.0496,4.0496,4.0496,4.0496,0.0,0.0,0.0,0.0,0.0,0.0,0.0,0.0,0.0,0.0,0.0,1.7991,1.7053,1.683,0.0,0.0,0.0,0.0,1.657,0.0,0.0,2.0801,2.1547,2.1862,2.1663,2.0492,1.975,0.0,0.0,0.0,0.0,0.0,0.0,2.1895,0.0,0.0,0.0,0.0,0.0,1.6647,1.6011,1.5737,1.566,1.5101,1.4857,1.4883,1.5629,1.5883,1.6221,1.8335,1.8978,0.0,0.0,0.0,1.7145,1.8606,1.8521,1.8364,2.0271,0.0,2.837,0.0,3.3391,3.4985,0.0,0.0,3.786,0.0,3.8707,3.8707,3.8707,3.8707,3.8707,3.8707,3.8707,3.8707,3.8707,3.8707,3.8707,3.8707,3.8707,3.8707,3.8707,3.8707,3.8707,3.8707,3.8707,3.8707,3.8707,3.8707,3.8707,3.8707,3.8707,3.8707,3.8707,3.8707,3.8707,3.8707,3.8765,3.8837,3.8892,3.9007,3.9245,3.9616,4.0031,4.0223,4.026,4.0433,4.0496,4.0496,4.0496,4.0496,4.0496,4.0496,4.0496,4.0496,0.0,0.0,0.0,0.0,0.0,0.0,0.0,0.0,0.0,0.0,0.0,1.7793,1.6932,1.6285,0.0,0.0,0.0,0.0,1.6337,1.7657,0.0,0.0,0.0,0.0,2.0558,1.9164,0.0,0.0,0.0,0.0,0.0,2.0522,2.1218,0.0,0.0,0.0,0.0,0.0,0.0,1.637,1.6044,1.6203,0.0,0.0,1.4917,1.5563,1.4673,0.0,0.0,0.0,1.767,1.7941,1.9507,0.0,0.0,0.0,1.776,1.8008,2.1767,2.4715,2.7552,0.0,3.2663,3.3954,3.5268,3.6211,3.707,3.7845,3.8028,3.8175,3.8615,3.8707,3.8707,3.8707,3.8707,3.8707,3.8707,3.8707,3.8707,3.8707,3.8707,3.8707,3.8707,3.8707,3.8707,3.8707,3.8707,3.8707,3.8707,3.8707,3.8707,3.8707,3.8707,3.8707,3.8707,3.8707,3.8707,3.8707,3.878,3.8837,3.8892,3.8964,3.9183,3.9508,3.9732,3.9878,3.9983,4.0232,4.033,4.0339,4.0457,4.0496,4.0496,4.0496,4.0496,4.0496,0.0,0.0,0.0,0.0,0.0,0.0,0.0,0.0,0.0,0.0,0.0,0.0,1.6777,0.0,0.0,0.0,0.0,0.0,1.6039,0.0,0.0,0.0,0.0,0.0,1.9068,0.0,0.0,0.0,0.0,0.0,2.0702,2.0884,2.216,0.0,2.3305,0.0,0.0,0.0,0.0,0.0,0.0,0.0,1.7489,1.6275,1.652,1.7204,0.0,0.0,0.0,0.0,0.0,0.0,0.0,0.0,0.0,0.0,0.0,0.0,0.0,0.0,2.6283,2.9911,3.1653,3.2903,0.0,0.0,3.6106,0.0,3.7199,3.7382,3.7973,3.8432,3.8707,3.8707,3.8707,3.8707,3.8707,3.8707,3.8707,3.8707,3.8707,3.8707,3.8707,3.8707,3.8707,3.8707,3.8707,3.8707,3.8707,3.8707,3.8707,3.8707,3.8707,3.8707,3.8707,3.8707,3.8707,3.8707,3.875,3.8822,3.8892,3.895,3.9129,3.9395,3.9458,3.9585,3.9731,3.9983,4.0139,4.0223,4.0364,4.0457,4.0496,4.0496,4.0496,4.0496,0.0,0.0,0.0,0.0,0.0,0.0,0.0,0.0,0.0,0.0,0.0,0.0,0.0,0.0,0.0,0.0,0.0,0.0,0.0,0.0,0.0,0.0,0.0,0.0,0.0,0.0,0.0,0.0,0.0,0.0,2.0718,2.1431,2.2907,2.4978,2.3537,2.1667,1.9502,0.0,0.0,0.0,0.0,0.0,0.0,1.9185,1.9757,1.963,0.0,0.0,0.0,0.0,0.0,0.0,0.0,1.6316,1.5663,0.0,0.0,0.0,0.0,2.1571,0.0,2.7619,2.9839,3.1945,0.0,0.0,3.4927,3.6117,3.6358,3.6376,3.6413,3.7661,3.8707,3.8707,3.8707,3.8707,3.8707,3.8707,3.8707,3.8707,3.8707,3.8707,3.8707,3.8707,3.8707,3.8707,3.8707,3.8707,3.8707,3.8707,3.8707,3.8707,3.8707,3.8707,3.8707,3.8707,3.8707,3.8707,3.8707,3.878,3.891,3.8892,3.8993,3.9124,3.9401,3.9514,3.9532,3.9739,3.9963,4.0205,4.0214,4.033,4.0496,4.0496,4.0496,4.0496,0.0,0.0,0.0,0.0,0.0,0.0,0.0,0.0,0.0,0.0,0.0,0.0,0.0,0.0,0.0,0.0,0.0,0.0,0.0,0.0,0.0,0.0,0.0,0.0,0.0,0.0,0.0,0.0,0.0,1.6464,1.9313,2.0536,2.1779,2.299,2.3421,2.2907,2.1632,2.0171,0.0,0.0,0.0,0.0,0.0,0.0,0.0,0.0,0.0,0.0,0.0,0.0,0.0,0.0,1.7405,1.6576,1.5511,1.5028,1.5747,0.0,0.0,0.0,0.0,2.6296,2.8079,2.969,3.2301,3.3331,3.4002,3.4954,3.533,3.5628,3.6193,3.6762,3.7331,3.786,3.7933,3.8102,3.8634,3.8707,3.8707,3.8707,3.8707,3.8707,3.8707,3.8707,3.8707,3.8707,3.8707,3.8707,3.8707,3.8707,3.8707,3.8707,3.8707,3.8707,3.8707,3.8707,3.8707,3.8707,3.8707,3.8765,3.891,3.891,3.8979,3.9115,3.9192,3.935,3.9526,3.9728,3.9953,4.0214,4.0339,4.0441,4.0496,4.0496,4.0496,4.0496,0.0,0.0,0.0,0.0,0.0,0.0,0.0,0.0,0.0,0.0,0.0,0.0,0.0,0.0,0.0,0.0,0.0,0.0,0.0,0.0,0.0,0.0,0.0,0.0,0.0,0.0,0.0,0.0,0.0,0.0,0.0,1.8945,2.0138,2.1102,2.2096,2.2526,0.0,0.0,0.0,2.0107,0.0,0.0,2.255,0.0,0.0,0.0,0.0,0.0,0.0,0.0,0.0,0.0,0.0,1.683,1.5138,1.4639,0.0,0.0,1.7991,0.0,0.0,0.0,2.6647,2.7982,3.1019,3.2047,3.2621,3.3538,3.4185,3.4766,3.5349,3.5459,3.5807,3.6923,3.7327,3.7694,3.8212,3.8524,3.8707,3.8707,3.8707,3.8707,3.8707,3.8707,3.8707,3.8707,3.8707,0.0,3.8707,3.8707,3.8707,3.8707,3.8707,3.8707,3.8707,3.8707,3.8707,3.8707,3.8707,3.8765,3.8881,3.8896,3.8964,3.9059,3.9087,3.9192,3.937,3.9621,3.9848,4.0081,4.0302,4.0449,4.0496,4.0496,4.0496,4.0496,0.0,0.0,0.0,0.0,0.0,0.0,0.0,0.0,0.0,1.6597,0.0,0.0,0.0,0.0,0.0,0.0,1.4284,1.3937,1.3175,1.3126,0.0,0.0,0.0,0.0,0.0,0.0,0.0,0.0,0.0,0.0,0.0,0.0,1.822,1.9568,1.9584,2.0409,2.1812,0.0,2.2028,2.1012,0.0,2.3854,2.362,0.0,0.0,0.0,2.593,2.5203,0.0,2.2919,0.0,0.0,0.0,1.6898,1.4554,1.4537,0.0,0.0,0.0,0.0,0.0,0.0,0.0,0.0,3.0678,3.0951,3.0765,3.1916,3.2995,3.3752,3.3788,3.3807,3.4321,3.5954,3.6905,3.7437,3.7492,3.8175,3.867,3.8707,3.8707,3.8707,3.8707,3.8707,3.8707,3.8707,3.8707,3.8707,3.8707,3.8707,3.8707,3.8707,3.8707,3.8707,3.8707,3.8707,3.8707,3.8707,3.8707,3.8735,3.8807,3.8881,3.8939,3.9007,3.9073,3.9101,3.9129,3.9401,3.9621,3.9829,4.011,4.0321,4.0489,4.0496,4.0496,4.0496,0.0,0.0,0.0,0.0,0.0,0.0,1.6821,1.7339,1.7496,0.0,0.0,0.0,0.0,0.0,0.0,0.0,0.0,1.5238,1.3987,1.3904,1.4311,1.5269,1.6719,1.7586,1.7768,0.0,0.0,0.0,0.0,0.0,0.0,0.0,0.0,0.0,1.9353,2.0111,2.0984,2.064,0.0,0.0,2.2837,2.3885,0.0,0.0,0.0,0.0,0.0,2.7063,2.6725,0.0,2.4272,2.2243,0.0,0.0,0.0,0.0,0.0,0.0,1.7642,0.0,0.0,0.0,0.0,0.0,0.0,2.807,2.8997,3.0643,3.1441,3.2246,3.356,3.3807,3.3954,3.4412,3.5165,3.6119,3.7327,3.7694,3.8046,3.8634,3.8707,3.8707,3.8707,3.8707,3.8707,0.0,3.8707,3.8707,3.8707,3.8707,3.8707,3.8707,3.8707,3.8707,3.8707,3.8707,3.8707,3.8707,3.8707,3.8765,3.8862,3.8896,3.8964,3.9073,3.9087,3.9101,3.9129,3.9401,3.9621,3.9829,4.011,4.0242,4.0304,4.0449,4.0496,4.0496,0.0,0.0,0.0,0.0,0.0,1.8834,1.8483,1.8672,1.8718,0.0,0.0,0.0,0.0,0.0,0.0,0.0,0.0,1.6227,1.4768,1.4367,1.4526,1.5269,1.642,1.7321,1.7905,0.0,0.0,0.0,0.0,0.0,0.0,0.0,0.0,0.0,1.7491,1.8385,1.9326,0.0,0.0,0.0,2.3591,0.0,0.0,2.713,2.8112,0.0,0.0,0.0,2.823,2.7808,2.598,0.0,0.0,0.0,0.0,0.0,0.0,0.0,0.0,0.0,0.0,0.0,0.0,0.0,2.5954,2.6976,2.795,2.9651,3.0562,3.1515,3.3033,3.3199,3.3282,3.3738,3.4192,3.4949,3.6266,3.707,3.7676,3.8138,3.8505,3.8707,3.8707,3.8707,3.8707,3.8707,3.8707,3.8707,3.8707,3.8707,3.8707,3.8707,3.8707,3.8707,3.8707,3.8707,3.8707,3.8707,3.8707,3.8735,3.8825,3.8851,3.8921,3.9021,3.9064,3.9073,3.9115,3.9272,3.9464,3.9694,3.9932,4.0091,4.0214,4.033,4.0433,4.0496,0.0,0.0,2.029,1.9813,2.0207,2.0586,2.0586,2.0652,2.0669,0.0,2.0091,2.0094,0.0,0.0,0.0,0.0,0.0,1.7105,1.5641,1.4785,1.4642,1.5392,1.6055,1.7022,1.8356,1.9171,1.8588,0.0,0.0,0.0,0.0,0.0,0.0,1.4351,1.4917,1.6005,1.7349,0.0,0.0,2.1029,2.4578,2.5866,0.0,0.0,2.9583,2.9314,2.9888,2.9736,2.9213,2.9061,2.7097,0.0,0.0,0.0,0.0,0.0,2.031,0.0,0.0,0.0,0.0,0.0,0.0,0.0,2.5992,2.6618,2.7059,2.8574,2.9669,3.0767,3.2025,3.1983,3.2119,3.3246,3.3478,3.3853,3.4857,3.6285,3.729,3.7474,3.812,3.8597,3.8689,3.8707,3.8707,3.8707,3.8707,3.8707,3.8707,3.8707,3.867,3.8579,3.8579,3.8524,3.8432,3.8524,3.8579,3.8579,3.867,3.8707,3.8704,3.8762,3.8851,3.8906,3.8964,3.9036,3.9101,3.9101,3.9232,3.9471,3.9694,3.9912,4.012,4.0148,4.0295,4.0465,0.0,1.9177,1.925,2.029,2.0108,1.9813,1.9813,2.0323,2.0486,1.9896,2.0207,0.0,0.0,0.0,0.0,0.0,0.0,0.0,1.7155,1.5823,1.5408,1.6155,1.6321,1.6818,1.7685,1.8952,1.8836,1.7299,0.0,0.0,0.0,0.0,0.0,0.0,1.4609,1.5222,1.6685,0.0,0.0,2.0978,2.24,0.0,2.7242,2.7973,2.9313,3.07,3.026,3.0395,3.0581,2.9399,2.7791,2.5997,0.0,0.0,0.0,2.1854,0.0,2.2936,2.2784,0.0,0.0,0.0,0.0,0.0,2.3522,2.388,2.4701,2.598,2.6415,2.7277,2.9611,2.9498,2.9521,3.0919,3.1419,3.2434,3.4683,3.5279,3.5991,3.7345,3.7639,3.7988,3.8634,3.8707,3.8707,3.8707,3.8707,3.8707,3.8707,3.8707,3.8395,3.7749,3.7731,3.7419,3.6762,3.7419,3.7731,3.7749,3.8395,3.8719,3.8777,3.8792,3.8881,3.8979,3.8979,3.9036,3.9101,3.9101,3.9142,3.9205,3.9458,3.9592,3.9663,3.9827,4.0052,4.026,0.0,1.9631,2.0257,2.0635,2.1002,2.1253,2.1253,2.1251,2.1499,2.2246,2.299,0.0,0.0,0.0,0.0,0.0,0.0,0.0,0.0,1.6989,1.6403,1.6403,1.6403,1.6752,1.747,1.8187,1.8203,1.7503,1.6387,1.584,1.5806,1.3963,1.389,0.0,1.4526,0.0,0.0,0.0,1.9087,2.1002,2.3354,0.0,2.7782,2.9021,3.0209,3.114,3.0784,3.0886,3.0903,2.9025,2.8146,0.0,0.0,2.5304,2.5288,0.0,2.4171,2.4797,2.3697,0.0,0.0,2.4051,0.0,0.0,0.0,2.3993,2.4413,2.6181,2.5965,2.614,2.8379,2.8392,2.8475,2.9744,3.0769,3.1722,3.2625,3.4049,3.5316,3.6156,3.6633,3.7055,3.7459,3.7496,3.7661,3.8065,3.8102,3.8102,3.8102,3.7716,3.7312,3.6923,3.6905,3.6707,3.6303,3.6703,3.6905,3.6905,3.7312,3.7526,3.757,3.7974,3.8214,3.8362,3.8769,3.9007,3.9101,3.9101,3.9101,3.9115,3.9245,3.9389,3.9508,3.9621,3.9794,4.0022,0.0,2.0058,2.1185,2.0602,2.1698,2.2626,2.2508,2.221,2.2808,0.0,0.0,0.0,0.0,0.0,0.0,0.0,0.0,0.0,0.0,0.0,1.7354,1.7022,1.6619,1.6818,1.7669,1.7569,1.7635,1.7901,1.6155,1.5508,1.5889,1.4129,1.4095,1.5502,0.0,0.0,0.0,0.0,0.0,2.1886,0.0,2.6723,2.7313,2.9798,3.0751,3.0801,3.1089,3.119,3.0903,2.8906,2.8586,2.8688,2.6843,2.6962,0.0,0.0,0.0,0.0,0.0,0.0,0.0,0.0,0.0,2.4235,0.0,0.0,0.0,2.6269,2.568,2.5362,0.0,0.0,0.0,2.8365,0.0,0.0,0.0,3.2383,0.0,3.4369,3.5384,3.6032,3.5988,3.6017,3.6376,3.7217,3.7125,3.7088,3.7254,3.6652,3.6211,3.6046,3.6046,3.5973,3.5826,3.5973,3.6046,3.6046,3.6211,3.6303,3.6321,3.7125,3.7566,3.7718,3.8545,3.8964,3.9073,3.9101,3.9101,3.9101,3.9101,3.9232,3.9408,3.9408,3.9561,3.9765,1.8522,1.9234,1.9829,1.9733,2.0953,2.1713,2.105,2.1995,2.357,0.0,0.0,0.0,0.0,0.0,0.0,0.0,0.0,0.0,2.241,0.0,0.0,1.92,1.7408,1.7022,1.8356,1.7789,1.8104,1.9366,1.6624,1.6276,1.8075,1.5344,1.4857,1.6271,1.6253,0.0,0.0,0.0,2.1559,0.0,2.605,2.5765,0.0,2.7954,2.9139,2.9416,3.0717,3.119,3.1055,0.0,2.9465,2.8942,0.0,2.8247,2.7891,2.835,0.0,0.0,0.0,0.0,0.0,0.0,2.5896,0.0,0.0,0.0,2.3488,2.322,0.0,0.0,0.0,0.0,0.0,0.0,0.0,0.0,2.802,2.9768,3.1311,3.2077,3.3931,3.5048,3.4826,3.5005,3.55,3.6376,3.572,3.561,3.6395,3.634,3.5954,3.5169,3.5151,3.4802,3.4082,3.4784,3.5151,3.5169,3.5936,3.6303,3.6321,3.7125,3.7537,3.7646,3.8512,3.8935,3.9007,3.9073,3.9101,3.9101,3.9101,3.9129,3.9156,3.9156,3.9311,3.9532,1.7922,1.9164,0.0,1.9118,2.0539,2.1547,2.0801,2.3403,2.5492,0.0,0.0,0.0,0.0,0.0,0.0,0.0,0.0,2.4729,0.0,0.0,0.0,1.9634,1.8737,1.8323,1.8505,1.8224,1.8373,1.8969,1.6939,1.6403,1.7243,1.5597,1.563,1.7067,1.7552,0.0,2.2129,0.0,2.2781,0.0,0.0,0.0,0.0,2.8681,3.0224,3.0364,3.097,3.119,3.1021,0.0,2.9533,0.0,0.0,0.0,0.0,0.0,0.0,0.0,0.0,0.0,0.0,0.0,0.0,0.0,2.3996,0.0,2.3031,0.0,0.0,0.0,0.0,0.0,0.0,0.0,2.5429,0.0,0.0,0.0,2.9304,3.0277,0.0,0.0,3.3143,3.3734,3.4483,3.5481,3.4639,3.4501,3.55,3.511,3.4688,3.4321,3.4289,3.4137,3.3807,3.4137,3.4289,3.4307,3.4669,3.4853,3.4871,3.5679,3.6364,3.6951,3.7786,3.8467,3.8993,3.9036,3.9059,3.9101,3.9101,3.9101,3.9101,3.9101,3.9165,3.9298,1.8038,0.0,0.0,0.0,2.0158,2.1531,2.1597,2.4332,2.6304,2.6038,0.0,0.0,2.9317,2.9268,0.0,0.0,2.8409,2.7182,0.0,0.0,2.2675,2.1453,2.0442,1.9846,1.9714,1.9118,1.8765,1.8683,1.7065,1.6472,1.6851,1.5912,1.6292,1.7818,1.8839,2.1024,2.3984,0.0,2.4364,2.5611,2.6013,2.6167,2.6505,2.9462,3.0835,3.119,3.119,3.119,3.1004,2.9738,2.9651,0.0,2.9465,0.0,0.0,0.0,0.0,0.0,2.8907,0.0,0.0,0.0,0.0,0.0,0.0,0.0,0.0,0.0,0.0,0.0,0.0,0.0,0.0,0.0,0.0,2.5609,0.0,2.617,0.0,0.0,0.0,0.0,0.0,3.1649,3.2432,3.3483,3.2857,3.2984,3.4275,3.3775,3.3568,3.3788,3.3807,3.3807,3.3807,3.3807,3.3807,3.3807,3.3807,3.3807,3.3844,3.4876,3.573,3.6425,3.7485,3.8331,3.8964,3.8979,3.905,3.9101,3.9101,3.9101,3.9101,3.9101,3.9101,3.9129,1.9386,1.9018,0.0,0.0,1.9744,2.1448,2.357,2.4017,2.511,2.7928,0.0,0.0,0.0,0.0,0.0,0.0,0.0,3.0042,2.9231,0.0,2.458,2.5921,2.2559,2.1332,0.0,2.0657,1.9443,1.9174,1.6982,1.6649,1.8003,0.0,0.0,0.0,2.0046,2.1956,2.405,2.4813,2.6864,2.9549,2.8846,2.9549,3.0835,0.0,2.9974,3.119,3.119,0.0,0.0,3.0328,3.0072,0.0,0.0,0.0,0.0,0.0,0.0,0.0,0.0,0.0,0.0,2.7435,0.0,0.0,0.0,0.0,2.4252,0.0,0.0,0.0,0.0,0.0,0.0,0.0,0.0,0.0,0.0,0.0,0.0,0.0,0.0,0.0,0.0,2.8389,2.8806,0.0,2.9919,3.0719,3.257,3.2656,3.2999,3.377,3.3807,3.3807,3.3807,3.3807,3.3807,3.3807,3.3807,3.3807,3.3862,3.5514,3.6266,3.6409,3.8059,3.8833,3.891,3.8964,3.905,3.9101,3.9101,3.9101,3.9101,3.9101,3.9101,3.9101,0.0,0.0,0.0,0.0,0.0,2.1845,2.3073,2.5723,2.7942,0.0,0.0,0.0,0.0,3.4518,3.4419,0.0,0.0,3.2481,3.0257,2.8108,0.0,0.0,0.0,2.3619,0.0,2.2427,2.1257,2.0195,1.8953,1.8348,0.0,0.0,0.0,0.0,0.0,2.3035,0.0,0.0,0.0,0.0,0.0,2.9743,3.114,0.0,3.0787,3.119,3.119,3.119,0.0,3.0903,3.0497,3.0192,3.0666,3.0159,2.96,3.0835,3.0852,0.0,0.0,0.0,3.0717,2.8722,0.0,0.0,0.0,0.0,0.0,0.0,0.0,0.0,0.0,0.0,0.0,0.0,0.0,0.0,0.0,0.0,0.0,0.0,0.0,0.0,0.0,0.0,0.0,3.0481,3.059,0.0,3.2533,3.3096,3.3532,3.3788,3.3807,3.3807,3.3807,3.3807,3.3807,3.3807,3.3807,3.3807,3.3825,3.4394,3.5238,3.6321,3.6901,3.7787,3.8837,3.8866,3.8921,3.9036,3.9036,3.9045,3.9101,3.9101,3.9101,3.9101,2.0098,0.0,0.0,0.0,0.0,2.2542,2.3537,2.6949,0.0,0.0,3.2531,0.0,3.5876,0.0,3.5909,0.0,3.5678,3.4435,3.1487,3.0427,0.0,2.8492,2.7048,0.0,0.0,2.4448,2.291,2.1348,2.0332,1.9611,0.0,0.0,0.0,0.0,0.0,2.3634,2.5905,2.7223,2.8546,0.0,0.0,3.1067,0.0,0.0,3.1664,3.1224,0.0,3.141,3.1241,3.1495,3.1275,3.092,3.1123,3.0736,3.0313,3.0987,3.1055,3.0987,3.1464,3.1782,0.0,3.0161,2.9044,0.0,2.5743,0.0,2.5811,0.0,0.0,0.0,0.0,0.0,0.0,0.0,0.0,0.0,0.0,2.3095,0.0,0.0,0.0,0.0,0.0,0.0,2.7794,2.9585,2.9623,0.0,0.0,3.2669,3.3201,3.377,3.3807,3.3807,3.3807,3.3807,3.3807,3.3807,3.3807,3.3807,3.3807,3.41,3.5,3.6321,3.6597,3.7518,3.8807,3.8837,3.891,3.8993,3.9021,3.9059,3.9101,3.9101,3.9101,3.9101,0.0,0.0,0.0,0.0,2.2077,0.0,0.0,0.0,2.9992,0.0,3.364,3.5297,3.6075,3.6158,3.6439,3.7102,3.7152,3.5959,3.3094,3.2818,0.0,0.0,2.9334,2.8837,2.943,2.6684,2.438,0.0,0.0,0.0,0.0,0.0,0.0,0.0,2.226,0.0,2.5309,2.7539,2.9852,3.2085,3.3018,3.3406,3.3406,3.3406,3.2527,3.1393,3.2107,3.1904,3.141,3.2124,3.2344,3.2226,3.1532,3.1802,3.2226,3.1512,3.1819,3.2344,3.2344,3.2865,3.3068,3.1664,3.1241,0.0,0.0,0.0,2.8637,0.0,0.0,0.0,0.0,0.0,0.0,0.0,0.0,0.0,0.0,0.0,0.0,0.0,0.0,0.0,0.0,0.0,2.5651,2.726,2.7245,0.0,0.0,3.1415,3.2155,3.3697,3.377,3.3807,3.3807,3.3807,3.3807,3.3807,3.3807,3.3825,3.3899,3.4656,3.55,3.6395,3.718,3.7996,3.8807,3.8848,3.8921,3.8993,3.9059,3.9101,3.9101,3.9101,3.9101,3.9101,2.2408,2.3374,2.4365,0.0,2.4199,2.4398,0.0,0.0,0.0,0.0,3.5164,3.7019,3.8321,3.8453,3.8295,3.7963,3.793,0.0,0.0,0.0,0.0,3.3756,3.1851,3.0588,3.0224,2.7926,2.6252,2.5254,0.0,0.0,2.2203,0.0,0.0,0.0,0.0,0.0,2.6094,2.7792,2.9875,3.2156,3.3039,3.3406,3.3406,0.0,3.3169,3.2865,3.3051,3.3,3.2865,3.3051,3.3119,3.3085,3.2899,3.2966,3.3085,3.2899,3.2966,3.3119,3.3119,3.3271,3.3322,3.2933,3.2002,3.0987,0.0,0.0,0.0,0.0,0.0,0.0,0.0,0.0,0.0,0.0,0.0,0.0,0.0,0.0,0.0,2.4612,0.0,0.0,0.0,2.4787,2.5412,2.6995,2.8517,0.0,0.0,0.0,3.2485,3.2894,3.3495,3.3807,3.3807,3.3807,3.3807,3.3807,3.3807,3.4119,3.4692,3.4912,3.5793,3.7199,3.7419,3.797,3.8719,3.8735,3.8777,3.8866,3.8921,3.9003,3.9101,3.9101,3.9101,3.9101,2.3111,0.0,0.0,2.7013,0.0,0.0,2.7663,2.9617,0.0,3.3201,3.5564,0.0,3.8245,3.8917,3.9133,3.8709,3.8676,0.0,3.6721,0.0,0.0,3.4452,3.3541,3.2713,3.1967,2.9814,0.0,2.7164,0.0,0.0,2.2857,0.0,0.0,0.0,0.0,2.4265,2.596,2.8834,3.1066,3.2782,3.3888,3.4349,0.0,3.4349,3.4349,3.4349,3.4349,3.3964,3.3457,3.3778,3.388,3.3829,3.3508,3.3626,3.3829,3.3491,3.3626,3.388,3.388,3.4117,3.4349,3.4349,3.3744,3.2949,3.2307,3.185,3.1241,0.0,3.004,2.9939,0.0,0.0,0.0,0.0,0.0,0.0,0.0,0.0,0.0,0.0,2.458,0.0,0.0,2.4393,2.5171,2.6435,2.7615,0.0,0.0,0.0,3.2112,3.2583,3.3385,3.3807,3.3807,3.3807,3.3807,3.3807,3.3807,3.4215,3.5004,3.5004,3.5917,3.7492,3.7492,3.797,3.8707,3.8735,3.878,3.8822,3.891,3.8993,3.9045,3.9087,3.9101,3.9101,2.4147,0.0,0.0,0.0,0.0,0.0,0.0,3.0734,0.0,3.3202,0.0,3.7281,3.7384,3.851,3.9299,3.9299,0.0,3.8486,3.6555,3.7549,3.7069,3.4485,3.4899,3.48,3.3955,3.1785,2.9914,0.0,0.0,2.4249,2.2874,0.0,0.0,0.0,0.0,0.0,0.0,3.0162,3.2526,3.352,3.4986,3.56,3.56,3.56,3.56,3.56,3.56,3.4771,3.3795,3.4421,3.4641,3.4523,3.3897,3.4134,3.4523,3.388,3.415,3.4641,3.4641,3.5115,3.56,3.56,3.56,3.5261,3.3981,3.3609,3.3152,3.1765,3.0903,3.0531,0.0,0.0,0.0,0.0,0.0,0.0,0.0,0.0,0.0,0.0,0.0,0.0,0.0,0.0,0.0,0.0,0.0,0.0,0.0,0.0,3.1232,3.2417,3.333,3.3807,3.3807,3.3807,3.3807,3.3807,3.3917,3.438,3.5169,3.5279,3.6193,3.7658,3.7658,3.8046,3.8707,3.8747,3.8792,3.8822,3.8939,3.8979,3.9007,3.9078,3.9087,3.9101,2.825,0.0,0.0,0.0,0.0,3.2335,3.2927,3.3356,3.4045,3.5376,3.7021,3.8313,3.8864,3.9149,3.9299,3.9299,3.9299,0.0,0.0,0.0,0.0,3.7466,3.6986,3.6075,3.4733,3.2525,3.0427,0.0,2.5574,2.3752,2.2874,0.0,0.0,0.0,0.0,0.0,2.8092,3.0831,0.0,3.3465,3.4908,3.5566,3.56,3.56,3.56,3.56,3.56,3.543,3.5228,3.5346,3.5397,3.538,3.5245,3.5295,3.538,3.5245,3.5295,3.5397,3.5397,3.5498,3.56,3.56,3.56,3.5532,3.5261,3.4742,3.4066,3.3186,3.2425,3.1562,3.0497,0.0,0.0,0.0,0.0,0.0,0.0,0.0,0.0,0.0,0.0,2.539,0.0,0.0,0.0,0.0,0.0,0.0,0.0,0.0,2.9861,0.0,3.3036,3.3807,0.0,0.0,3.3807,3.3807,3.4472,3.5243,3.6083,3.6762,3.7569,3.8487,3.8487,3.8579,3.8707,3.8704,3.875,3.8807,3.8837,3.8892,3.8993,3.9007,3.9045,3.9101,0.0,0.0,0.0,0.0,0.0,0.0,0.0,3.4754,3.5335,3.5605,3.6843,3.7675,3.7631,3.8632,3.9299,3.9299,3.9299,3.9299,3.9299,3.8984,3.8593,3.8228,3.7864,3.6986,3.5495,3.4054,3.2067,2.9483,2.733,2.5326,2.3454,0.0,0.0,2.1879,0.0,2.6041,0.0,0.0,0.0,3.3422,3.4953,3.5571,3.56,3.56,3.56,3.56,3.56,3.56,3.56,3.56,3.56,3.56,3.56,3.56,3.56,3.56,3.56,3.56,3.56,3.56,3.56,3.56,3.56,3.56,3.56,3.5329,3.4861,3.4117,3.3372,3.229,3.0446,2.9499,0.0,0.0,0.0,0.0,0.0,0.0,0.0,0.0,0.0,0.0,0.0,0.0,0.0,0.0,0.0,0.0,2.6152,0.0,2.9059,0.0,0.0,0.0,3.3807,0.0,3.3807,3.3807,3.4619,3.5463,3.6321,3.7125,3.7951,3.8707,3.8707,3.8707,3.8707,3.8707,3.8735,3.8807,3.8837,3.8906,3.8993,3.905,3.9073,3.9101,0.0,3.1835,0.0,0.0,3.3767,3.4881,3.4465,3.5658,3.6335,3.5556,3.6316,3.6793,3.6437,3.7867,3.8942,3.9094,3.9094,3.9148,3.9299,3.9299,3.905,3.846,3.8444,3.7831,3.6506,3.5595,3.369,0.0,2.9168,2.6901,0.0,0.0,0.0,0.0,0.0,0.0,0.0,0.0,3.2714,3.3645,3.5026,3.5577,3.56,3.56,3.56,3.56,3.56,3.56,3.56,3.56,3.56,3.56,3.56,3.56,3.56,3.56,3.56,3.56,3.56,3.56,3.56,3.56,3.56,3.56,3.56,3.56,3.5346,3.4455,3.3541,3.2357,3.0463,2.9753,0.0,0.0,0.0,0.0,0.0,0.0,0.0,0.0,0.0,0.0,2.4008,0.0,0.0,0.0,0.0,0.0,2.5518,2.6602,2.8397,0.0,0.0,3.2894,3.3532,0.0,3.3899,3.4064,3.4894,3.572,3.6593,3.7401,3.8102,3.8707,3.8707,3.8707,3.8719,3.8719,3.8765,3.8837,3.8881,3.8935,3.9007,3.9045,3.9087,3.9101,0.0,0.0,0.0,0.0,0.0,3.5165,3.5131,3.6369,3.7054,3.6369,3.6384,3.6673,3.7223,3.7467,3.7809,3.8351,3.8407,3.8645,3.9272,3.9299,3.9265,3.9199,3.9199,3.8808,3.803,3.6622,3.4468,0.0,0.0,2.6901,0.0,0.0,0.0,0.0,0.0,0.0,0.0,3.2167,3.3383,3.4369,3.5178,3.5543,3.56,3.56,3.56,3.56,3.56,3.56,3.56,3.56,3.56,3.56,3.56,3.56,3.56,3.56,3.56,3.56,3.56,3.56,3.56,3.56,3.56,3.56,3.56,3.56,3.5194,3.3795,3.2374,3.114,3.026,3.0581,3.0311,0.0,0.0,0.0,0.0,0.0,2.6828,0.0,0.0,0.0,0.0,2.2664,0.0,0.0,2.2376,2.2498,2.3782,2.5461,2.7588,3.0228,3.1794,3.2638,3.2711,3.344,3.4174,3.4912,3.5771,3.6597,3.7419,3.8212,3.8634,3.8707,3.8707,3.8735,3.8792,3.8792,3.8837,3.8896,3.891,3.8935,3.8993,3.9007,3.905,3.9101,0.0,0.0,0.0,0.0,0.0,0.0,0.0,3.589,3.6148,3.5878,3.6523,3.7101,3.737,3.7706,3.821,3.8843,3.8898,3.9023,3.9272,3.9299,3.9299,3.9299,3.9299,3.8941,3.8228,3.7632,3.5876,0.0,0.0,0.0,0.0,0.0,0.0,0.0,0.0,3.0024,3.1491,3.3495,3.4616,3.5166,3.6426,3.6962,3.6969,3.6969,3.6969,3.6924,3.6485,3.6315,3.6248,3.5752,3.56,3.56,3.56,3.56,3.56,3.56,3.56,3.56,3.56,3.56,3.56,3.56,3.56,3.56,3.56,3.56,3.5295,3.4269,3.2882,3.1613,3.0903,3.0632,3.0395,2.9922,0.0,0.0,0.0,0.0,0.0,0.0,0.0,0.0,0.0,0.0,0.0,0.0,0.0,2.1877,2.4985,2.4958,2.6494,3.0087,0.0,3.2118,3.2601,3.3403,3.3972,3.4289,3.5661,3.6468,3.6817,3.8102,3.8707,3.8707,3.8707,3.8723,3.875,3.8777,3.8851,3.8892,3.8935,3.9007,3.9045,3.9045,3.9073,3.9101,3.3739,0.0,3.3894,0.0,3.468,3.4804,3.5419,3.5504,3.5504,3.5504,3.629,3.6845,3.6845,3.7221,3.7751,3.8383,3.8439,3.8623,3.8996,3.9023,3.9077,3.9299,3.9299,0.0,3.8526,3.8328,3.7069,3.4767,3.3806,0.0,0.0,0.0,0.0,0.0,3.1156,3.2303,3.3273,3.5151,3.6044,3.6308,3.7442,3.7905,3.7905,3.7905,3.7905,3.7838,3.7297,3.711,3.7026,3.6485,3.6276,3.6191,3.5735,3.56,3.56,3.56,3.56,3.56,3.56,3.56,3.56,3.56,3.56,3.56,3.56,3.56,3.5329,3.437,3.319,3.2073,3.1345,3.0768,3.0531,3.0835,0.0,0.0,0.0,2.8526,0.0,0.0,2.61,2.5259,2.4809,2.3575,0.0,0.0,0.0,0.0,0.0,0.0,0.0,0.0,0.0,0.0,3.2583,3.3403,3.4045,3.4541,3.5734,3.6541,3.7037,3.8193,3.8707,3.8707,3.8707,3.8723,3.8735,3.8807,3.8881,3.8939,3.9007,3.9064,3.9101,3.9101,3.9101,3.9101,3.4369,3.4488,3.4698,3.537,3.5489,3.5489,3.5504,3.5504,3.5504,3.5504,3.5504,3.5537,3.5537,3.5537,3.5765,3.6368,3.643,3.6981,3.8222,3.8306,3.8618,0.0,0.0,3.9299,3.9282,3.8576,3.7847,3.7069,0.0,0.0,3.1548,0.0,3.1255,3.2718,3.4187,3.5414,3.6386,3.7157,3.7614,3.7889,3.7905,3.7905,3.7905,3.7905,3.7905,3.7905,3.7889,3.7889,3.7889,3.7889,3.7872,3.7618,3.6073,3.56,3.56,3.56,3.56,3.56,3.56,3.56,3.56,3.56,3.56,3.56,3.56,3.56,3.5177,3.3728,3.2814,3.2073,3.1345,3.119,3.0954,3.0243,0.0,0.0,0.0,0.0,0.0,2.7188,2.5154,2.3929,2.4178,2.3518,0.0,0.0,0.0,0.0,0.0,0.0,0.0,3.0155,3.1739,0.0,3.2601,3.3403,3.4633,3.6266,3.6285,3.7129,3.867,3.8689,3.8707,3.8707,3.8707,3.8735,3.8807,3.8881,3.8939,3.9011,3.9073,3.9101,3.9101,3.9101,3.9101,3.9101,3.513,3.5175,3.525,3.5474,3.5504,3.5504,3.5504,3.5504,3.5504,3.5504,3.5504,3.5504,3.5504,3.6258,3.7041,0.0,3.8112,3.8551,0.0,3.898,3.9094,3.9299,3.9299,3.9299,3.9299,3.9083,3.8576,3.7864,0.0,0.0,0.0,3.4121,3.4502,3.4998,3.6057,3.6752,3.7207,3.8026,3.8486,3.8684,3.9191,3.9394,3.9394,3.9394,3.9394,3.9326,3.8819,3.865,3.8565,3.8075,3.7905,3.7821,3.733,3.7155,3.7077,3.6569,3.6417,3.6299,3.5735,3.56,3.56,3.56,3.56,3.56,3.56,3.5216,3.4573,3.3609,3.2797,3.2073,3.1345,3.119,3.1123,3.0886,3.0852,0.0,2.9875,0.0,2.8648,2.8121,2.6675,2.5805,2.6082,2.4949,0.0,0.0,0.0,0.0,0.0,0.0,0.0,0.0,3.1757,0.0,3.2601,3.394,3.4894,3.5426,3.656,3.7661,3.8707,3.8707,3.8707,3.8707,3.8707,3.8704,3.8735,3.8807,3.8881,3.8935,3.9007,3.9045,3.9101,3.9101,3.9101,3.9101,3.5504,3.5699,3.5878,3.5878,3.6073,3.6148,3.5908,3.5878,3.5789,3.5534,3.5504,3.5504,3.5504,3.6399,0.0,3.7251,3.7854,3.8327,3.8551,3.8788,3.905,3.9299,3.9299,3.9299,3.9299,3.9299,0.0,3.8609,3.788,3.7052,3.6158,3.6622,3.6837,3.6854,3.7735,3.8204,3.8363,3.8942,3.9294,3.9445,3.991,4.0096,4.0096,4.0096,4.0096,4.0045,3.9588,3.9394,3.9326,3.887,3.8717,3.8717,3.8717,3.8717,3.8531,3.7499,3.7195,3.7094,3.6597,3.6265,3.6062,3.6062,3.5802,3.56,3.56,3.525,3.4709,3.3964,3.322,3.2496,3.1752,3.1396,3.119,3.119,3.119,3.1099,3.083,0.0,2.9229,0.0,0.0,0.0,0.0,2.6381,2.661,0.0,0.0,0.0,0.0,0.0,2.9826,3.106,3.2375,3.3188,3.35,3.4509,3.5316,3.5973,3.7312,3.8212,3.8707,3.8707,3.8707,3.8707,3.8707,3.8707,3.8707,3.8762,3.8822,3.8881,3.895,3.9021,3.9078,3.9087,3.9101,3.9101,3.5639,3.6133,3.6552,3.6552,3.703,3.721,3.6641,3.6552,3.6327,3.5714,3.5639,3.5624,3.5579,3.6066,3.6162,3.5569,0.0,0.0,3.737,3.7966,3.859,3.9202,3.9272,3.9299,3.9299,3.9299,3.9299,3.9299,3.8609,3.8295,3.8295,3.8295,3.8295,3.8311,3.9132,3.959,3.9703,3.9833,3.9986,4.0096,4.0096,4.0096,4.0096,4.0096,4.0096,4.0096,4.0096,4.0096,4.0096,4.0096,4.0096,4.0096,4.0096,4.0096,3.9825,3.8396,3.799,3.7973,3.7922,3.7398,3.6863,3.6812,3.6197,3.56,3.56,3.56,3.538,3.4641,3.3947,3.3237,3.2446,3.1752,3.1258,3.1207,3.121,3.1387,3.184,3.0699,2.9713,0.0,0.0,0.0,2.6601,2.7925,2.8901,0.0,0.0,0.0,0.0,0.0,3.1054,3.2546,3.344,3.4247,3.5004,3.5133,3.5977,3.7584,3.834,3.8707,3.8707,3.8707,3.8707,3.8707,3.8707,3.8707,3.8707,3.878,3.8792,3.8822,3.8935,3.9011,3.9007,3.9073,3.9101,3.9101,0.0,0.0,3.7195,3.7195,3.7315,3.736,3.721,3.7195,3.7135,3.6985,3.6956,3.6776,3.6312,3.6403,3.6192,3.5549,3.6523,3.7221,3.7399,3.7966,3.8379,3.8535,3.9023,3.9299,3.9299,3.9299,3.9299,3.9299,3.9133,3.905,3.905,3.905,3.905,3.905,3.948,3.9677,3.9729,3.9961,4.0087,4.0096,4.0096,4.0096,4.0096,4.0096,4.0096,4.0096,4.0096,4.0096,4.0096,4.0096,4.0096,4.0096,4.0096,4.0096,3.9926,3.9005,3.8734,3.8616,3.8058,3.777,3.7499,3.6948,3.6197,3.56,3.56,3.56,3.538,3.4641,3.4353,3.3829,3.2547,3.2158,3.187,3.1275,3.1408,3.1674,3.1876,3.1374,3.108,0.0,3.0572,3.0077,3.0149,3.0503,3.0766,0.0,0.0,3.1861,3.2302,3.2142,3.2197,3.2583,3.3977,3.4821,3.5004,3.6266,3.7422,3.8414,3.8615,3.8707,3.8707,3.8707,3.8707,3.8707,3.8707,3.8707,3.8707,3.8723,3.8747,3.8807,3.8896,3.895,3.9007,3.9073,3.9101,3.9101,3.7404,3.7659,3.7853,3.7853,3.8123,3.8212,3.7898,3.7853,3.7749,3.7449,3.7404,3.7285,3.6941,3.6911,3.6761,3.6402,3.6721,3.6951,3.6951,3.7546,3.7994,3.8294,3.8662,3.8996,3.9299,3.9299,3.9299,3.9299,3.9299,3.9299,3.9299,3.9299,3.9299,3.9299,3.9573,3.9703,3.9729,3.9986,4.0096,4.0096,4.0096,4.0096,4.0096,4.0096,4.0096,4.0096,4.0096,4.0096,4.0096,4.0096,4.0096,4.0096,4.0096,4.0096,4.0028,3.9622,3.9503,3.9436,3.9005,3.865,3.8227,3.7483,3.6721,3.6146,3.6146,3.5853,3.5481,3.5098,3.4726,3.4252,3.3461,3.275,3.2175,3.1769,3.1572,3.1562,3.1858,3.1599,3.1509,3.1953,3.152,3.1245,3.1403,3.1733,3.1953,3.1953,3.2284,0.0,3.3128,3.35,3.3702,3.3702,3.4546,3.5371,3.6138,3.7404,3.8267,3.8707,3.8707,3.8707,3.8707,3.8707,3.8707,3.8707,3.8707,3.8707,3.8707,3.8707,3.8719,3.8765,3.8837,3.891,3.895,3.9036,3.9073,3.9101,3.7719,3.8153,3.8542,3.8542,3.9035,3.923,3.8631,3.8542,3.8347,3.7793,3.7719,3.7674,3.7569,3.7554,3.7524,3.7419,3.6899,3.6535,3.6553,3.7167,3.7775,3.8294,3.8407,3.8717,3.9299,3.9299,3.9299,3.9299,3.9299,3.9299,3.9299,3.9299,3.9299,3.9299,3.9573,3.9703,3.9729,3.9986,4.0096,4.0096,4.0096,4.0096,4.0096,4.0096,4.0096,4.0096,4.0096,4.0096,4.0096,4.0096,4.0096,4.0096,4.0096,4.0096,4.0096,4.0096,4.0096,4.0096,4.0096,3.9571,3.8853,3.8227,3.7499,3.6948,3.6829,3.6265,3.5735,3.5616,3.5115,3.4624,3.4506,3.3393,3.2429,3.2327,3.1724,3.1428,3.1913,0.0,3.1747,3.222,3.1973,3.1764,3.1764,3.2375,3.2821,3.2949,3.3605,3.4045,3.4174,3.4821,3.5261,3.5371,3.5371,3.6119,3.7676,3.8358,3.8707,3.8707,3.8707,3.8707,3.8707,3.8707,3.8707,3.8707,3.8707,3.8707,3.8707,3.8707,3.8707,3.8707,3.8777,3.8851,3.891,3.8983,3.905,3.9101,3.9074,3.9185,3.926,3.926,3.9313,3.9343,3.9275,3.926,3.923,3.9089,3.9074,3.8886,3.8302,3.8242,3.8018,3.7464,3.7312,3.7252,3.7259,3.7872,3.8271,3.8311,3.8827,3.9175,3.9299,3.9299,3.9299,3.9299,3.9299,3.9299,3.9299,3.9299,3.9299,3.9299,3.9573,3.9703,3.9729,3.9986,4.0096,4.0096,4.0096,4.0096,4.0096,4.0096,4.0096,4.0096,4.0096,4.0096,4.0096,4.0096,4.0096,4.0096,4.0096,4.0096,4.0096,4.0096,4.0096,4.0096,4.0096,3.9571,3.8971,3.8853,3.8278,3.7567,3.6948,3.6711,3.6417,3.5735,3.5498,3.525,3.4607,3.3795,3.3034,3.2395,3.1925,3.1805,3.2333,0.0,3.2988,3.3451,3.3468,3.3421,3.3421,3.3532,3.3885,3.4582,3.4747,3.5133,3.5862,3.6028,3.6413,3.7088,3.7125,3.7551,3.8505,3.8634,3.8707,3.8707,3.8707,3.8707,3.8707,3.8707,3.8707,3.8707,3.8707,3.8707,3.8707,3.8707,3.8707,3.8707,3.8777,3.8851,3.891,3.8983,3.905,3.9101,3.9388,3.9388,3.9388,3.9388,3.9388,3.9388,3.9388,3.9388,3.9388,3.9388,3.9388,3.929,3.8975,3.8945,3.8826,3.8512,3.8497,3.8476,3.8471,3.8443,3.8591,3.8884,3.9576,3.9928,3.9895,3.9497,3.9299,3.9299,3.9299,3.9299,3.9299,3.9299,3.9299,3.9299,3.9573,3.9703,3.9729,3.9986,4.0096,4.0096,4.0096,4.0096,4.0096,4.0096,4.0096,4.0096,4.0096,4.0096,4.0096,4.0096,4.0096,4.0096,4.0096,4.0096,4.0096,4.0096,4.0096,4.0096,4.0096,3.9859,3.9605,3.9605,3.9039,3.8396,3.8058,3.7371,3.6694,3.6315,3.591,3.5498,3.5165,3.4489,3.388,3.3525,3.2713,3.2294,3.2774,3.3222,3.3692,3.4131,3.4755,3.5147,3.5147,3.5147,3.5293,3.5679,3.5701,3.5881,3.6266,3.6707,3.7125,3.7492,3.7918,3.8322,3.8707,3.8707,3.8707,3.8707,3.8707,3.8707,3.8707,3.8707,3.8707,3.8707,3.8707,3.8707,3.8707,3.8707,3.8707,3.8707,3.8735,3.8807,3.8892,3.8921,3.9021,3.9101,3.9388,3.9388,3.9388,3.9388,3.9388,3.9388,3.9388,3.9388,3.9388,3.9388,3.9388,3.9388,3.9388,3.9388,3.9388,3.9388,3.9388,3.9399,3.9398,3.9115,3.9163,3.9611,4.0312,4.0689,4.063,4.0094,3.9796,3.9796,3.963,3.9564,3.9547,3.9381,3.9325,3.9352,3.9599,3.9729,3.9755,4.0011,4.0096,4.0096,4.0096,4.0096,4.0096,4.0096,4.0096,4.0096,4.0096,4.0096,4.0096,4.0096,4.0096,4.0096,4.0096,4.0096,4.0096,4.0096,4.0096,4.0096,4.0096,4.0096,4.0096,4.0096,3.9673,3.9191,3.9039,3.8132,3.7269,3.71,3.6434,3.5893,3.5893,3.5115,3.4489,3.4489,0.0,3.2886,3.3414,3.3847,3.4323,3.4864,3.5751,3.6303,3.6303,3.6303,3.6376,3.656,3.6593,3.6652,3.6853,3.7437,3.7786,3.7786,3.8377,3.8707,3.8707,3.8707,3.8707,3.8707,3.8707,3.8707,3.8707,3.8707,3.8707,3.8707,3.8707,3.8707,3.8707,3.8707,3.8707,3.8707,3.8707,3.878,3.8881,3.8877,3.8979,3.9073,3.9388,3.9388,3.9388,3.9388,3.9388,3.9388,3.9388,3.9388,3.9388,3.9388,3.9388,3.9388,3.9388,3.9388,3.9388,3.9388,3.9388,3.9394,3.9421,3.9989,4.0357,4.0333,4.0963,4.1335,4.1342,4.1276,4.1259,4.1259,4.0613,4.0326,4.031,3.9613,3.9352,3.9501,3.9642,3.9755,3.9884,4.0037,4.0096,4.0096,4.0096,4.0096,4.0096,4.0096,4.0096,4.0096,4.0096,4.0096,4.0096,4.0096,4.0096,4.0096,4.0096,4.0096,4.0096,4.0096,4.0096,4.0096,4.0096,4.0096,4.0096,4.0096,4.0062,3.9842,3.9165,3.8903,3.8633,3.7973,3.7229,3.6711,3.6711,3.5509,3.4489,3.4489,0.0,0.0,3.4552,3.4712,3.5075,3.6058,3.6252,3.6303,3.6303,3.6303,3.6611,3.7364,3.7419,3.7749,3.8487,3.8579,3.8615,3.8615,3.867,3.8707,3.8707,3.8707,3.8707,3.8707,3.8707,3.8707,3.8707,3.8707,3.8707,3.8707,3.8707,3.8707,3.8707,3.8707,3.8707,3.8707,3.8707,3.875,3.8822,3.8881,3.8954,3.9007,3.9388,3.9388,3.9388,3.9388,3.9388,3.9388,3.9388,3.9388,3.9388,3.9388,3.9388,3.9388,3.9388,3.9388,3.9388,3.9388,3.9824,4.0076,4.0076,4.0737,4.1288,4.1746,4.197,4.2059,4.2059,4.1612,4.1409,4.1409,4.1143,4.1011,4.1011,4.0729,4.0409,4.0076,4.0301,4.0165,3.9781,4.0011,4.0096,4.0096,4.0096,4.0096,4.0096,4.0096,4.0096,4.0096,4.0096,4.0096,4.0096,4.0096,4.0096,4.0096,4.0096,4.0096,4.0096,4.0096,4.0096,4.0096,4.0096,4.0096,4.0096,4.0096,4.0096,4.0028,3.9757,3.9326,3.892,3.8633,3.799,3.733,3.688,3.6321,3.5763,3.5267,0.0,3.449,3.5362,3.5598,3.6001,3.6926,3.7477,3.779,3.779,3.779,3.7918,3.8212,3.823,3.8377,3.8689,3.8707,3.8707,3.8707,3.8707,3.8707,3.8707,3.8707,3.8707,3.8707,3.8707,3.8707,3.8707,3.8707,3.8707,3.8707,3.8707,3.8707,3.8707,3.8707,3.8707,3.8707,3.8707,3.8735,3.8807,3.8837,3.891,3.9021,3.9388,3.9388,3.9388,3.9388,3.9388,3.9388,3.9388,3.9388,3.9388,3.9388,3.9388,3.9388,3.9388,3.9388,3.9388,3.9388,4.0076,4.0512,4.0512,4.1327,4.2078,4.2585,4.2758,4.2837,4.2837,4.234,4.2075,4.2075,4.1844,4.1728,4.1728,4.1496,4.1188,4.0812,4.1042,4.0876,4.0469,4.0687,4.0807,4.0807,4.0807,4.0654,4.0468,4.0468,4.0316,4.0096,4.0096,4.0096,4.0096,4.0096,4.0096,4.0096,4.0096,4.0096,4.0096,4.0096,4.0096,4.0096,4.0096,4.0096,4.0096,4.0096,4.0096,4.0096,4.0096,3.9723,3.9376,3.953,3.8856,3.8139,3.7784,3.7239,3.6655,3.6107,3.5615,3.5531,3.6248,3.6559,3.7015,3.7784,3.8358,3.8707,3.8707,3.8707,3.8707,3.8707,3.8707,3.8707,3.8707,3.8707,3.8707,3.8707,3.8707,3.8707,3.8707,3.8707,3.8707,3.8707,3.8707,3.8707,3.8707,3.8707,3.8707,3.8707,3.8707,3.8707,3.8707,3.8707,3.8707,3.8707,3.8707,3.8719,3.8762,3.8792,3.8866,3.8979,3.9388,3.9388,3.9388,3.9388,3.9388,3.9388,3.9388,3.9388,3.9388,3.9388,3.9388,3.9388,3.9388,3.9388,3.9388,3.9388,4.0076,4.0512,4.0512,4.1819,4.2617,4.2617,4.3235,4.3598,4.3598,4.3598,4.3598,4.3598,4.2853,4.2506,4.2489,4.1744,4.1515,4.1705,4.1855,4.1986,4.2105,4.2233,4.2286,4.2286,4.2286,4.1863,4.1221,4.1204,4.0747,4.0113,4.0096,4.0096,4.0096,4.0096,4.0096,4.0096,4.0096,4.0096,4.0096,4.0096,4.0096,4.0096,4.0096,4.0096,4.0096,4.0096,4.0096,4.0096,4.0096,4.0096,4.0229,4.0707,3.9846,3.9159,3.9629,3.818,3.6922,3.6922,3.6745,3.6781,3.7249,3.7667,3.8117,3.8643,3.8707,3.8707,3.8707,3.8707,3.8707,3.8707,3.8707,3.8707,3.8707,3.8707,3.8707,3.8707,3.8707,3.8707,3.8707,3.8707,3.8707,3.8707,3.8707,3.8707,3.8707,3.8707,3.8707,3.8707,3.8707,3.8707,3.8707,3.8707,3.8707,3.8707,3.8707,3.8707,3.8707,3.8777,3.8807,3.8848,3.9388,3.9388,3.9388,3.9388,3.9388,3.9388,3.9388,3.9388,3.9388,3.9388,3.9388,3.9388,3.9388,3.9388,3.9388,3.9388,4.0497,4.1624,4.26,4.3066,4.3295,4.3295,4.3492,4.3598,4.3598,4.3598,4.3598,4.3598,4.3367,4.3267,4.3267,4.3035,4.27,4.2261,4.2545,4.2417,4.1986,4.2196,4.2286,4.2286,4.2286,4.2168,4.1914,4.1407,4.1068,4.0798,4.0299,4.0096,4.0096,4.0096,4.0096,4.0096,4.0096,4.0096,4.0096,4.0096,4.0096,4.0096,4.0096,4.0096,4.0096,4.0096,4.0096,4.0096,4.0096,4.0163,4.0345,4.0707,4.0582,4.0348,4.0219,3.9761,3.9254,3.8751,3.8679,3.8665,3.8582,3.867,3.8732,3.8698,3.8707,3.8707,3.8707,3.8707,3.8707,3.8707,3.8707,3.8707,3.8707,3.8707,3.8707,3.8707,3.8707,3.8707,3.8707,3.8707,3.8707,3.8707,3.8707,3.8707,3.8707,3.8707,3.8707,3.8707,3.8707,3.8707,3.8707,3.8707,3.8707,3.8707,3.8707,3.8707,3.8707,3.8719,3.8765,3.8833,3.9388,3.9388,3.9388,3.9388,3.9388,3.9388,3.9388,3.9388,3.9388,3.9388,3.9388,3.9388,3.9388,3.9388,3.9388,3.9388,4.0703,4.211,4.3492,4.3598,4.3598,4.3598,4.3598,4.3598,4.3598,4.3598,4.3598,4.3598,4.3598,4.3598,4.3598,4.3598,4.338,4.3053,4.3313,4.3205,4.2886,4.3118,4.3227,4.3227,4.3227,4.3014,4.2692,4.2252,4.1897,4.1576,4.1119,4.0976,4.0942,4.0612,4.035,4.0096,4.0096,4.0096,4.0096,4.0096,4.0096,4.0096,4.0096,4.0096,4.0096,4.0096,4.0096,4.0096,4.0096,4.0213,4.0444,4.1036,4.1088,4.1091,4.1226,4.0875,4.0442,4.0061,3.9943,3.9854,3.9679,3.9783,3.9715,3.9227,3.9166,3.9056,3.8726,3.8707,3.8707,3.8707,3.8707,3.8707,3.8707,3.8707,3.8707,3.8707,3.8707,3.8707,3.8707,3.8707,3.8707,3.8707,3.8707,3.8707,3.8707,3.8707,3.8707,3.8707,3.8707,3.8707,3.8707,3.8707,3.8707,3.8707,3.8707,3.8707,3.8707,3.8707,3.8792,3.8946,3.9388,3.9388,3.9388,3.9388,3.9388,3.9388,3.9388,3.9388,3.9388,3.9388,3.9388,3.9388,3.9388,3.9388,3.9388,3.9388,4.0703,4.211,4.3492,4.3598,4.3598,4.3598,4.3598,4.3598,4.3598,4.3598,4.3598,4.3598,4.3598,4.3598,4.3598,4.3598,4.3704,4.3898,4.4056,4.4167,4.4293,4.4497,4.4615,4.4615,4.4615,4.4147,4.3494,4.3426,4.298,4.2388,4.232,4.2286,4.2185,4.1525,4.0798,4.0197,4.0197,4.0146,4.0096,4.0096,4.0096,4.0096,4.0096,4.0096,4.0096,4.0096,4.0096,4.0096,4.0096,4.0213,4.059,4.1512,4.141,4.1464,4.2384,4.1674,4.0989,4.1089,4.0866,4.0655,4.0654,4.0985,4.091,4.0102,4.001,3.9717,3.9001,3.8909,3.8909,3.8909,3.8854,3.8836,3.8909,3.8854,3.8836,3.8909,3.8909,3.8909,3.8909,3.8909,3.8836,3.8707,3.8707,3.8707,3.8707,3.8707,3.8707,3.8707,3.8707,3.8707,3.8707,3.8707,3.8707,3.8707,3.8707,3.8707,3.8707,3.8707,3.8866,3.9137,3.9388,3.9388,3.9388,3.9388,3.9388,3.9388,3.9388,3.9388,3.9388,3.9388,3.9388,3.9388,3.9388,3.9388,3.9388,3.9388,4.0703,4.211,4.3492,4.3598,4.3598,4.3598,4.3598,4.3598,4.3598,4.3598,4.3598,4.3598,4.3598,4.3598,4.3598,4.3598,4.3704,4.3898,4.4056,4.4167,4.4293,4.4497,4.4615,4.4615,4.4615,4.4513,4.4265,4.3656,4.3291,4.3098,4.2506,4.2286,4.2269,4.2117,4.1559,4.0967,4.0967,4.0561,4.0096,4.0096,4.0096,4.0096,4.0096,4.0096,4.0096,4.0096,4.0096,4.0096,4.0096,4.0271,4.0693,4.1534,4.1756,4.2056,4.2902,4.2923,4.2832,4.285,4.2849,4.2607,4.1984,4.1979,4.1754,4.093,4.0838,4.0765,4.06,4.0581,4.0581,4.0581,3.9992,3.9918,4.0545,3.9974,3.9937,4.0563,4.0581,4.0581,4.0581,4.0581,3.9939,3.8707,3.8707,3.8707,3.8707,3.8707,3.8707,3.8707,3.8707,3.8707,3.8707,3.8707,3.8707,3.8707,3.8707,3.8707,3.8707,3.8707,3.8866,3.9165,3.9388,3.9388,3.9388,3.9388,3.9388,3.9388,3.9388,3.9388,3.9388,3.9388,3.9388,3.9388,3.9388,3.9388,3.9553,3.9879,4.0907,4.1949,4.3035,4.3432,4.3598,4.3598,4.3598,4.3598,4.3598,4.3598,4.3598,4.3598,4.3598,4.3598,4.3598,4.3598,4.3747,4.3998,4.4068,4.4241,4.444,4.4542,4.4615,4.4615,4.4615,4.4615,4.4564,4.413,4.3978,4.391,4.3521,4.3149,4.2828,4.2828,4.2337,4.166,4.1322,4.0933,4.0544,4.0214,4.0096,4.0096,4.0096,4.0096,4.0096,4.0096,4.0096,4.0096,4.0096,4.0313,4.0741,4.1587,4.1931,4.236,4.3178,4.3376,4.3412,4.3446,4.3464,4.3334,4.2928,4.2873,4.2561,4.1772,4.168,4.1517,4.1132,4.1095,4.1095,4.1095,4.0726,4.0671,4.1077,4.0708,4.0671,4.1077,4.1095,4.1095,4.1095,4.1095,4.0673,3.9829,3.9829,3.9829,3.9829,3.9829,3.9829,3.9829,3.9829,3.9829,3.9811,3.9441,3.9276,3.9239,3.8854,3.8707,3.8723,3.8837,3.9137,3.9551,3.9388,3.9388,3.9388,3.9388,3.9388,3.9388,3.9388,3.9388,3.9388,3.9388,3.9388,3.9388,3.9388,3.9514,3.9892,4.0747,4.1453,4.2185,4.2894,4.3596,4.3962,4.3962,4.3847,4.378,4.378,4.3664,4.3598,4.3598,4.3598,4.3598,4.3598,4.3628,4.3805,4.4097,4.4126,4.4315,4.4615,4.4615,4.4615,4.4615,4.4615,4.4615,4.4615,4.4615,4.4615,4.4615,4.4615,4.4164,4.3623,4.3623,4.3115,4.2371,4.1779,4.1407,4.1085,4.0485,4.0197,4.0096,4.0096,4.0096,4.0121,4.0196,4.0221,4.0221,4.0221,4.0419,4.0825,4.1639,4.2077,4.2577,4.3339,4.3445,4.3429,4.3497,4.3464,4.3446,4.3497,4.3515,4.324,4.258,4.2506,4.2249,4.1572,4.1499,4.1499,4.1499,4.137,4.137,4.1515,4.137,4.137,4.1499,4.1499,4.1499,4.1499,4.1499,4.1499,4.1499,4.1499,4.137,4.1095,4.1095,4.1095,4.1095,4.1095,4.1095,4.104,4.023,3.99,3.9808,3.9019,3.8707,3.8753,3.9045,3.9489,3.9935,3.9388,3.9388,3.9388,3.9388,3.9388,3.9388,3.9388,3.9388,3.9388,3.9388,3.9388,3.9388,3.9388,3.9933,4.0766,4.2011,4.2876,4.3584,4.4284,4.5074,4.55,4.55,4.4887,4.4539,4.4539,4.3943,4.3598,4.3598,4.3598,4.3598,4.3598,4.3763,4.3939,4.4097,4.4224,4.4384,4.4615,4.4615,4.4615,4.4615,4.4615,4.4615,4.4615,4.4615,4.4615,4.4615,4.4615,4.4547,4.4445,4.4445,4.391,4.3223,4.3122,4.2236,4.1187,4.1085,4.0595,4.0096,4.0096,4.0096,4.0196,4.0587,4.0724,4.0724,4.0724,4.0879,4.1168,4.1686,4.2342,4.2957,4.341,4.3497,4.3497,4.3497,4.3497,4.3497,4.3497,4.3515,4.346,4.3349,4.3332,4.3277,4.3185,4.3167,4.3167,4.3167,4.2525,4.2433,4.313,4.2525,4.2451,4.3149,4.3167,4.3167,4.3167,4.3167,4.3167,4.3167,4.3167,4.2451,4.1095,4.1095,4.1095,4.1095,4.1095,4.1095,4.104,4.023,3.99,3.9808,3.9019,3.8707,3.8765,3.9259,3.9647,3.9935,3.9388,3.9388,3.9388,3.9388,3.9388,3.9388,3.9388,3.9388,3.9388,3.9388,3.9738,3.9963,3.9963,4.0906,4.1794,4.2396,4.3576,4.4408,4.4706,4.537,4.5798,4.5798,4.5483,4.5301,4.5301,4.4589,4.4224,4.4224,4.378,4.3598,4.3598,4.3809,4.3969,4.4097,4.4253,4.4412,4.4615,4.4615,4.4615,4.4615,4.4615,4.4615,4.4615,4.4615,4.4615,4.4615,4.4615,4.4615,4.4615,4.4615,4.435,4.3995,4.3527,4.2936,4.2286,4.1441,4.0967,4.0612,4.0214,4.0096,4.0204,4.0683,4.0802,4.0873,4.1116,4.1552,4.1874,4.181,4.218,4.2713,4.3375,4.3515,4.3515,4.3515,4.3515,4.3515,4.3515,4.3515,4.3515,4.3515,4.3515,4.3515,4.3515,4.3515,4.3515,4.3515,4.3167,4.313,4.3478,4.3149,4.313,4.3496,4.3515,4.3515,4.3515,4.3515,4.3515,4.3515,4.3515,4.313,4.2433,4.2433,4.2433,4.2433,4.2433,4.2194,4.1717,4.091,4.0304,3.9808,3.9019,3.8881,3.9183,3.9414,3.9751,4.0147]}]]